[[{"header":{"parameterUnit":"m.s-1","parameterCategory":1,"la1":31.0,"la2":29.5877,"lo1":-88.7671,"lo2":-86.6584,"dy":0.0162,"dx":0.0185,"nx":115,"ny":88,"refTime":"2023-03-17T18:00:00:Z","depth":0,"parameterNumber":2,"parameterNumberName":"U-component_of_WINDS"},"data":[0.0,0.0,0.0,0.0,0.0,0.0,0.0,0.0,0.0,0.0,0.0,0.0,0.0,0.0,0.0,0.0,0.0,0.0,0.0,0.0,0.0,0.0,0.0,0.0,0.0,0.0,0.0,0.0,0.0,0.0,0.0,0.0,0.0,0.0,0.0,0.0,0.0,0.0,0.0,0.0,0.0,0.0,0.0,0.0,0.0,0.0,0.0,0.0,0.0,0.0,0.0,0.0,0.0,0.0,0.0,0.0,0.0,0.0,0.0,0.0,0.0,0.0,0.0,0.0,0.0,0.0,0.0,0.0,0.0,0.0,0.0,0.0,0.0,0.0,0.0,0.0,0.0,0.0,0.0,0.0,0.0,0.0,0.0,0.0,0.0,0.0,0.0,0.0,0.0,0.0,0.0,0.0,0.0,0.0,0.0,0.0,0.0,0.0,0.0,0.0,0.0,0.0,0.0,0.0,0.0,0.0,0.0,0.0,0.0,0.0,0.0,0.0,0.0,0.0,0.0,0.0,0.0,0.0,0.0,0.0,0.0,0.0,0.0,0.0,0.0,0.0,0.0,0.0,0.0,0.0,0.0,0.0,0.0,0.0,0.0,0.0,0.0,0.0,0.0,0.0,0.0,0.0,0.0,0.0,0.0,0.0,0.0,0.0,0.0,0.0,0.0,0.0,0.0,0.0,0.0,0.0,0.0,0.0,0.0,0.0,0.0,0.0,0.0,0.0,0.0,0.0,0.0,0.0,0.0,0.0,0.0,0.0,0.0,0.0,0.0,0.0,0.0,0.0,0.0,0.0,0.0,0.0,0.0,0.0,0.0,0.0,0.0,0.0,0.0,0.0,0.0,0.0,0.0,0.0,0.0,0.0,0.0,0.0,0.0,0.0,0.0,0.0,0.0,0.0,0.0,0.0,0.0,0.0,0.0,0.0,0.0,0.0,0.0,0.0,0.0,0.0,0.0,0.0,0.0,0.0,0.0,0.0,0.0,0.0,0.0,0.0,0.0,0.0,0.0,0.0,0.0,0.0,0.0,0.0,0.0,0.0,0.0,0.0,0.0,0.0,0.0,0.0,0.0,0.0,0.0,0.0,0.0,0.0,0.0,0.0,0.0,0.0,0.0,0.0,0.0,0.0,0.0,0.0,0.0,0.0,0.0,0.0,0.0,0.0,0.0,0.0,0.0,0.0,0.0,0.0,0.0,0.0,0.0,0.0,0.0,0.0,0.0,0.0,0.0,0.0,0.0,0.0,0.0,0.0,0.0,0.0,0.0,0.0,0.0,0.0,0.0,0.0,0.0,0.0,0.0,0.0,0.0,0.0,0.0,0.0,0.0,0.0,0.0,0.0,0.0,0.0,0.0,0.0,0.0,0.0,0.0,0.0,0.0,0.0,0.0,0.0,0.0,0.0,0.0,0.0,0.0,0.0,0.0,0.0,0.0,0.0,0.0,0.0,0.0,0.0,0.0,0.0,0.0,0.0,0.0,0.0,0.0,0.0,0.0,0.0,0.0,0.0,0.0,0.0,0.0,0.0,0.0,0.0,0.0,0.0,0.0,0.0,0.0,0.0,0.0,0.0,0.0,0.0,0.0,0.0,0.0,0.0,0.0,0.0,0.0,0.0,0.0,0.0,0.0,0.0,0.0,0.0,0.0,0.0,0.0,0.0,0.0,0.0,0.0,0.0,0.0,0.0,0.0,0.0,0.0,0.0,0.0,0.0,0.0,0.0,0.0,0.0,0.0,0.0,0.0,0.0,0.0,0.0,0.0,0.0,0.0,0.0,0.0,0.0,0.0,0.0,0.0,0.0,0.0,0.0,0.0,0.0,0.0,0.0,0.0,0.0,0.0,0.0,0.0,0.0,0.0,0.0,0.0,0.0,0.0,0.0,0.0,0.0,0.0,0.0,0.0,0.0,0.0,0.0,0.0,0.0,0.0,0.0,0.0,0.0,0.0,0.0,0.0,0.0,0.0,0.0,0.0,0.0,0.0,0.0,0.0,0.0,0.0,0.0,0.0,0.0,0.0,0.0,0.0,0.0,0.0,0.0,0.0,0.0,0.0,0.0,0.0,0.0,0.0,0.0,0.0,0.0,0.0,0.0,0.0,0.0,0.0,0.0,0.0,0.0,0.0,0.0,0.0,0.0,0.0,0.0,0.0,0.0,0.0,0.0,0.0,0.0,0.0,0.0,0.0,0.0,0.0,0.0,0.0,0.0,0.0,0.0,0.0,0.0,0.0,0.0,0.0,0.0,0.0,0.0,0.0,0.0,0.0,0.0,0.0,0.0,0.0,0.0,0.0,0.0,0.0,0.0,0.0,0.0,0.0,0.0,0.0,0.0,0.0,0.0,0.0,0.0,0.0,0.0,0.0,0.0,0.0,0.0,0.0,0.0,0.0,0.0,0.0,0.0,0.0,0.0,0.0,0.0,0.0,0.0,0.0,0.0,0.0,0.0,0.0,0.0,0.0,0.0,0.0,0.0,0.0,0.0,0.0,0.0,0.0,0.0,0.0,0.0,0.0,0.0,0.0,0.0,0.0,0.0,0.0,0.0,0.0,0.0,0.0,0.0,0.0,0.0,0.0,0.0,0.0,0.0,0.0,0.0,0.0,0.0,0.0,0.0,0.0,0.0,0.0,0.0,0.0,0.0,0.0,0.0,0.0,0.0,0.0,0.0,0.0,0.0,0.0,0.0,0.0,0.0,0.0,0.0,0.0,0.0,0.0,0.0,0.0,0.0,0.0,0.0,0.0,0.0,0.0,0.0,0.0,0.0,0.0,0.0,0.0,0.0,0.0,0.0,0.0,0.0,0.0,0.0,0.0,0.0,0.0,0.0,0.0,0.0,0.0,0.0,0.0,0.0,0.0,0.0,0.0,0.0,0.0,0.0,0.0,0.0,0.0,0.0,0.0,0.0,0.0,0.0,0.0,0.0,0.0,0.0,0.0,0.0,0.0,0.0,0.0,0.0,0.0,0.0,0.0,0.0,0.0,0.0,0.0,0.0,0.0,0.0,0.0,0.0,0.0,0.0,0.0,0.0,0.0,0.0,0.0,0.0,0.0,0.0,0.0,0.0,0.0,0.0,0.0,0.0,0.0,0.0,0.0,0.0,0.0,0.0,0.0,0.0,0.0,0.0,0.0,0.0,0.0,0.0,0.0,0.0,0.0,0.0,0.0,0.0,0.0,0.0,0.0,0.0,0.0,0.0,0.0,0.0,0.0,0.0,0.0,0.0,0.0,0.0,0.0,0.0,0.0,0.0,0.0,0.0,0.0,0.0,0.0,0.0,0.0,0.0,0.0,0.0,0.0,0.0,0.0,0.0,0.0,0.0,0.0,0.0,0.0,0.0,0.0,0.0,0.0,0.0,0.0,0.0,0.0,0.0,0.0,0.0,0.0,0.0,0.0,0.0,0.0,0.0,0.0,0.0,0.0,0.0,0.0,0.0,0.0,0.0,0.0,0.0,0.0,0.0,0.0,0.0,0.0,0.0,0.0,0.0,0.0,0.0,0.0,0.0,0.0,0.0,0.0,0.0,0.0,0.0,0.0,0.0,0.0,0.0,0.0,0.0,0.0,0.0,0.0,0.0,0.0,0.0,0.0,0.0,0.0,0.0,0.0,0.0,0.0,0.0,0.0,0.0,0.0,0.0,0.0,0.0,0.0,0.0,0.0,0.0,0.0,0.0,0.0,0.0,0.0,0.0,0.0,0.0,0.0,0.0,0.0,0.0,0.0,0.0,0.0,0.0,0.0,0.0,0.0,0.0,0.0,0.0,0.0,0.0,0.0,0.0,0.0,0.0,0.0,0.0,0.0,0.0,0.0,0.0,0.0,0.0,0.0,0.0,0.0,0.0,0.0,0.0,0.0,0.0,0.0,0.0,0.0,0.0,0.0,0.0,0.0,0.0,0.0,0.0,0.0,0.0,0.0,0.0,0.0,0.0,0.0,0.0,0.0,0.0,0.0,0.0,0.0,0.0,0.0,0.0,0.0,0.0,0.0,0.0,0.0,0.0,0.0,0.0,0.0,0.0,0.0,0.0,0.0,0.0,0.0,0.0,0.0,0.0,0.0,0.0,0.0,0.0,0.0,0.0,0.0,0.0,0.0,0.0,0.0,0.0,0.0,0.0,0.0,0.0,0.0,0.0,0.0,0.0,0.0,0.0,0.0,0.0,0.0,0.0,0.0,0.0,0.0,0.0,0.0,0.0,0.0,0.0,0.0,0.0,0.0,0.0,0.0,0.0,0.0,0.0,0.0,0.0,0.0,0.0,0.0,0.0,3.0279,0.0,0.0,0.0,0.0,0.0,0.0,0.0,0.0,0.0,0.0,0.0,0.0,0.0,0.0,0.0,0.0,0.0,0.0,0.0,0.0,0.0,0.0,0.0,0.0,0.0,0.0,0.0,0.0,0.0,0.0,0.0,0.0,0.0,0.0,0.0,0.0,0.0,0.0,0.0,0.0,0.0,0.0,0.0,0.0,0.0,0.0,0.0,0.0,0.0,0.0,0.0,0.0,0.0,0.0,0.0,0.0,0.0,0.0,0.0,0.0,0.0,0.0,0.0,0.0,0.0,0.0,0.0,0.0,0.0,0.0,0.0,0.0,0.0,0.0,0.0,0.0,0.0,0.0,0.0,0.0,0.0,0.0,0.0,0.0,0.0,0.0,0.0,0.0,0.0,0.0,0.0,0.0,0.0,0.0,0.0,0.0,0.0,0.0,0.0,0.0,0.0,0.0,0.0,0.0,0.0,0.0,0.0,0.0,0.0,0.0,3.034,3.0379,3.0304,3.0318,3.0318,0.0,0.0,0.0,0.0,0.0,0.0,0.0,0.0,0.0,0.0,0.0,0.0,0.0,0.0,0.0,0.0,0.0,0.0,0.0,0.0,0.0,0.0,0.0,0.0,0.0,0.0,0.0,0.0,0.0,0.0,0.0,0.0,0.0,0.0,0.0,0.0,0.0,0.0,0.0,0.0,0.0,0.0,0.0,0.0,0.0,0.0,0.0,0.0,0.0,0.0,0.0,0.0,0.0,0.0,0.0,0.0,0.0,0.0,0.0,0.0,0.0,0.0,0.0,0.0,0.0,0.0,0.0,0.0,0.0,0.0,0.0,0.0,0.0,0.0,0.0,0.0,0.0,0.0,0.0,0.0,0.0,0.0,0.0,0.0,0.0,0.0,0.0,0.0,0.0,0.0,0.0,0.0,0.0,0.0,0.0,0.0,0.0,0.0,0.0,0.0,0.0,0.0,0.0,0.0,0.0,0.0,0.0,0.0,0.0,0.0,0.0,0.0,3.0328,3.0316,3.0316,0.0,0.0,0.0,0.0,0.0,0.0,0.0,0.0,0.0,0.0,0.0,0.0,0.0,0.0,0.0,0.0,0.0,0.0,0.0,0.0,0.0,0.0,0.0,0.0,0.0,0.0,0.0,0.0,0.0,0.0,0.0,0.0,0.0,0.0,0.0,0.0,0.0,0.0,0.0,0.0,0.0,0.0,0.0,0.0,0.0,0.0,0.0,0.0,0.0,0.0,0.0,0.0,0.0,0.0,0.0,0.0,0.0,0.0,0.0,0.0,0.0,0.0,0.0,0.0,0.0,0.0,0.0,0.0,0.0,0.0,0.0,0.0,0.0,0.0,0.0,0.0,0.0,0.0,0.0,0.0,0.0,0.0,0.0,0.0,0.0,0.0,0.0,0.0,0.0,0.0,0.0,0.0,0.0,0.0,0.0,0.0,0.0,0.0,0.0,0.0,0.0,0.0,0.0,0.0,0.0,0.0,0.0,0.0,0.0,0.0,3.0379,3.0379,3.0379,0.0,3.0379,0.0,0.0,0.0,0.0,0.0,0.0,0.0,0.0,0.0,0.0,0.0,0.0,0.0,0.0,0.0,0.0,0.0,0.0,0.0,0.0,0.0,0.0,0.0,0.0,0.0,0.0,0.0,0.0,0.0,0.0,0.0,0.0,0.0,0.0,0.0,0.0,0.0,0.0,0.0,0.0,0.0,0.0,0.0,0.0,0.0,0.0,0.0,0.0,0.0,0.0,0.0,0.0,0.0,0.0,0.0,0.0,0.0,0.0,0.0,0.0,0.0,0.0,0.0,0.0,0.0,0.0,0.0,0.0,0.0,0.0,0.0,0.0,0.0,0.0,0.0,0.0,0.0,0.0,0.0,0.0,0.0,0.0,0.0,0.0,0.0,0.0,0.0,0.0,0.0,0.0,0.0,0.0,0.0,0.0,0.0,0.0,0.0,0.0,0.0,0.0,0.0,0.0,0.0,0.0,0.0,0.0,0.0,0.0,0.0,0.0,3.0379,3.0379,3.0379,3.0379,0.0,0.0,0.0,0.0,0.0,0.0,0.0,0.0,0.0,0.0,0.0,0.0,0.0,0.0,0.0,0.0,0.0,0.0,0.0,0.0,0.0,0.0,0.0,0.0,0.0,0.0,0.0,0.0,0.0,0.0,0.0,0.0,0.0,0.0,0.0,0.0,0.0,0.0,0.0,0.0,0.0,0.0,0.0,0.0,0.0,0.0,0.0,0.0,0.0,0.0,0.0,0.0,0.0,0.0,0.0,0.0,0.0,0.0,0.0,0.0,0.0,0.0,0.0,0.0,0.0,0.0,0.0,0.0,0.0,0.0,0.0,0.0,0.0,0.0,0.0,0.0,0.0,0.0,0.0,0.0,0.0,0.0,0.0,0.0,0.0,0.0,0.0,0.0,0.0,0.0,0.0,0.0,0.0,0.0,0.0,0.0,0.0,0.0,0.0,0.0,0.0,0.0,0.0,0.0,0.0,0.0,0.0,0.0,0.0,0.0,3.0402,3.0414,3.0414,3.0414,3.0414,3.0414,0.0,0.0,0.0,0.0,0.0,0.0,0.0,0.0,0.0,0.0,0.0,0.0,0.0,0.0,0.0,0.0,0.0,0.0,0.0,0.0,0.0,0.0,0.0,0.0,0.0,0.0,0.0,0.0,0.0,0.0,0.0,0.0,0.0,0.0,0.0,0.0,0.0,0.0,0.0,0.0,0.0,0.0,0.0,0.0,0.0,0.0,0.0,0.0,0.0,0.0,0.0,0.0,0.0,0.0,0.0,0.0,0.0,0.0,0.0,0.0,0.0,0.0,0.0,0.0,0.0,0.0,0.0,0.0,0.0,0.0,0.0,0.0,0.0,0.0,0.0,0.0,0.0,0.0,0.0,0.0,0.0,0.0,0.0,0.0,0.0,0.0,0.0,0.0,0.0,0.0,0.0,0.0,0.0,0.0,0.0,0.0,0.0,0.0,0.0,0.0,0.0,0.0,0.0,0.0,0.0,0.0,0.0,0.0,3.039,3.0409,3.0441,3.0479,3.0479,3.0479,0.0,0.0,0.0,0.0,0.0,0.0,0.0,0.0,0.0,0.0,0.0,0.0,0.0,0.0,0.0,0.0,0.0,0.0,0.0,0.0,0.0,0.0,0.0,0.0,0.0,0.0,0.0,0.0,0.0,0.0,0.0,0.0,0.0,0.0,0.0,0.0,0.0,0.0,0.0,0.0,0.0,0.0,0.0,0.0,0.0,0.0,0.0,0.0,0.0,0.0,0.0,0.0,0.0,0.0,0.0,0.0,0.0,0.0,0.0,0.0,0.0,0.0,0.0,0.0,0.0,0.0,0.0,0.0,0.0,0.0,0.0,0.0,0.0,0.0,0.0,0.0,0.0,0.0,0.0,0.0,0.0,0.0,0.0,0.0,0.0,0.0,0.0,0.0,0.0,0.0,0.0,0.0,0.0,0.0,0.0,0.0,0.0,0.0,0.0,0.0,0.0,0.0,0.0,0.0,0.0,0.0,0.0,0.0,0.0,3.0375,3.0419,3.049,3.05,3.05,3.05,0.0,0.0,0.0,0.0,0.0,0.0,0.0,0.0,0.0,0.0,0.0,0.0,0.0,0.0,0.0,0.0,0.0,0.0,0.0,0.0,0.0,0.0,0.0,0.0,0.0,0.0,0.0,0.0,0.0,0.0,0.0,0.0,0.0,0.0,0.0,0.0,0.0,0.0,0.0,0.0,0.0,0.0,0.0,0.0,0.0,0.0,0.0,0.0,0.0,0.0,0.0,0.0,0.0,0.0,0.0,0.0,0.0,0.0,0.0,0.0,0.0,0.0,0.0,0.0,0.0,0.0,0.0,0.0,0.0,0.0,0.0,0.0,0.0,0.0,0.0,0.0,0.0,0.0,0.0,0.0,0.0,0.0,0.0,0.0,0.0,0.0,0.0,0.0,0.0,0.0,0.0,0.0,0.0,0.0,0.0,0.0,0.0,0.0,0.0,0.0,0.0,0.0,0.0,0.0,0.0,0.0,0.0,0.0,0.0,3.1262,0.0,3.138,3.1342,3.1071,3.0955,0.0,0.0,0.0,0.0,0.0,0.0,0.0,0.0,0.0,0.0,0.0,0.0,0.0,0.0,0.0,0.0,0.0,0.0,0.0,0.0,0.0,0.0,0.0,0.0,0.0,0.0,0.0,0.0,0.0,0.0,0.0,0.0,0.0,0.0,0.0,0.0,0.0,0.0,0.0,0.0,0.0,0.0,0.0,0.0,0.0,0.0,0.0,0.0,0.0,0.0,0.0,0.0,0.0,0.0,0.0,0.0,0.0,0.0,0.0,0.0,0.0,0.0,0.0,0.0,0.0,0.0,0.0,0.0,0.0,0.0,0.0,0.0,0.0,0.0,0.0,0.0,0.0,0.0,0.0,0.0,0.0,0.0,0.0,0.0,0.0,0.0,0.0,0.0,0.0,0.0,0.0,0.0,0.0,0.0,0.0,0.0,0.0,0.0,0.0,0.0,0.0,0.0,0.0,0.0,0.0,0.0,0.0,0.0,3.2342,3.3113,3.3209,3.3355,3.3231,3.2532,3.1988,0.0,0.0,0.0,0.0,0.0,0.0,0.0,0.0,0.0,0.0,0.0,0.0,0.0,0.0,0.0,0.0,0.0,0.0,0.0,0.0,0.0,0.0,0.0,0.0,0.0,0.0,0.0,0.0,0.0,0.0,0.0,0.0,0.0,0.0,0.0,0.0,0.0,0.0,0.0,0.0,0.0,0.0,0.0,0.0,0.0,0.0,0.0,0.0,0.0,0.0,0.0,0.0,0.0,0.0,0.0,0.0,0.0,0.0,0.0,0.0,0.0,0.0,0.0,0.0,0.0,0.0,0.0,0.0,0.0,0.0,0.0,0.0,0.0,0.0,0.0,0.0,0.0,0.0,0.0,0.0,0.0,0.0,0.0,0.0,0.0,0.0,0.0,0.0,0.0,0.0,0.0,0.0,0.0,0.0,0.0,0.0,0.0,0.0,0.0,0.0,0.0,0.0,0.0,0.0,0.0,0.0,0.0,0.0,0.0,3.6714,3.7269,3.7597,3.7622,3.6246,3.4917,0.0,0.0,0.0,0.0,0.0,0.0,0.0,0.0,0.0,0.0,0.0,0.0,0.0,0.0,0.0,0.0,0.0,0.0,0.0,0.0,0.0,0.0,0.0,0.0,0.0,0.0,0.0,0.0,0.0,0.0,0.0,0.0,0.0,0.0,0.0,0.0,0.0,0.0,0.0,0.0,0.0,0.0,0.0,0.0,0.0,0.0,0.0,0.0,0.0,0.0,0.0,0.0,0.0,0.0,0.0,0.0,0.0,0.0,0.0,0.0,0.0,0.0,0.0,0.0,0.0,0.0,0.0,0.0,0.0,0.0,0.0,0.0,0.0,0.0,0.0,0.0,0.0,0.0,0.0,0.0,0.0,0.0,0.0,0.0,0.0,0.0,0.0,0.0,0.0,0.0,0.0,0.0,0.0,0.0,0.0,0.0,0.0,0.0,0.0,0.0,0.0,0.0,0.0,0.0,0.0,0.0,0.0,0.0,0.0,4.5434,4.385,4.3039,4.3091,4.1098,3.8916,3.6629,0.0,0.0,0.0,0.0,0.0,0.0,0.0,0.0,0.0,0.0,0.0,0.0,0.0,0.0,0.0,0.0,0.0,0.0,0.0,0.0,0.0,0.0,0.0,0.0,0.0,0.0,0.0,0.0,0.0,0.0,0.0,0.0,0.0,0.0,0.0,0.0,0.0,0.0,0.0,0.0,0.0,0.0,0.0,0.0,0.0,0.0,0.0,0.0,0.0,0.0,0.0,0.0,0.0,0.0,0.0,0.0,0.0,0.0,0.0,0.0,0.0,0.0,0.0,0.0,0.0,0.0,0.0,0.0,0.0,0.0,0.0,0.0,0.0,0.0,0.0,0.0,0.0,0.0,0.0,0.0,0.0,0.0,0.0,0.0,0.0,0.0,0.0,0.0,0.0,0.0,0.0,0.0,0.0,0.0,0.0,0.0,0.0,0.0,0.0,0.0,0.0,0.0,0.0,0.0,0.0,0.0,0.0,0.0,5.8117,5.2948,5.0041,4.9529,4.6922,4.3802,0.0,0.0,0.0,0.0,0.0,0.0,0.0,0.0,0.0,0.0,0.0,0.0,0.0,0.0,0.0,0.0,0.0,0.0,0.0,0.0,0.0,0.0,0.0,0.0,0.0,0.0,0.0,0.0,0.0,0.0,0.0,0.0,0.0,0.0,0.0,0.0,0.0,0.0,0.0,0.0,0.0,0.0,0.0,0.0,0.0,0.0,0.0,0.0,0.0,0.0,0.0,0.0,0.0,0.0,0.0,0.0,0.0,0.0,0.0,0.0,0.0,0.0,0.0,0.0,0.0,0.0,0.0,0.0,0.0,0.0,0.0,0.0,0.0,0.0,0.0,0.0,0.0,0.0,0.0,0.0,0.0,0.0,0.0,0.0,0.0,0.0,0.0,0.0,0.0,0.0,0.0,0.0,0.0,0.0,0.0,0.0,0.0,0.0,0.0,0.0,0.0,0.0,0.0,0.0,0.0,0.0,0.0,0.0,0.0,6.4151,6.6564,6.4737,5.8543,5.4552,5.0025,0.0,0.0,0.0,0.0,0.0,0.0,0.0,0.0,0.0,0.0,0.0,0.0,0.0,0.0,0.0,0.0,0.0,0.0,0.0,0.0,0.0,0.0,0.0,0.0,0.0,0.0,0.0,0.0,0.0,0.0,0.0,0.0,0.0,0.0,0.0,0.0,0.0,0.0,0.0,0.0,0.0,0.0,0.0,0.0,0.0,0.0,0.0,0.0,0.0,0.0,0.0,0.0,0.0,0.0,0.0,0.0,0.0,0.0,0.0,0.0,0.0,0.0,0.0,0.0,0.0,0.0,0.0,0.0,0.0,0.0,0.0,0.0,0.0,0.0,0.0,0.0,0.0,0.0,0.0,0.0,0.0,0.0,0.0,0.0,0.0,0.0,0.0,0.0,0.0,0.0,0.0,0.0,0.0,0.0,0.0,0.0,0.0,0.0,0.0,0.0,0.0,0.0,0.0,0.0,0.0,0.0,0.0,0.0,6.3015,7.0967,7.6197,7.6136,7.0494,6.3728,5.6766,0.0,0.0,0.0,0.0,0.0,0.0,0.0,0.0,0.0,0.0,0.0,0.0,0.0,0.0,0.0,0.0,0.0,0.0,0.0,0.0,0.0,0.0,0.0,0.0,0.0,0.0,0.0,0.0,0.0,0.0,0.0,0.0,0.0,0.0,0.0,0.0,0.0,0.0,0.0,0.0,0.0,0.0,0.0,0.0,0.0,0.0,0.0,0.0,0.0,0.0,0.0,0.0,0.0,0.0,0.0,0.0,0.0,0.0,0.0,0.0,0.0,0.0,0.0,0.0,0.0,0.0,0.0,0.0,0.0,0.0,0.0,0.0,0.0,0.0,0.0,0.0,0.0,0.0,0.0,0.0,0.0,0.0,0.0,0.0,0.0,0.0,0.0,0.0,0.0,0.0,0.0,0.0,0.0,0.0,0.0,0.0,0.0,0.0,0.0,0.0,0.0,0.0,0.0,0.0,0.0,0.0,0.0,0.0,6.8234,7.7458,8.2852,8.471,8.2773,7.3044,6.3581,0.0,0.0,0.0,0.0,0.0,0.0,0.0,0.0,0.0,0.0,0.0,0.0,0.0,0.0,0.0,0.0,0.0,0.0,0.0,0.0,0.0,0.0,0.0,0.0,0.0,0.0,0.0,0.0,0.0,0.0,0.0,0.0,0.0,0.0,0.0,0.0,0.0,0.0,0.0,0.0,0.0,0.0,0.0,0.0,0.0,0.0,0.0,0.0,0.0,0.0,0.0,0.0,0.0,0.0,0.0,0.0,0.0,0.0,0.0,0.0,0.0,0.0,0.0,0.0,0.0,0.0,0.0,0.0,0.0,0.0,0.0,0.0,0.0,0.0,0.0,0.0,0.0,0.0,0.0,0.0,0.0,0.0,0.0,0.0,0.0,0.0,0.0,0.0,0.0,0.0,0.0,0.0,0.0,0.0,0.0,0.0,0.0,0.0,0.0,0.0,0.0,0.0,0.0,0.0,0.0,0.0,0.0,0.0,7.2912,8.1012,8.6928,8.908,8.7344,7.8007,6.8593,0.0,0.0,0.0,0.0,0.0,0.0,0.0,0.0,0.0,0.0,0.0,0.0,0.0,0.0,0.0,0.0,0.0,0.0,0.0,0.0,0.0,0.0,0.0,0.0,0.0,0.0,0.0,0.0,0.0,0.0,0.0,0.0,0.0,0.0,0.0,0.0,0.0,0.0,0.0,0.0,0.0,0.0,0.0,0.0,0.0,0.0,0.0,0.0,3.9845,0.0,0.0,0.0,0.0,0.0,0.0,0.0,0.0,0.0,0.0,0.0,0.0,0.0,0.0,0.0,0.0,0.0,0.0,0.0,0.0,0.0,0.0,0.0,0.0,0.0,0.0,0.0,0.0,0.0,0.0,0.0,0.0,0.0,0.0,0.0,0.0,0.0,0.0,0.0,0.0,0.0,0.0,0.0,0.0,0.0,0.0,0.0,0.0,0.0,0.0,0.0,0.0,0.0,0.0,0.0,0.0,0.0,0.0,0.0,7.7034,8.5117,9.0447,9.2322,9.0351,8.2929,7.3984,0.0,0.0,0.0,0.0,0.0,0.0,0.0,0.0,0.0,0.0,0.0,0.0,0.0,0.0,0.0,0.0,0.0,0.0,0.0,0.0,0.0,0.0,0.0,0.0,0.0,0.0,0.0,0.0,0.0,0.0,0.0,0.0,0.0,0.0,0.0,0.0,0.0,0.0,0.0,0.0,0.0,0.0,0.0,0.0,0.0,0.0,0.0,0.0,0.0,0.0,0.0,0.0,0.0,0.0,0.0,0.0,0.0,0.0,0.0,0.0,0.0,0.0,0.0,0.0,0.0,0.0,0.0,0.0,0.0,0.0,0.0,0.0,0.0,0.0,0.0,0.0,0.0,0.0,0.0,0.0,0.0,0.0,0.0,0.0,0.0,0.0,0.0,0.0,0.0,0.0,0.0,0.0,0.0,0.0,0.0,0.0,0.0,0.0,0.0,0.0,0.0,0.0,0.0,0.0,0.0,0.0,0.0,7.1714,8.068,8.8828,9.3228,9.4556,9.2773,8.6953,7.875,6.8047,0.0,0.0,0.0,0.0,0.0,0.0,0.0,0.0,0.0,0.0,0.0,0.0,0.0,0.0,0.0,0.0,0.0,0.0,0.0,0.0,0.0,0.0,0.0,0.0,0.0,0.0,0.0,0.0,0.0,0.0,0.0,0.0,0.0,0.0,0.0,0.0,0.0,0.0,3.9888,4.3905,0.0,0.0,0.0,0.0,0.0,0.0,0.0,0.0,4.7495,0.0,0.0,0.0,0.0,0.0,0.0,0.0,0.0,0.0,0.0,0.0,0.0,0.0,0.0,0.0,0.0,0.0,0.0,0.0,0.0,0.0,0.0,0.0,0.0,0.0,0.0,0.0,0.0,0.0,0.0,0.0,0.0,0.0,0.0,0.0,0.0,0.0,0.0,0.0,0.0,0.0,0.0,0.0,0.0,0.0,0.0,0.0,0.0,0.0,0.0,0.0,0.0,0.0,0.0,0.0,0.0,6.4817,7.4948,8.3616,9.0703,9.4414,9.5468,9.3594,8.7851,8.0429,7.1367,0.0,0.0,0.0,0.0,0.0,0.0,0.0,0.0,0.0,0.0,0.0,0.0,0.0,0.0,0.0,0.0,0.0,0.0,0.0,0.0,0.0,0.0,0.0,0.0,0.0,0.0,0.0,0.0,0.0,0.0,0.0,0.0,0.0,0.0,0.0,0.0,0.0,0.0,0.0,4.924,5.149,0.0,0.0,0.0,0.0,0.0,0.0,0.0,0.0,5.0918,0.0,0.0,0.0,0.0,0.0,0.0,0.0,0.0,0.0,0.0,0.0,0.0,0.0,0.0,0.0,0.0,0.0,0.0,0.0,0.0,0.0,0.0,0.0,0.0,0.0,0.0,0.0,0.0,0.0,0.0,0.0,0.0,0.0,0.0,0.0,0.0,0.0,0.0,0.0,0.0,0.0,0.0,0.0,0.0,0.0,0.0,0.0,0.0,0.0,0.0,0.0,0.0,0.0,0.0,0.0,6.7578,7.7771,8.5924,9.1797,9.5351,9.6094,9.3867,8.8047,8.0625,0.0,0.0,0.0,0.0,0.0,0.0,0.0,0.0,0.0,0.0,0.0,0.0,0.0,0.0,0.0,0.0,0.0,0.0,0.0,0.0,0.0,0.0,0.0,0.0,0.0,0.0,0.0,0.0,0.0,0.0,0.0,0.0,0.0,0.0,0.0,0.0,0.0,0.0,0.0,0.0,5.3205,5.5709,5.4994,0.0,0.0,0.0,0.0,0.0,0.0,5.6251,5.5965,0.0,0.0,0.0,0.0,0.0,0.0,0.0,0.0,0.0,0.0,0.0,0.0,0.0,0.0,0.0,0.0,0.0,0.0,0.0,0.0,0.0,0.0,0.0,0.0,0.0,0.0,0.0,0.0,0.0,0.0,0.0,0.0,0.0,0.0,0.0,0.0,0.0,0.0,0.0,0.0,0.0,0.0,0.0,0.0,0.0,0.0,0.0,0.0,0.0,0.0,0.0,0.0,0.0,0.0,0.0,7.018,8.0041,8.776,9.2969,9.6094,9.6484,9.3906,8.8047,8.0508,0.0,0.0,0.0,0.0,0.0,0.0,0.0,0.0,0.0,0.0,0.0,0.0,0.0,0.0,0.0,0.0,0.0,0.0,0.0,0.0,0.0,0.0,0.0,0.0,0.0,0.0,0.0,0.0,0.0,0.0,0.0,0.0,0.0,0.0,0.0,0.0,0.0,0.0,0.0,0.0,0.0,5.9641,5.9993,6.0073,0.0,0.0,0.0,0.0,6.0417,6.1151,0.0,0.0,0.0,0.0,0.0,0.0,0.0,0.0,0.0,0.0,0.0,0.0,0.0,0.0,0.0,0.0,0.0,0.0,0.0,0.0,0.0,0.0,0.0,0.0,0.0,0.0,0.0,0.0,0.0,0.0,0.0,0.0,0.0,0.0,0.0,0.0,0.0,0.0,0.0,0.0,0.0,0.0,0.0,0.0,0.0,0.0,0.0,0.0,0.0,0.0,0.0,0.0,0.0,0.0,0.0,0.0,7.2748,8.1569,8.8928,9.4648,9.6758,9.6484,9.3906,8.8047,8.0781,0.0,0.0,0.0,0.0,0.0,0.0,0.0,0.0,0.0,0.0,0.0,0.0,0.0,0.0,0.0,0.0,0.0,0.0,0.0,0.0,0.0,0.0,0.0,0.0,0.0,0.0,0.0,0.0,0.0,0.0,0.0,0.0,0.0,0.0,0.0,0.0,0.0,0.0,0.0,0.0,0.0,6.3502,6.4401,6.4582,6.4569,0.0,0.0,6.4014,6.5627,6.6019,0.0,0.0,0.0,0.0,0.0,0.0,0.0,0.0,0.0,0.0,0.0,0.0,0.0,0.0,0.0,0.0,0.0,0.0,0.0,0.0,0.0,0.0,0.0,0.0,0.0,0.0,0.0,0.0,0.0,0.0,0.0,0.0,0.0,0.0,0.0,0.0,0.0,0.0,0.0,0.0,0.0,0.0,0.0,0.0,0.0,0.0,0.0,0.0,0.0,0.0,0.0,0.0,0.0,0.0,0.0,6.552,7.3973,8.2532,8.9371,9.4297,9.6562,9.625,9.3242,8.8281,8.1133,0.0,0.0,0.0,0.0,0.0,0.0,0.0,0.0,0.0,0.0,0.0,0.0,0.0,0.0,0.0,0.0,0.0,0.0,0.0,0.0,0.0,0.0,0.0,0.0,0.0,0.0,0.0,0.0,0.0,0.0,0.0,0.0,0.0,0.0,0.0,0.0,0.0,0.0,0.0,0.0,0.0,0.0,6.8604,6.906,0.0,0.0,0.0,6.9224,7.0967,0.0,0.0,0.0,0.0,0.0,0.0,0.0,0.0,0.0,0.0,0.0,0.0,0.0,0.0,0.0,0.0,0.0,0.0,0.0,0.0,0.0,0.0,0.0,0.0,0.0,0.0,0.0,0.0,0.0,0.0,0.0,0.0,0.0,0.0,0.0,0.0,0.0,0.0,0.0,0.0,0.0,0.0,0.0,0.0,0.0,0.0,0.0,0.0,0.0,0.0,0.0,0.0,0.0,0.0,0.0,0.0,0.0,7.5184,8.3515,8.9883,9.4101,9.6484,9.6172,9.2969,8.8554,0.0,0.0,0.0,0.0,0.0,0.0,0.0,0.0,0.0,0.0,0.0,0.0,0.0,0.0,0.0,0.0,0.0,0.0,0.0,0.0,0.0,0.0,0.0,0.0,0.0,0.0,0.0,3.8928,0.0,0.0,0.0,0.0,0.0,0.0,0.0,0.0,0.0,0.0,0.0,0.0,0.0,0.0,6.7837,7.2277,7.3064,7.3459,0.0,0.0,7.4122,7.5668,7.4985,7.3239,0.0,0.0,0.0,0.0,0.0,0.0,0.0,0.0,0.0,0.0,0.0,0.0,0.0,0.0,0.0,0.0,0.0,0.0,0.0,0.0,0.0,0.0,0.0,0.0,0.0,0.0,0.0,0.0,0.0,0.0,0.0,0.0,0.0,0.0,0.0,0.0,0.0,0.0,0.0,0.0,0.0,0.0,0.0,0.0,0.0,0.0,0.0,0.0,0.0,0.0,0.0,0.0,0.0,0.0,6.8449,7.6927,8.4684,9.0703,9.5,9.6797,9.6445,9.3828,8.8867,8.2498,0.0,0.0,0.0,0.0,0.0,0.0,0.0,0.0,0.0,0.0,0.0,0.0,0.0,0.0,0.0,0.0,0.0,0.0,0.0,0.0,0.0,0.0,0.0,0.0,0.0,0.0,0.0,0.0,0.0,0.0,0.0,0.0,0.0,0.0,0.0,0.0,0.0,0.0,0.0,0.0,0.0,7.058,7.4936,7.6248,7.7608,0.0,7.9011,7.8284,7.9182,7.7959,7.5508,7.1289,0.0,0.0,0.0,0.0,0.0,0.0,0.0,0.0,0.0,0.0,0.0,0.0,0.0,0.0,0.0,0.0,0.0,0.0,0.0,0.0,0.0,0.0,0.0,0.0,0.0,0.0,0.0,0.0,0.0,0.0,0.0,0.0,0.0,0.0,0.0,0.0,0.0,0.0,0.0,0.0,0.0,0.0,0.0,0.0,0.0,0.0,0.0,0.0,0.0,0.0,0.0,0.0,0.0,6.9347,7.7859,8.5036,9.082,9.5039,9.6836,9.6484,9.3984,8.9914,8.3843,0.0,0.0,0.0,0.0,0.0,0.0,0.0,0.0,0.0,0.0,0.0,0.0,0.0,0.0,0.0,0.0,0.0,0.0,0.0,0.0,0.0,0.0,0.0,0.0,0.0,0.0,0.0,0.0,4.9991,5.0855,5.0,0.0,0.0,0.0,0.0,0.0,0.0,0.0,0.0,0.0,0.0,7.2674,7.7518,7.9416,0.0,0.0,8.1248,8.0737,8.0542,7.9101,7.6719,7.293,6.8008,0.0,0.0,0.0,0.0,0.0,0.0,0.0,0.0,0.0,0.0,0.0,0.0,0.0,0.0,0.0,0.0,0.0,0.0,0.0,0.0,0.0,0.0,0.0,0.0,0.0,0.0,0.0,0.0,0.0,0.0,0.0,0.0,0.0,0.0,0.0,0.0,0.0,0.0,0.0,0.0,0.0,0.0,0.0,0.0,0.0,0.0,0.0,0.0,0.0,0.0,0.0,0.0,7.0331,7.8383,8.5467,9.1094,9.5117,9.6836,9.6601,9.4291,9.0911,8.5377,0.0,0.0,0.0,0.0,0.0,0.0,0.0,0.0,0.0,0.0,0.0,0.0,0.0,0.0,0.0,0.0,0.0,0.0,0.0,0.0,0.0,0.0,0.0,0.0,0.0,0.0,0.0,0.0,5.2355,5.2632,5.1527,0.0,0.0,0.0,0.0,0.0,0.0,0.0,0.0,0.0,0.0,7.4765,7.941,8.1573,8.2878,8.3398,8.2812,8.2109,8.1484,7.957,7.6992,7.3828,0.0,0.0,0.0,0.0,0.0,0.0,0.0,0.0,0.0,0.0,0.0,0.0,0.0,0.0,0.0,0.0,0.0,0.0,0.0,0.0,0.0,0.0,0.0,0.0,0.0,0.0,0.0,4.487,0.0,0.0,4.1081,0.0,0.0,0.0,0.0,0.0,0.0,0.0,0.0,0.0,0.0,0.0,0.0,0.0,0.0,0.0,0.0,0.0,0.0,0.0,0.0,0.0,0.0,7.1551,7.8476,8.6054,9.164,9.5117,9.6836,9.6869,9.519,9.1826,8.7095,8.0882,0.0,0.0,0.0,0.0,0.0,0.0,0.0,0.0,0.0,0.0,0.0,0.0,0.0,0.0,0.0,0.0,0.0,0.0,0.0,0.0,0.0,0.0,0.0,0.0,0.0,0.0,5.3725,5.3932,5.3266,0.0,0.0,0.0,0.0,0.0,0.0,0.0,0.0,0.0,6.495,7.1378,7.6973,8.0465,8.2454,8.414,8.5742,8.3906,8.2265,8.2187,7.9414,7.6328,0.0,0.0,0.0,0.0,0.0,0.0,0.0,0.0,0.0,0.0,0.0,0.0,0.0,0.0,0.0,0.0,0.0,0.0,0.0,0.0,0.0,0.0,0.0,0.0,0.0,0.0,0.0,5.0668,5.0044,0.0,0.0,0.0,0.0,0.0,0.0,0.0,0.0,0.0,0.0,0.0,6.1694,6.1427,0.0,0.0,0.0,0.0,0.0,0.0,0.0,0.0,0.0,0.0,0.0,0.0,7.2694,8.0078,8.664,9.1679,9.5117,9.6824,9.7154,9.5996,9.3185,8.7456,7.8553,0.0,0.0,0.0,0.0,0.0,0.0,0.0,0.0,0.0,0.0,0.0,0.0,0.0,0.0,0.0,0.0,0.0,0.0,0.0,0.0,0.0,0.0,0.0,0.0,0.0,5.4473,0.0,0.0,0.0,0.0,0.0,0.0,0.0,0.0,0.0,0.0,0.0,6.4151,6.839,7.3465,7.7759,8.0621,8.3001,8.4492,0.0,0.0,0.0,0.0,0.0,0.0,0.0,0.0,0.0,0.0,0.0,0.0,0.0,0.0,6.3242,5.8672,5.8515,5.914,5.914,0.0,0.0,0.0,0.0,0.0,0.0,0.0,0.0,0.0,0.0,0.0,0.0,0.0,0.0,5.8147,5.7519,5.6074,0.0,0.0,0.0,0.0,0.0,0.0,0.0,0.0,6.523,6.7496,6.9169,6.8896,6.8939,0.0,6.7733,6.4568,0.0,0.0,0.0,0.0,0.0,0.0,0.0,0.0,7.4297,8.1367,8.7383,9.1991,9.5109,9.6855,9.727,9.6334,9.2908,8.7118,7.8908,7.3315,6.8005,0.0,0.0,0.0,0.0,0.0,0.0,0.0,0.0,0.0,0.0,0.0,0.0,0.0,0.0,0.0,0.0,0.0,0.0,0.0,0.0,0.0,0.0,0.0,5.7534,0.0,0.0,0.0,0.0,0.0,0.0,0.0,0.0,0.0,5.9664,6.3383,6.7459,7.1099,7.533,7.8774,8.0723,0.0,0.0,0.0,0.0,0.0,0.0,0.0,7.7376,7.6517,7.4952,7.3626,7.3044,7.2459,7.2108,7.2147,0.0,0.0,6.5117,6.4687,6.5312,6.5273,6.5273,6.5547,6.6406,6.656,6.7101,0.0,0.0,0.0,0.0,0.0,0.0,0.0,0.0,6.6439,6.7103,0.0,6.4367,0.0,0.0,0.0,0.0,5.7222,6.1433,0.0,0.0,7.199,7.4492,7.6211,7.6992,7.6992,7.6211,7.5273,7.4336,7.3008,6.4336,0.0,0.0,0.0,0.0,0.0,0.0,7.6406,8.2422,8.8281,9.2567,9.5169,9.6836,9.7223,9.618,9.1217,8.6496,8.218,7.7733,7.3076,6.81,6.38,0.0,0.0,0.0,0.0,0.0,0.0,0.0,0.0,0.0,0.0,0.0,0.0,0.0,0.0,0.0,0.0,0.0,0.0,0.0,0.0,6.0817,0.0,0.0,0.0,0.0,0.0,0.0,0.0,0.0,0.0,0.0,6.3521,6.7,7.0479,7.3095,0.0,0.0,0.0,0.0,8.3633,8.3633,8.2187,8.1133,8.1094,7.9746,7.8962,7.9704,0.0,0.0,7.7399,7.7403,7.7481,7.7442,7.8184,7.7097,7.2264,7.1797,7.2148,7.2226,7.2226,7.2578,7.3398,7.3615,7.4122,7.7265,0.0,0.0,0.0,0.0,6.8632,7.039,7.1797,7.3515,7.3554,7.2304,7.0976,0.0,0.0,0.0,0.0,0.0,0.0,7.2225,7.5662,7.8437,8.0976,8.3203,8.2851,8.289,8.3203,8.1758,8.0898,8.0429,7.6055,7.1328,6.6523,0.0,0.0,0.0,0.0,7.9058,8.4927,8.9164,9.283,9.5914,9.6987,9.6989,9.5946,9.2627,8.9366,8.6219,8.1929,7.7563,7.3087,6.8854,0.0,0.0,0.0,0.0,0.0,0.0,0.0,0.0,0.0,0.0,0.0,0.0,0.0,0.0,0.0,0.0,0.0,0.0,0.0,6.2576,6.3281,6.2617,0.0,0.0,0.0,0.0,0.0,0.0,0.0,0.0,0.0,7.1021,7.1763,7.3143,0.0,0.0,8.0234,8.1719,8.289,8.3828,8.4414,8.3554,0.0,8.2867,8.2456,8.2202,8.2397,8.3038,8.3527,8.3545,8.3974,8.4364,8.4364,8.4559,8.4216,8.278,7.9699,7.792,7.8233,7.8428,7.8936,8.0264,8.0648,8.0939,8.8047,8.0117,7.6601,7.5078,7.5273,7.7109,7.8594,7.9805,8.1172,8.0976,7.9609,7.8086,7.5859,7.3203,7.168,0.0,0.0,0.0,7.8047,8.1133,8.3672,8.5859,8.7617,8.7885,8.8232,8.8661,8.7299,8.664,8.6601,8.4375,8.1015,7.6553,0.0,0.0,7.5078,7.8164,8.2219,8.7081,9.054,9.3562,9.621,9.6887,9.6741,9.5679,9.3451,9.1153,8.8864,8.4956,8.1196,7.7614,7.3432,6.9154,0.0,0.0,0.0,0.0,0.0,0.0,0.0,0.0,0.0,0.0,0.0,5.0859,5.375,0.0,0.0,0.0,6.2805,6.5113,6.6719,6.6836,0.0,0.0,0.0,0.0,0.0,0.0,0.0,6.657,7.0323,7.3603,7.5829,7.6857,7.7728,7.8594,8.0156,8.164,8.2656,0.0,8.4834,8.5341,8.5229,8.5107,8.511,8.5122,8.5301,8.5898,8.7437,8.8506,8.8572,8.8974,8.9286,8.9286,8.9286,8.9286,8.9286,8.6726,8.431,8.366,8.3777,8.448,8.5846,8.6347,8.6823,9.746,9.539,8.8242,8.4922,8.4492,8.5273,8.6562,8.8164,8.8867,8.875,8.7734,8.539,8.3281,8.1367,7.8906,0.0,7.9257,8.0858,8.3008,8.5586,8.8007,8.957,9.0468,9.2039,9.2787,9.2748,9.1999,9.1591,9.1483,8.9883,8.8703,8.7759,8.1475,7.8944,8.0273,8.2656,8.5576,8.8955,9.2163,9.4607,9.632,9.6832,9.6549,9.5456,9.3817,9.2072,9.0295,8.6979,8.4019,8.1417,7.739,7.36,7.0258,0.0,0.0,0.0,0.0,0.0,0.0,0.0,0.0,0.0,0.0,0.0,0.0,0.0,0.0,6.5703,6.8945,0.0,7.0898,7.0898,0.0,0.0,0.0,6.6133,6.6093,6.7655,6.9403,7.1229,0.0,0.0,7.8879,8.195,8.3398,8.1836,8.2929,8.3945,8.3984,8.5409,8.6386,8.6581,8.723,8.7665,8.7706,8.7848,8.8506,8.9884,9.1466,9.2284,9.2323,9.2362,9.244,9.2362,9.2479,9.244,9.2479,9.2129,9.152,8.8428,8.844,8.9192,9.005,9.0704,9.1364,10.3933,10.2761,10.0262,9.6207,9.1523,9.1679,9.2383,9.3359,9.3594,9.2812,9.1367,9.0742,8.8789,8.5859,8.3945,8.3901,8.5312,8.6366,8.8246,9.0705,9.1994,9.3048,9.3907,9.4324,9.4489,9.45,9.4315,9.4224,9.4142,9.3111,9.2478,9.2131,8.9306,8.675,8.4716,8.5849,8.8178,9.1583,9.3521,9.5537,9.7574,9.7673,9.6885,9.5241,9.4193,9.2498,9.0081,8.7968,8.5357,8.2194,7.9259,7.5898,7.1943,6.8111,0.0,0.0,0.0,0.0,0.0,0.0,0.0,0.0,0.0,5.8066,6.1514,0.0,6.6476,0.0,7.1048,7.2689,7.2689,7.2689,0.0,0.0,7.0187,7.046,7.0499,7.2577,7.496,7.7303,8.0037,8.242,8.4139,8.6164,8.7347,8.6918,8.6645,8.6723,8.7387,8.7787,8.8363,8.9008,8.9779,9.0277,9.03,9.1233,9.226,9.3372,9.3823,9.4037,9.4037,9.4037,9.4037,9.4037,9.4037,9.4037,9.4037,9.4037,9.3824,9.2988,9.2627,9.2664,9.3453,9.3788,9.3951,10.8215,10.7005,10.6519,10.3904,9.9978,9.8492,9.8149,9.8579,9.8579,9.7602,9.5884,9.4364,9.2447,9.0259,8.8892,8.8998,9.025,9.0716,9.1905,9.3621,9.4457,9.5108,9.5615,9.5953,9.6122,9.6117,9.6054,9.6057,9.609,9.5621,9.5222,9.4847,9.39,9.2237,9.0052,8.9368,9.0364,9.3002,9.5211,9.6893,9.7953,9.7909,9.6917,9.5129,9.3897,9.2242,8.9979,8.7902,8.544,8.2439,8.0277,7.7574,7.4164,7.0899,6.7402,0.0,0.0,0.0,0.0,0.0,0.0,0.0,0.0,0.0,0.0,0.0,7.0152,7.2612,7.4173,7.5149,7.554,7.5579,7.5188,7.4207,7.4519,7.5104,7.5885,7.7946,7.999,8.1755,8.4254,8.6247,8.7223,8.8763,8.9821,8.9797,8.974,8.9535,8.9359,8.9844,9.052,9.1014,9.2093,9.2808,9.2721,9.3649,9.4557,9.5023,9.5359,9.5558,9.5558,9.5519,9.5558,9.5558,9.5519,9.5558,9.5519,9.5519,9.5558,9.548,9.5266,9.5105,9.5243,9.5534,9.5727,11.111,10.9575,10.942,10.8879,10.7866,10.4922,10.3602,10.3417,10.33,10.2246,10.0295,9.7134,9.5261,9.4363,9.3504,9.3543,9.4237,9.429,9.4723,9.5463,9.6252,9.6624,9.6643,9.7323,9.7652,9.7673,9.7538,9.7575,9.7699,9.7706,9.7325,9.6659,9.6468,9.604,9.5201,9.2977,9.2659,9.4286,9.6988,9.836,9.8173,9.7978,9.6936,9.5055,9.3361,9.1591,8.9633,8.7248,8.4786,8.2285,8.0554,7.8545,7.6178,7.3164,7.0429,0.0,6.5818,0.0,0.0,0.0,0.0,0.0,0.0,0.0,0.0,7.0481,7.3904,7.7141,7.7492,7.7921,7.8779,7.8857,7.8857,7.8964,7.9042,7.9744,8.1353,8.3068,8.448,8.5366,8.7635,8.9236,8.9466,9.0732,9.1709,9.1777,9.2185,9.2093,9.108,9.1678,9.2469,9.2635,9.3983,9.479,9.4932,9.5422,9.5751,9.5868,9.6212,9.6676,9.656,9.6598,9.6637,9.6637,9.656,9.6598,9.6676,9.6637,9.6637,9.656,9.6512,9.6405,9.6087,9.6358,9.6824,11.2912,11.188,11.1159,11.0359,10.946,10.8777,10.7809,10.6721,10.6039,10.4365,10.2028,9.9964,9.8584,9.7744,9.691,9.6637,9.6758,9.7382,9.7693,9.773,9.8542,9.8924,9.8828,9.8957,9.8996,9.8996,9.8996,9.9032,9.9186,9.9168,9.9151,9.9016,9.8373,9.7903,9.758,0.0,0.0,0.0,9.8425,9.9288,9.9711,9.8981,9.7441,9.5055,9.3358,0.0,8.8017,8.6094,8.3939,8.1439,7.9669,0.0,0.0,0.0,0.0,0.0,0.0,0.0,0.0,0.0,0.0,0.0,7.1511,7.1311,6.9952,7.3531,7.6816,7.8843,7.97,8.044,8.1259,8.1337,8.1597,8.2299,8.2961,8.3819,8.4871,8.649,8.7897,8.8782,9.0569,9.2042,9.2666,9.3677,9.4212,9.412,9.424,9.4167,9.3817,9.3445,9.3522,9.4189,9.5027,9.5748,9.6383,9.6433,9.6366,9.6452,9.6467,9.6558,9.6525,9.6525,9.6525,9.6525,9.6525,9.6564,9.6564,9.6525,9.6641,9.6525,9.6564,9.6513,9.6482,9.656,9.6645,11.4421,11.3512,11.2685,11.2076,0.0,11.1109,11.0489,10.9758,10.8492,10.6794,10.4735,10.3002,10.1526,10.0283,9.9468,9.8846,9.8396,9.8775,9.8905,9.8841,9.9254,9.9433,9.9377,9.928,9.9319,9.9319,9.9259,9.9319,9.9433,9.9394,9.9615,10.0056,9.9642,9.9627,9.9929,9.9482,9.9034,9.8647,9.9338,9.9853,10.0134,9.9288,9.7596,9.5093,9.3397,0.0,0.0,0.0,0.0,0.0,0.0,0.0,0.0,7.6457,0.0,7.4846,7.4488,7.4292,7.4277,7.4316,7.4692,7.5491,7.6838,7.6806,7.4888,7.7175,7.9408,8.112,8.2014,8.287,8.3687,8.4154,8.4777,8.5633,8.61,8.6722,8.7673,8.9255,9.0468,9.1041,9.2588,9.3874,9.4251,9.4583,9.4846,9.4773,9.4679,9.4751,9.5062,9.4851,9.4868,9.5553,9.5894,9.6261,9.6648,9.6615,9.6492,9.6492,9.6463,9.6394,9.6394,9.6394,9.6509,9.6895,9.701,9.7087,9.755,9.7665,9.7627,9.7627,9.7627,9.7627,9.7658,9.7384,9.7148,11.5604,11.4723,11.3911,11.3528,11.349,11.2724,11.2302,11.2031,11.0492,0.0,0.0,10.5555,10.4005,10.2417,10.168,10.0838,10.0063,10.0122,10.0093,9.9908,10.0079,10.0093,10.0093,10.0066,10.0033,9.9999,9.9968,9.9965,10.0033,10.0033,10.0375,10.1091,10.1065,10.1418,10.204,10.2048,10.1341,10.0141,10.0485,10.067,10.0596,9.975,9.8019,9.5478,9.3823,9.136,8.7979,8.6247,8.4247,8.19,8.0939,8.0169,7.9438,7.946,7.949,7.949,7.9548,7.9632,7.9764,7.9787,7.9885,8.002,8.1456,8.1723,8.0182,8.0824,8.2047,8.3755,8.4531,8.5268,8.6144,8.6976,8.7869,8.8723,8.8917,8.9382,9.0259,9.1646,9.256,9.2754,9.4033,9.5057,9.5024,9.5068,9.5068,9.5006,9.5025,9.5027,9.5647,9.5802,9.5957,9.6396,9.646,9.6552,9.6519,9.6459,9.6394,9.6394,9.6361,9.6288,9.6288,9.6403,9.6788,9.7326,9.7596,9.798,9.8596,9.8673,9.8788,9.8788,9.8788,9.8788,9.875,9.8478,9.8091,11.6209,11.5399,11.4549,11.4085,11.4006,11.3851,11.3346,11.2495,11.1184,10.9195,10.6912,10.6679,10.5635,10.4017,10.3932,10.3366,10.2527,10.3184,10.3044,10.2285,10.3018,10.329,10.3252,10.3252,10.3252,10.3252,10.3175,10.3291,10.3328,10.3289,10.3403,10.355,10.3588,10.3632,10.3674,10.3599,10.3483,10.3252,10.2674,10.2328,10.2251,10.1404,9.9712,9.7248,9.5516,9.3054,8.9671,8.794,8.6209,8.4478,8.3555,8.3016,8.2901,8.2894,8.2894,8.2894,8.2956,8.3295,8.3957,8.4065,8.4412,8.5113,8.6069,8.5676,8.35,8.4016,8.5243,8.6907,8.7281,8.7642,8.852,8.941,9.0223,9.1036,9.181,9.2584,9.3242,9.3762,9.4031,9.407,9.5079,9.5765,9.5783,9.6159,9.6436,9.6488,9.6134,9.6236,9.6249,9.6397,9.6467,9.6519,9.6459,9.6429,9.6429,9.6358,9.6325,9.6325,9.6288,9.6326,9.6403,9.6865,9.7326,9.7557,9.8173,9.8673,9.8904,9.8788,9.8942,9.8981,9.8981,9.8942,9.9019,9.9403,9.9519,11.781,11.7352,11.6081,11.5461,11.5341,11.4455,11.3796,11.3368,11.277,11.1076,10.8801,10.8685,10.7489,10.5561,10.5484,10.4752,10.3482,10.3867,10.3791,10.3406,10.3791,10.3906,10.3905,10.3905,10.3905,10.3905,10.3905,10.3944,10.3945,10.3945,10.4215,10.4677,10.5602,10.6256,10.664,10.6638,10.6597,10.6561,10.4484,10.3329,10.3288,10.2443,10.1019,9.8981,9.7673,9.5441,9.2095,9.0787,8.9363,8.7671,8.6824,8.617,8.5709,8.6094,8.617,8.5709,8.6126,8.655,8.6935,8.7401,8.8051,8.8854,8.9701,8.9744,8.8666,8.8128,8.8248,8.9059,8.987,9.0604,9.1029,9.184,9.2496,9.2844,9.3269,9.3655,9.4072,9.4626,9.4955,9.4994,9.5763,9.632,9.6267,9.656,9.6696,9.6676,9.6552,9.6463,9.6397,9.6394,9.6429,9.6432,9.6397,9.6361,9.6361,9.6325,9.6288,9.6288,9.6288,9.648,9.6826,9.7326,9.7865,9.8711,9.925,9.9673,9.9981,10.0173,10.0173,10.0173,10.0135,10.0173,10.025,10.0827,10.125,11.9562,11.9215,11.7715,11.71,11.6946,11.5484,11.4753,11.4561,11.4368,11.306,11.1175,11.0675,10.9175,10.7098,10.6982,10.6251,10.5136,10.502,10.5059,10.502,10.502,10.502,10.502,10.502,10.502,10.502,10.502,10.502,10.502,10.502,10.5328,10.602,10.729,10.829,10.8867,10.8906,10.8867,10.8716,10.6328,10.4826,10.4439,10.3635,10.2366,10.075,9.9788,9.7942,9.5018,9.4057,9.2826,9.1171,9.0441,8.971,8.894,8.944,8.9517,8.8979,8.944,8.9825,8.9863,9.037,9.1024,9.1668,9.2399,9.2787,9.2674,9.1891,9.1181,9.1181,9.2107,9.2878,9.2955,9.3649,9.4227,9.4227,9.442,9.4574,9.4613,9.5181,9.5631,9.5709,9.6267,9.6615,9.6583,9.659,9.6525,9.6459,9.6394,9.6361,9.6288,9.6288,9.6288,9.6288,9.6288,9.6288,9.6288,9.6288,9.6288,9.6288,9.648,9.6826,9.7365,9.7711,9.8481,9.9712,10.0212,10.0519,10.1135,10.125,10.1173,10.1135,10.1096,10.1173,10.1173,10.1866,10.2481,12.0908,12.01,11.9254,11.8869,11.8677,11.7792,11.6946,11.6176,11.5522,11.4638,11.3483,11.206,11.0444,10.8829,10.8713,10.8559,10.8329,10.8406,10.8367,10.829,10.8444,10.8444,10.8252,10.8329,10.8444,10.8329,10.8252,10.8136,10.8136,10.8252,10.8406,10.8559,10.8713,10.8829,10.8944,10.8944,10.8944,10.8906,10.8598,10.7713,10.6251,10.5287,10.4054,10.2438,10.1557,10.0212,9.8365,9.748,9.6249,9.4711,9.4441,9.398,9.3172,9.3172,9.3172,9.3018,9.3133,9.3249,9.321,9.3328,9.333,9.3441,9.3557,9.3636,9.3676,9.4172,9.4208,9.3631,9.3515,9.3669,9.3669,9.4439,9.4901,9.4975,9.5516,9.6094,9.6017,9.6204,9.6313,9.6313,9.642,9.6492,9.6492,9.6425,9.6394,9.6361,9.6325,9.6325,9.6288,9.6288,9.6288,9.6288,9.6288,9.6288,9.6288,9.6288,9.6326,9.6403,9.6942,9.7403,9.7865,9.8827,9.9981,10.0135,10.0673,10.1135,10.1212,10.1289,10.1289,10.1289,10.1289,10.1289,10.1404,10.2058,10.2597,12.2601,12.1793,12.0946,11.9985,11.91,11.8715,11.8061,11.7253,11.6946,11.6022,11.4753,11.4022,11.2791,11.1175,11.1137,11.0637,10.9713,10.9675,10.9367,10.8944,10.8906,10.8906,10.8906,10.8906,10.8906,10.8906,10.8906,10.8906,10.8906,10.8906,10.9136,10.9598,10.9675,10.9906,11.0406,11.0444,11.0444,11.0406,10.9944,10.9329,10.8594,10.7328,10.6097,10.4903,10.398,10.2749,10.1212,10.0712,9.9712,9.8173,9.8019,9.7173,9.5326,9.5249,9.4749,9.3826,9.3672,9.3941,9.4441,9.4443,9.4712,9.5211,9.5249,9.5249,9.5251,9.5595,9.5595,9.5326,9.5211,9.5211,9.5249,9.5557,9.5788,9.5826,9.6095,9.6288,9.6288,9.6325,9.6361,9.6361,9.6397,9.6397,9.6358,9.6322,9.6325,9.6288,9.6288,9.6288,9.6288,9.6288,9.6288,9.6288,9.6288,9.6288,9.6288,9.6288,9.648,9.6903,9.725,9.7634,9.8827,9.9442,10.0212,10.0635,10.0981,10.1212,10.1289,10.1289,10.1289,10.1289,10.1289,10.1289,10.1289,10.2404,10.3174,12.4332,12.3485,12.2408,12.11,11.9792,11.9523,11.9061,11.8484,11.8254,11.7446,11.6407,11.633,11.5676,11.4445,11.3522,11.2368,11.1329,11.1214,11.0906,11.0329,11.0291,11.0329,11.0291,11.0021,10.9944,10.9906,10.9752,10.9637,10.9598,10.9598,10.9944,11.0483,11.056,11.0868,11.1445,11.1522,11.1522,11.1445,11.0868,11.056,11.0325,10.9136,10.7982,10.7098,10.6249,10.5133,10.3712,10.3405,10.252,10.0866,10.0558,9.9481,9.7519,9.7134,9.6403,9.5288,9.5095,9.5365,9.598,9.6057,9.6326,9.6865,9.698,9.698,9.698,9.698,9.698,9.698,9.6788,9.6557,9.6326,9.6288,9.6288,9.6288,9.6288,9.6365,9.6596,9.6634,9.6749,9.6903,9.6865,9.6519,9.6365,9.6288,9.6288,9.6288,9.6288,9.6288,9.6288,9.6288,9.6288,9.6288,9.6288,9.6288,9.6288,9.6288,9.6634,9.698,9.725,9.7904,9.9211,9.9442,9.975,9.9904,10.0558,10.0943,10.0866,10.0943,10.1327,10.1327,10.1327,10.1481,10.175,10.2943,10.3789,12.6101,12.5063,12.3524,12.2254,12.1447,12.06,12.0216,11.9985,11.9369,11.8946,11.8754,11.8792,11.8831,11.8331,11.5484,11.3945,11.3791,11.3753,11.3637,11.3483,11.3522,11.3714,11.3714,11.2945,11.2483,11.2252,11.1675,11.1368,11.1368,11.1406,11.1406,11.1483,11.1522,11.1483,11.156,11.1598,11.1522,11.1483,11.1406,11.1406,11.1329,11.0479,10.9594,10.8829,10.7979,10.7095,10.6251,10.5405,10.4212,10.2558,10.1827,10.0866,9.9904,9.9058,9.8481,9.8404,9.8441,9.8441,9.8442,9.8404,9.8442,9.8595,9.848,9.8596,9.8442,9.8442,9.8442,9.8596,9.7827,9.7173,9.6596,9.6519,9.6403,9.6403,9.6403,9.6749,9.7365,9.7442,9.7865,9.825,9.7788,9.7134,9.6442,9.6288,9.6288,9.6288,9.6288,9.6288,9.6288,9.6288,9.6288,9.6288,9.6288,9.6288,9.6288,9.6288,9.6326,9.6711,9.7288,9.7634,9.7865,9.8211,9.8711,9.9211,9.9904,10.0289,10.0327,10.0635,10.1212,10.1404,10.1481,10.1673,10.2443,10.3251,10.402,12.664,12.5255,12.3601,12.2716,12.237,12.1485,12.0831,12.0292,12.0023,11.9562,11.9177,11.91,11.91,11.9023,11.783,11.6638,11.5638,11.5599,11.5022,11.4099,11.3984,11.3984,11.3945,11.3676,11.356,11.3483,11.3253,11.3099,11.3099,11.3099,11.3099,11.3099,11.3099,11.2868,11.2368,11.2291,11.206,11.156,11.1522,11.1522,11.1522,11.1214,11.0868,11.0521,10.921,10.8325,10.8021,10.7213,10.6213,10.5059,10.4174,10.2866,10.0981,9.9558,9.8788,9.8788,9.8788,9.8788,9.8788,9.8789,9.8789,9.8788,9.8788,9.8904,9.8789,9.8788,9.8788,9.875,9.8596,9.8173,9.7904,9.7403,9.7096,9.7134,9.7557,9.7942,9.825,9.8327,9.8481,9.8596,9.8057,9.7365,9.7134,9.6634,9.6326,9.6288,9.6288,9.6365,9.6326,9.6288,9.6403,9.6326,9.6288,9.6288,9.6288,9.6288,9.6403,9.6942,9.7442,9.7904,9.8211,9.8404,9.8865,9.9404,9.9865,10.0366,10.0673,10.1058,10.1519,10.2057,10.2096,10.2442,10.3289,10.3901,10.4477,12.7101,12.5717,12.4293,12.3524,12.3216,12.2678,12.2062,12.1523,12.1254,12.0831,12.0369,12.0023,11.9908,11.9908,11.9869,11.9138,11.7792,11.7446,11.6715,11.5715,11.5638,11.5522,11.5215,11.4945,11.4676,11.4407,11.4099,11.3984,11.3984,11.3984,11.3984,11.3984,11.3984,11.3714,11.3214,11.3099,11.2829,11.2329,11.206,11.1906,11.1868,11.1637,11.1522,11.1368,11.0325,10.9594,10.9367,10.879,10.7944,10.6905,10.5982,10.4482,10.2289,10.1058,10.0442,10.0442,10.0442,10.0481,10.0442,10.0442,10.048,10.0442,10.0442,10.0366,10.0096,10.0019,9.9904,9.9673,9.9327,9.9211,9.9096,9.8673,9.825,9.8057,9.8442,9.8904,9.9173,9.9211,9.9211,9.9173,9.8827,9.8327,9.7904,9.7442,9.7211,9.7096,9.7096,9.7096,9.7096,9.7096,9.7134,9.7096,9.7211,9.725,9.7326,9.7442,9.7096,9.7442,9.7827,9.8288,9.8481,9.8673,9.8981,9.9558,10.0135,10.0673,10.1173,10.1519,10.2096,10.2788,10.2937,10.3126,10.3818,10.4471,10.4966,12.7486,12.6678,12.5755,12.4909,12.4255,12.3985,12.3985,12.3678,12.3101,12.2716,12.2485,12.1947,12.16,12.16,12.16,12.11,12.0331,11.9677,11.9061,11.8638,11.8677,11.8292,11.76,11.683,11.6176,11.5561,11.4599,11.4253,11.4484,11.4561,11.4484,11.4214,11.4368,11.433,11.4022,11.4022,11.3945,11.3681,11.3022,11.2714,11.2642,11.1983,11.1637,11.1598,11.1406,11.0902,11.0209,11.0137,10.929,10.7905,10.6905,10.5636,10.4097,10.3558,10.3674,10.3443,10.3675,10.3752,10.3635,10.352,10.3328,10.3329,10.3637,10.3058,10.2404,10.2327,10.2058,10.1404,10.075,10.0289,10.0327,10.0289,9.9827,9.8981,9.9019,9.9404,9.9904,10.0096,10.0096,10.0058,9.9904,9.9673,9.9058,9.8557,9.8442,9.8442,9.8481,9.8442,9.8404,9.8365,9.8634,9.8634,9.8365,9.8173,9.8481,9.8711,9.825,9.798,9.8327,9.8711,9.8673,9.8788,9.8981,9.9519,10.0519,10.1134,10.1746,10.2207,10.2819,10.3395,10.3541,10.3881,10.4533,10.5186,10.5486,12.9217,12.8256,12.6871,12.614,12.5717,12.4639,12.4101,12.4101,12.3832,12.3755,12.3678,12.3447,12.3332,12.3332,12.3332,12.3178,12.2908,12.2601,12.1331,11.9523,11.9177,11.9061,11.8754,11.8446,11.8177,11.7907,11.7638,11.7484,11.7407,11.7446,11.7253,11.6715,11.6599,11.5984,11.4984,11.4868,11.4638,11.4022,11.3714,11.3599,11.3527,11.2757,11.2329,11.2252,11.1791,11.1368,11.1098,11.0521,10.9944,10.9325,10.8059,10.6521,10.502,10.4212,10.3905,10.3866,10.3866,10.3906,10.3905,10.3903,10.3941,10.3905,10.3905,10.3828,10.3557,10.352,10.3366,10.3097,10.2828,10.2712,10.2712,10.2712,10.1789,9.9904,10.0173,10.0596,10.0904,10.0981,10.0904,10.0827,10.0442,9.9981,9.9673,9.9365,9.9096,9.9058,9.9019,9.9019,9.8942,9.9173,9.8788,9.8788,9.8788,9.9212,9.9558,9.9941,9.9826,9.9365,9.9404,9.9327,9.9173,9.9365,9.9442,9.9981,10.0941,10.1708,10.2317,10.2888,10.3498,10.4073,10.4336,10.4873,10.5486,10.5901,10.62,13.0641,12.9948,12.8332,12.764,12.7525,12.6409,12.5986,12.5947,12.564,12.5524,12.5486,12.5178,12.5063,12.5063,12.5063,12.5063,12.5024,12.4755,12.3447,12.16,12.1023,12.0831,12.0408,11.9792,11.9331,11.9138,11.91,11.91,11.91,11.91,11.8792,11.8331,11.8254,11.76,11.633,11.6215,11.5792,11.5022,11.4638,11.4445,11.4258,11.3291,11.2676,11.256,11.1906,11.156,11.1483,11.0944,11.056,10.9979,10.8636,10.7059,10.5674,10.5136,10.4828,10.4828,10.4828,10.4866,10.4828,10.4903,10.4826,10.4828,10.4828,10.4674,10.448,10.4326,10.4251,10.3943,10.3789,10.3905,10.3866,10.3866,10.3097,10.175,10.1981,10.2251,10.2251,10.2251,10.2289,10.2212,10.1904,10.1558,10.1327,10.1135,10.0712,10.0673,10.0673,10.0712,10.0712,10.075,10.0557,10.0518,10.0901,10.1052,10.0824,10.1054,10.14,10.1016,10.0593,10.0326,10.0057,10.0476,10.0745,10.1472,10.2355,10.285,10.3459,10.3678,10.4132,10.463,10.5204,10.5618,10.6069,10.6442,10.6777,13.1795,13.1564,13.0025,12.9256,12.9217,12.8948,12.8794,12.8871,12.8217,12.7794,12.7678,12.7101,12.6832,12.6832,12.6832,12.6832,12.6717,12.6178,12.5794,12.5255,12.4678,12.3909,12.2639,12.1408,12.0562,11.9908,11.9677,11.9523,11.9754,11.96,11.9215,11.9177,11.91,11.8715,11.7869,11.7792,11.7215,11.6446,11.5715,11.5368,11.5291,11.3824,11.3022,11.2988,11.2291,11.1868,11.1868,11.1829,11.1252,11.0171,10.879,10.7675,10.679,10.6559,10.6559,10.6521,10.6521,10.6559,10.6559,10.6559,10.6559,10.6559,10.6521,10.6213,10.5672,10.5674,10.5443,10.4828,10.4674,10.452,10.4559,10.4597,10.4443,10.4212,10.3866,10.3674,10.3828,10.3751,10.3597,10.3674,10.3828,10.3828,10.352,10.3443,10.3403,10.3403,10.3326,10.3172,10.3132,10.286,10.3395,10.32,10.262,10.2466,10.2044,10.2082,10.239,10.2198,10.1856,10.1549,10.1283,10.166,10.1925,10.2687,10.3416,10.3991,10.433,10.4431,10.4921,10.5648,10.606,10.6269,10.6679,10.7126,10.7546,13.3218,13.2526,13.1487,13.0679,13.0102,12.9525,12.9217,12.9179,12.8986,12.8909,12.8794,12.864,12.8563,12.8563,12.8563,12.8525,12.8448,12.8256,12.8217,12.8179,12.8025,12.6217,12.4216,12.337,12.2908,12.2601,12.1947,12.1908,12.1831,12.1139,12.06,11.9985,11.9985,11.9562,11.8831,11.8177,11.7715,11.7375,11.6599,11.6215,11.6022,11.5215,11.4676,11.4527,11.3714,11.3291,11.3334,11.333,11.2291,11.0406,10.9867,10.9136,10.8252,10.8136,10.8098,10.8098,10.8136,10.8213,10.8175,10.8175,10.8213,10.8252,10.8059,10.8175,10.7941,10.7905,10.7752,10.7598,10.7598,10.7482,10.7521,10.7444,10.7444,10.7251,10.5559,10.4174,10.4135,10.3905,10.3905,10.3905,10.402,10.4097,10.4095,10.3977,10.3898,10.3898,10.3856,10.3771,10.3967,10.3925,10.3996,10.3689,10.3262,10.3339,10.3339,10.3339,10.3339,10.3262,10.3071,10.295,10.2764,10.2917,10.3027,10.3289,10.401,10.4584,10.4759,10.4855,10.5658,10.6384,10.6591,10.6719,10.7507,10.8117,10.8407,13.4487,13.3949,13.3141,13.2295,13.1564,13.0987,13.0602,13.0294,13.0256,13.0256,13.0256,13.0256,13.0256,13.0256,13.0256,13.0256,13.0217,12.991,12.9717,12.9602,12.8871,12.7255,12.5524,12.4909,12.4486,12.4101,12.3639,12.3216,12.2831,12.237,12.1716,12.0985,12.0831,12.0408,11.9638,11.9138,11.8638,11.8337,11.7837,11.7446,11.6984,11.6215,11.5599,11.5215,11.4484,11.3984,11.3989,11.3984,11.2983,11.1252,11.0675,11.0175,10.9021,10.8906,10.8906,10.8906,10.8906,10.8867,10.8906,10.8863,10.8863,10.8906,10.8906,10.8906,10.8787,10.8906,10.8906,10.879,10.8906,10.8906,10.8906,10.8906,10.8906,10.8521,10.7136,10.602,10.5982,10.6136,10.602,10.5944,10.5672,10.54,10.5361,10.497,10.4735,10.4692,10.4764,10.4764,10.4681,10.4521,10.4515,10.4515,10.4431,10.4576,10.4653,10.4653,10.4606,10.45,10.4415,10.43,10.407,10.4078,10.4117,10.4215,10.4712,10.5132,10.5303,10.5548,10.6032,10.6605,10.6845,10.744,10.8186,10.8627,10.899,13.5565,13.5449,13.4718,13.3949,13.3141,13.2987,13.2333,13.1872,13.1564,13.1564,13.1525,13.1641,13.1448,13.1679,13.1372,13.1602,13.1564,13.0871,13.0679,13.0102,12.914,12.7678,12.6986,12.5909,12.5255,12.4678,12.437,12.3909,12.3485,12.3178,12.2639,12.2139,12.1947,12.1408,12.0831,12.0485,11.9992,11.9299,11.8953,11.8484,11.7991,11.7253,11.6759,11.6176,11.5561,11.5138,11.4945,11.4632,11.3824,11.2175,11.1906,11.1137,10.979,10.956,10.9598,10.979,10.9983,10.9867,10.9598,10.9944,10.9671,10.9825,10.979,10.9444,10.9867,11.0021,10.9944,10.979,10.9329,10.956,10.9406,10.929,10.9406,10.9406,10.9098,10.9136,10.9136,10.9021,10.8906,10.8825,10.8009,10.7697,10.7384,10.6918,10.6292,10.6285,10.62,10.6154,10.6154,10.6107,10.6146,10.6146,10.605,10.5953,10.5942,10.5942,10.5942,10.5904,10.5904,10.5701,10.5254,10.514,10.5178,10.5369,10.5587,10.5803,10.6019,10.6349,10.6678,10.712,10.7691,10.8284,10.8876,10.8992,10.9258,13.6142,13.5488,13.5334,13.4795,13.3987,13.3295,13.2872,13.2603,13.1949,13.1679,13.1679,13.1679,13.1679,13.1679,13.1679,13.1679,13.1679,13.1448,13.141,13.1218,12.9717,12.8948,12.8332,12.7178,12.6371,12.5909,12.537,12.5024,12.4716,12.4101,12.3755,12.3524,12.3255,12.3139,12.2331,12.1639,12.0908,12.01,11.9523,11.9215,11.9023,11.8684,11.8337,11.8023,11.7875,11.7952,11.783,11.733,11.6484,11.5407,11.4253,11.3368,11.2714,11.2599,11.2522,11.2522,11.2676,11.2753,11.2829,11.2599,11.2829,11.256,11.2445,11.2906,11.2906,11.2676,11.2406,11.2099,11.1868,11.1483,11.1021,11.0944,11.0944,11.0902,11.082,11.0776,11.0584,10.9623,10.8964,10.8683,10.8485,10.8293,10.8293,10.8001,10.7762,10.7877,10.7743,10.7695,10.7618,10.7454,10.734,10.7099,10.7088,10.6872,10.682,10.6782,10.6782,10.6782,10.6806,10.6792,10.6349,10.6006,10.593,10.6082,10.6297,10.6511,10.6701,10.7142,10.7469,10.8039,10.844,10.886,10.9162,10.931,10.9477,13.6526,13.6065,13.568,13.5026,13.4218,13.3372,13.2756,13.2372,13.191,13.1679,13.1679,13.1679,13.1679,13.1679,13.1679,13.1679,13.1679,13.1679,13.1448,13.1025,13.0102,12.9602,12.914,12.8294,12.7563,12.6794,12.6255,12.587,12.537,12.4986,12.4486,12.4139,12.4139,12.3832,12.3524,12.2985,12.2639,12.21,12.1293,12.0716,12.0369,11.9869,11.9369,11.9215,11.91,11.91,11.8946,11.8638,11.8177,11.76,11.6792,11.5522,11.4253,11.4022,11.4022,11.3984,11.3984,11.3984,11.3945,11.3984,11.3907,11.406,11.3984,11.3984,11.3984,11.3984,11.383,11.3445,11.3253,11.3099,11.2753,11.2588,11.2588,11.2588,11.246,11.2368,11.2052,11.0825,10.9835,10.9628,10.9351,10.9112,10.895,10.8891,10.8421,10.8192,10.8016,10.7915,10.7839,10.7711,10.7697,10.7607,10.7721,10.7668,10.7668,10.7539,10.7463,10.7425,10.7387,10.7333,10.7088,10.6876,10.6648,10.6822,10.7012,10.7088,10.7354,10.7794,10.8081,10.8269,10.8568,10.9114,10.9394,10.9408,10.9648,13.6526,13.6372,13.5603,13.4911,13.4218,13.3372,13.2603,13.2025,13.1756,13.1679,13.1679,13.1679,13.1679,13.1679,13.1679,13.1679,13.1679,13.1679,13.141,13.091,13.0564,13.0064,12.9525,12.9063,12.8409,12.714,12.7178,12.6755,12.614,12.5717,12.5524,12.4668,12.4514,12.4465,12.4322,12.4245,12.3927,12.3553,12.2985,12.2515,12.1929,12.1323,12.0707,12.0343,11.9977,11.9977,11.9814,11.9507,11.9208,11.9246,11.9177,11.7561,11.5715,11.4791,11.4791,11.4907,11.5215,11.533,11.5445,11.5138,11.5061,11.4638,11.4638,11.4561,11.4561,11.4561,11.4445,11.4214,11.4016,11.3786,11.3939,11.3619,11.3612,11.3642,11.3587,11.3518,11.32,11.2177,11.1526,11.1296,11.093,11.0613,11.0066,10.9697,10.9086,10.8488,10.8384,10.8331,10.8278,10.8278,10.8453,10.8513,10.8665,10.863,10.863,10.8404,10.829,10.8176,10.808,10.7986,10.791,10.789,10.7796,10.7606,10.772,10.7796,10.7948,10.8362,10.8584,10.8552,10.8817,10.9284,10.9409,10.9459,10.9885,13.5334,13.468,13.4564,13.4411,13.418,13.3372,13.2833,13.2679,13.1949,13.1679,13.1679,13.1679,13.1679,13.1679,13.1679,13.1679,13.1679,13.1679,13.1602,13.1295,13.091,13.041,13.0256,12.9756,12.9179,12.8909,12.8756,12.8294,12.7602,12.7448,12.6849,12.6184,12.603,12.5749,12.5185,12.4826,12.4738,12.4328,12.385,12.3494,12.3267,12.2994,12.2725,12.2384,12.1908,12.1726,12.1436,12.0612,11.993,11.9882,11.94,11.8908,11.8407,11.8254,11.8138,11.7792,11.7753,11.76,11.7677,11.7984,11.7753,11.7407,11.7023,11.6638,11.6292,11.6061,11.5869,11.5247,11.4625,11.4042,11.385,11.421,11.3817,11.373,11.3786,11.3648,11.3444,11.3164,11.2844,11.2806,11.2525,11.2143,11.1351,11.084,11.052,11.0123,10.9992,10.9938,10.9883,10.9807,10.9751,10.9771,10.9847,10.9733,10.9558,10.9326,10.919,10.9038,10.8925,10.8826,10.8779,10.8981,10.893,10.847,10.8341,10.8432,10.8652,10.8906,10.9132,10.9145,10.9308,10.9508,10.9792,11.0073,11.0313,13.5257,13.4834,13.4026,13.3603,13.3487,13.2679,13.2333,13.2256,13.1872,13.1679,13.1679,13.1679,13.1679,13.1679,13.1679,13.1679,13.1679,13.1679,13.1679,13.1564,13.1333,13.1141,13.1102,13.0602,13.0513,13.0385,13.0347,12.9655,12.8578,12.8463,12.8092,12.7757,12.7603,12.732,12.6883,12.6538,12.6077,12.5517,12.4878,12.4379,12.4337,12.4047,12.3752,12.3594,12.3364,12.3111,12.2947,12.2521,12.1975,12.1962,12.1705,12.1524,12.1409,12.1304,12.0775,11.9554,11.9215,11.9177,11.9138,11.91,11.8792,11.8561,11.8484,11.8292,11.7991,11.7753,11.7477,11.7077,11.6752,11.6282,11.6435,11.602,11.5893,11.5498,11.5281,11.4947,11.4626,11.4497,11.435,11.4197,11.3396,11.2808,11.2448,11.2088,11.1994,11.1786,11.1501,11.133,11.1235,11.0949,11.0625,11.049,11.0355,11.0083,10.9999,10.9937,10.985,10.9749,10.961,10.9545,10.9432,10.9443,10.9179,10.878,10.8817,10.9081,10.8968,10.9119,10.9432,10.9641,10.9697,10.9825,11.032,11.0668,11.0935,13.5411,13.5141,13.3834,13.3256,13.3141,13.2526,13.2256,13.2218,13.2295,13.2179,13.1949,13.1949,13.1872,13.1718,13.1679,13.1679,13.1679,13.1679,13.1679,13.1679,13.1641,13.1679,13.1628,13.1667,13.1423,13.1149,13.1226,13.0689,12.946,12.9191,12.9023,12.857,12.8592,12.8668,12.8306,12.7676,12.7693,12.7234,12.6467,12.5663,12.5241,12.4782,12.4251,12.4044,12.3968,12.3872,12.3808,12.3469,12.3409,12.3402,12.347,12.3547,12.3662,12.3804,12.2638,12.0545,11.9977,11.9831,11.9677,11.9669,11.9708,11.9323,11.9285,11.9177,11.8908,11.8669,11.8768,11.8825,11.8535,11.8243,11.8013,11.8294,11.7883,11.7447,11.7072,11.6886,11.624,11.5955,11.5898,11.5307,11.4203,11.3575,11.3251,11.2909,11.2699,11.2067,11.178,11.1697,11.1622,11.1348,11.1097,11.0921,11.0669,11.0341,11.024,11.0289,11.03,11.0375,11.0244,11.0073,10.9922,10.9772,10.9546,10.9441,10.9592,10.9742,10.9509,10.9462,10.9862,11.01,10.9998,11.0264,11.0938,11.1241,11.1467,13.5065,13.4449,13.4257,13.4141,13.4103,13.3949,13.3949,13.391,13.3834,13.3526,13.2833,13.2795,13.2449,13.2025,13.1872,13.1795,13.1795,13.191,13.1987,13.2025,13.1987,13.1884,13.1678,13.151,13.1725,13.1693,13.1522,13.0756,13.0219,13.0027,12.9435,12.8901,12.8806,12.8519,12.8729,12.8403,12.8211,12.8173,12.7926,12.7429,12.6855,12.6587,12.6147,12.5592,12.5019,12.4675,12.4656,12.437,12.393,12.383,12.3801,12.3777,12.37,12.37,12.3623,12.3113,12.2725,12.21,12.1438,12.1198,12.0871,12.0448,12.0141,11.9459,11.9344,11.9171,11.9099,11.86,11.8613,11.8662,11.8739,11.848,11.8218,11.8069,11.7898,11.7746,11.7364,11.681,11.6789,11.6532,11.5545,11.4709,11.4155,11.3738,11.3358,11.2645,11.2118,11.2169,11.2105,11.1863,11.1355,11.1101,11.0959,11.0733,11.0449,11.0524,11.0637,11.0788,11.0651,11.055,11.04,11.0218,11.0376,11.0342,11.038,11.0339,11.011,11.0152,11.0457,11.0534,11.0571,11.1057,11.1655,11.1843,11.1879,13.5559,13.4949,13.4487,13.4334,13.4334,13.4334,13.4334,13.4334,13.4295,13.4103,13.3795,13.3757,13.3487,13.3141,13.318,13.3218,13.318,13.3103,13.309,13.2961,13.2869,13.2893,13.2861,13.2767,13.2711,13.2482,13.2539,13.2519,13.1754,13.0969,13.0261,12.9876,12.98,12.9795,12.9368,12.9101,12.8849,12.8596,12.8215,12.7819,12.7558,12.7465,12.7291,12.6918,12.6603,12.645,12.6238,12.5936,12.5554,12.544,12.5229,12.4884,12.494,12.4919,12.4858,12.4245,12.4136,12.3624,12.2933,12.2729,12.2345,12.223,12.1962,12.1782,12.1002,12.0567,12.0308,12.0031,11.9834,11.978,11.9725,11.9614,11.9214,11.8948,11.8755,11.818,11.7946,11.768,11.733,11.7105,11.68,11.5967,11.5134,11.4502,11.4124,11.3681,11.3288,11.326,11.3081,11.2751,11.2059,11.1252,11.1146,11.1001,11.0856,11.0713,11.0785,11.0897,11.0826,11.0682,11.0719,11.0683,11.0872,11.0946,11.0946,11.0871,11.0759,11.0759,11.0909,11.1058,11.132,11.1692,11.2103,11.2248,11.2278,13.6046,13.5651,13.5036,13.4806,13.4806,13.4806,13.4844,13.4897,13.4935,13.4782,13.4564,13.4411,13.4257,13.4205,13.4089,13.396,13.4114,13.4191,13.4099,13.3952,13.3897,13.3764,13.3631,13.3651,13.3535,13.357,13.3264,13.3165,13.2776,13.2225,13.1499,13.1033,13.0613,13.0552,13.035,12.9906,12.9499,12.9359,12.8902,12.8483,12.8204,12.8124,12.7937,12.7874,12.7937,12.7986,12.7948,12.749,12.7231,12.71,12.668,12.6433,12.6491,12.6511,12.6377,12.5956,12.5876,12.5548,12.4667,12.4054,12.3801,12.3647,12.3609,12.2943,12.2567,12.2533,12.2268,12.1501,12.1389,12.1371,12.1314,12.1121,12.0622,12.0143,11.9741,11.8911,11.8331,11.8382,11.8217,11.7983,11.7632,11.7186,11.6288,11.5397,11.487,11.4598,11.4417,11.438,11.3866,11.3346,11.276,11.1837,11.1875,11.1875,11.1691,11.1468,11.132,11.1096,11.1096,11.1208,11.1394,11.1394,11.1505,11.1503,11.1503,11.1614,11.1614,11.143,11.1319,11.1577,11.1872,11.2096,11.239,11.2566,11.2665,13.6277,13.6258,13.6181,13.6104,13.6104,13.6181,13.6238,13.6157,13.6311,13.5959,13.532,13.4757,13.4421,13.4253,13.4314,13.4221,13.3956,13.3823,13.4015,13.4015,13.3861,13.3976,13.3995,13.3935,13.3761,13.3601,13.3693,13.3592,13.3199,13.316,13.2435,13.1762,13.1342,13.0783,13.0501,13.0436,13.0142,13.0066,12.9733,12.9408,12.9067,12.883,12.8564,12.8065,12.7882,12.783,12.7848,12.7848,12.7874,12.8024,12.7681,12.759,12.7536,12.7634,12.7503,12.7426,12.7388,12.7006,12.6338,12.4999,12.383,12.3562,12.3528,12.3624,12.3281,12.3204,12.2993,12.2668,12.238,12.2473,12.2527,12.2519,12.1734,12.1229,12.071,12.0253,11.9743,11.9459,11.9354,11.8961,11.8558,11.804,11.7446,11.6513,11.5573,11.5194,11.4897,11.475,11.4006,11.3448,11.3262,11.2814,11.2776,11.2776,11.2814,11.2552,11.214,11.1989,11.2026,11.2136,11.236,11.2319,11.1865,11.2014,11.1972,11.2195,11.238,11.2158,11.2046,11.2269,11.2455,11.2375,11.2709,11.2992,11.3123,13.6477,13.6057,13.6057,13.6139,13.6315,13.6315,13.6373,13.6411,13.643,13.6276,13.5948,13.568,13.547,13.5432,13.5414,13.5376,13.5357,13.5357,13.5261,13.5241,13.5182,13.516,13.5039,13.4901,13.4953,13.4674,13.4648,13.4622,13.449,13.3928,13.3519,13.291,13.2187,13.1958,13.1634,13.1004,13.0669,13.0441,13.0106,12.9663,12.9506,12.9354,12.9202,12.9095,12.9138,12.9127,12.9134,12.8733,12.864,12.8533,12.8178,12.8128,12.8153,12.8215,12.8215,12.8215,12.8215,12.7986,12.7567,12.6336,12.5536,12.4924,12.477,12.4516,12.4165,12.3899,12.3403,12.3076,12.2961,12.3014,12.2824,12.2661,12.2293,12.1949,12.1666,12.1313,12.0912,12.0578,12.0212,11.9697,11.9327,11.8955,11.8281,11.7642,11.6706,11.5881,11.547,11.5021,11.4308,11.3784,11.3632,11.3446,11.3369,11.303,11.2993,11.284,11.2766,11.265,11.265,11.2571,11.2571,11.2375,11.2109,11.225,11.228,11.2354,11.2502,11.2679,11.2724,11.2584,11.2428,11.2346,11.2744,11.3446,11.3695,13.6659,13.6125,13.5858,13.5933,13.6139,13.6199,13.6199,13.6257,13.6257,13.6257,13.6315,13.6315,13.6257,13.6257,13.6219,13.6122,13.5986,13.6024,13.6041,13.5942,13.5842,13.5971,13.587,13.5667,13.545,13.5547,13.5547,13.5299,13.5011,13.4562,13.4156,13.3858,13.3407,13.299,13.2084,13.1676,13.1111,13.0876,13.0508,13.0172,13.0208,13.0236,13.0009,13.0047,12.9971,12.9815,12.9619,12.9316,12.9158,12.9096,12.8886,12.8582,12.8571,12.8533,12.8533,12.8533,12.8495,12.8419,12.8128,12.7581,12.7061,12.6433,12.6232,12.5894,12.5436,12.5018,12.4689,12.4169,12.3827,12.3421,12.3357,12.3353,12.2992,12.26,12.2417,12.2089,12.1533,12.1088,12.0792,12.0383,12.0044,11.9742,11.925,11.8571,11.7371,11.6403,11.5578,11.5239,11.4785,11.4409,11.4297,11.4032,11.3846,11.3389,11.2894,11.3049,11.2969,11.2331,11.2287,11.2287,11.2206,11.2198,11.242,11.2642,11.2633,11.2428,11.2723,11.324,11.3029,11.2596,11.2697,11.3019,11.3266,11.393,11.4249,13.6602,13.6488,13.589,13.5743,13.587,13.5909,13.5995,13.6079,13.6117,13.6139,13.6257,13.6257,13.6199,13.6117,13.6079,13.6057,13.5933,13.5933,13.5909,13.5909,13.5807,13.5743,13.5679,13.5575,13.5509,13.5376,13.5239,13.5132,13.4992,13.4625,13.4479,13.4368,13.3914,13.3385,13.2175,13.1873,13.1646,13.1638,13.1533,13.1341,13.1301,13.1268,13.089,13.0626,13.0548,13.0357,13.0092,12.9975,12.9895,13.0031,13.0024,12.9834,12.9818,12.9856,12.9885,12.9809,12.9951,12.9675,12.9042,12.8255,12.7809,12.7498,12.7175,12.7147,12.729,12.6902,12.6094,12.5506,12.5278,12.4841,12.4668,12.4346,12.3822,12.3416,12.3231,12.2709,12.2185,12.1773,12.1508,12.1016,12.0669,12.0434,12.0055,11.9452,11.8134,11.7016,11.5936,11.5372,11.5099,11.4988,11.4795,11.4342,11.412,11.3889,11.3465,11.3391,11.3206,11.2448,11.2216,11.2596,11.2596,11.2586,11.2723,11.2982,11.3044,11.2909,11.3425,11.4065,11.3807,11.3622,11.3856,11.4065,11.4236,11.4442,11.4795,13.7059,13.6526,13.5718,13.5443,13.5509,13.5807,13.587,13.5933,13.5933,13.5995,13.5995,13.6057,13.5995,13.5933,13.5933,13.5971,13.587,13.5743,13.5679,13.5679,13.5575,13.5443,13.5376,13.5376,13.5308,13.5132,13.4992,13.4815,13.4632,13.4444,13.433,13.4175,13.3939,13.3755,13.3345,13.289,13.2401,13.2213,13.1794,13.1445,13.1467,13.1483,13.1373,13.1252,13.1188,13.1041,13.0778,13.0702,13.0815,13.1,13.0962,13.0811,13.0543,13.0429,13.0274,13.0004,12.9815,12.9663,12.9354,12.8867,12.8429,12.8087,12.7783,12.7746,12.7541,12.7168,12.6827,12.6751,12.6303,12.5972,12.6018,12.5303,12.4778,12.448,12.4105,12.3388,12.2896,12.2624,12.2315,12.1673,12.125,12.0593,12.0212,11.9858,11.8845,11.8064,11.7061,11.6087,11.5744,11.5475,11.529,11.4604,11.4223,11.4223,11.4149,11.399,11.3843,11.3229,11.3266,11.3647,11.3573,11.3032,11.3204,11.3572,11.3559,11.3544,11.4059,11.4501,11.4816,11.4889,11.4832,11.4774,11.4758,11.5073,11.5534,13.7461,13.6663,13.5931,13.5467,13.5239,13.5547,13.5679,13.5679,13.5679,13.5679,13.5679,13.5679,13.5679,13.5679,13.5679,13.5679,13.5679,13.5613,13.5509,13.5443,13.5376,13.5308,13.5239,13.51,13.4921,13.4815,13.4668,13.4406,13.4367,13.4097,13.3939,13.3697,13.3571,13.3375,13.3352,13.3014,13.2875,13.2531,13.2143,13.194,13.194,13.1873,13.1798,13.1723,13.1654,13.1666,13.1483,13.1524,13.1678,13.1681,13.1645,13.1494,13.1041,13.0777,13.0664,13.0362,13.0281,13.0205,12.9943,12.9683,12.9225,12.8482,12.8147,12.8115,12.7939,12.764,12.7413,12.7227,12.6928,12.6703,12.6552,12.5837,12.5573,12.5269,12.481,12.4084,12.3854,12.361,12.3191,12.2511,12.1785,12.117,12.0431,11.9998,11.9453,11.8787,11.8207,11.7269,11.6417,11.611,11.5962,11.5383,11.489,11.4927,11.4853,11.4668,11.4397,11.4088,11.4162,11.436,11.3978,11.3397,11.3802,11.4117,11.4154,11.4248,11.4615,11.4929,11.535,11.5534,11.546,11.5387,11.5222,11.5589,11.6103,13.7696,13.6941,13.6481,13.568,13.5068,13.517,13.5308,13.5308,13.527,13.527,13.527,13.5376,13.5376,13.5337,13.5308,13.5376,13.5376,13.5308,13.5422,13.5391,13.5436,13.5328,13.5263,13.5156,13.5199,13.4784,13.4631,13.4739,13.4207,13.4268,13.3938,13.3571,13.3549,13.3499,13.3511,13.3485,13.3197,13.2784,13.2586,13.2463,13.2426,13.2607,13.2297,13.2062,13.195,13.1819,13.1677,13.1565,13.1736,13.1784,13.1869,13.1794,13.1681,13.172,13.172,13.1608,13.1454,13.104,13.0551,13.0432,13.0055,12.9381,12.923,12.9268,12.889,12.8362,12.806,12.7721,12.7457,12.7004,12.6589,12.6319,12.6086,12.5732,12.5457,12.5066,12.4992,12.46,12.4057,12.3451,12.2721,12.2027,12.1207,12.0696,12.0147,11.9482,11.8854,11.8174,11.7362,11.686,11.6624,11.6462,11.613,11.5946,11.5673,11.5289,11.5105,11.4795,11.4448,11.4448,11.4064,11.4064,11.4468,11.4799,11.4782,11.4965,11.5222,11.5516,11.5846,11.5956,11.6103,11.6103,11.603,11.6066,11.6397,13.746,13.6592,13.5955,13.52,13.4481,13.4594,13.4959,13.5308,13.527,13.527,13.527,13.527,13.5315,13.527,13.527,13.5346,13.5277,13.5246,13.5486,13.5604,13.5725,13.5881,13.5956,13.5955,13.5991,13.5833,13.5635,13.536,13.5261,13.5007,13.4746,13.4719,13.4331,13.4315,13.4262,13.4374,13.3696,13.3149,13.2911,13.2822,13.2785,13.2813,13.2538,13.2449,13.2359,13.2276,13.2189,13.2152,13.241,13.2616,13.2736,13.2624,13.2112,13.2074,13.2042,13.1449,13.1381,13.1268,13.1034,13.0909,13.0565,13.0232,13.0114,12.9738,12.933,12.8845,12.8584,12.8243,12.7939,12.748,12.7174,12.6938,12.6661,12.6383,12.6028,12.5634,12.5436,12.5089,12.4542,12.4046,12.3312,12.28,12.2011,12.1311,12.0721,12.0095,11.945,11.8842,11.8217,11.7683,11.7331,11.7167,11.6856,11.6561,11.6139,11.5754,11.5644,11.5406,11.5112,11.4965,11.5075,11.5149,11.5369,11.5479,11.5516,11.5663,11.581,11.6177,11.658,11.6764,11.6874,11.6874,11.6874,11.6911,11.7021,13.7557,13.6507,13.6097,13.5192,13.4286,13.4668,13.5049,13.5305,13.5182,13.51,13.5138,13.5442,13.5524,13.5528,13.5794,13.5912,13.5877,13.5805,13.5957,13.6108,13.6106,13.6255,13.6474,13.6502,13.6351,13.6301,13.6134,13.5655,13.5695,13.5392,13.5045,13.5008,13.512,13.4936,13.4731,13.4545,13.4247,13.3669,13.3222,13.3056,13.2907,13.2775,13.2554,13.2572,13.2684,13.2683,13.2695,13.2695,13.2836,13.3012,13.3012,13.2912,13.2522,13.2484,13.241,13.1978,13.1961,13.1773,13.1452,13.1285,13.0994,13.0702,13.0611,13.0207,12.9721,12.9328,12.8999,12.8781,12.8354,12.7925,12.7729,12.7495,12.726,12.6988,12.6479,12.6057,12.5695,12.542,12.4907,12.4447,12.3932,12.3397,12.2768,12.2028,12.1492,12.0992,12.0551,11.9979,11.9244,11.8529,11.8088,11.7831,11.7444,11.7113,11.6727,11.6434,11.625,11.6066,11.5736,11.5699,11.5993,11.5993,11.5883,11.603,11.625,11.6397,11.658,11.6947,11.7314,11.7535,11.7755,11.7902,11.7902,11.7828,11.8012,13.7647,13.618,13.6314,13.5334,13.4358,13.4961,13.5418,13.5418,13.52,13.4971,13.5161,13.5691,13.5957,13.5957,13.6335,13.6561,13.6446,13.6368,13.6403,13.6621,13.6701,13.6809,13.6835,13.6564,13.6689,13.6256,13.6007,13.6206,13.5675,13.5513,13.5532,13.5029,13.4989,13.5042,13.5154,13.502,13.4798,13.4654,13.406,13.3631,13.3316,13.2833,13.2256,13.2293,13.2442,13.2572,13.2554,13.2572,13.277,13.2785,13.2799,13.2799,13.2813,13.2738,13.27,13.2713,13.2559,13.2335,13.1965,13.1828,13.1404,13.0966,13.0469,13.0643,13.0443,12.9811,12.9496,12.9309,12.9,12.8765,12.8566,12.8318,12.8118,12.7732,12.7308,12.6758,12.6371,12.5966,12.5487,12.4931,12.4431,12.389,12.3574,12.2867,12.2293,12.2036,12.1499,12.0985,12.0435,11.9517,11.8966,11.8599,11.8012,11.7718,11.7498,11.7204,11.6947,11.669,11.6434,11.6507,11.6874,11.6654,11.625,11.6654,11.7131,11.7204,11.7388,11.7718,11.8012,11.8379,11.8636,11.893,11.8966,11.8893,11.904,13.6468,13.542,13.4444,13.4079,13.4342,13.4901,13.5554,13.6082,13.6135,13.6101,13.6217,13.6368,13.6482,13.6478,13.6743,13.6852,13.6696,13.6841,13.6917,13.7136,13.7242,13.73,13.7655,13.7456,13.7394,13.7366,13.7186,13.6854,13.6631,13.6518,13.6439,13.6439,13.6037,13.5827,13.5864,13.5766,13.5617,13.5517,13.4951,13.4419,13.4225,13.4022,13.3782,13.3279,13.3093,13.2739,13.2647,13.2312,13.2442,13.2479,13.2551,13.2658,13.2799,13.2799,13.2799,13.2762,13.2738,13.25,13.2412,13.2307,13.2061,13.2001,13.1763,13.1753,13.1418,13.0532,12.9985,12.991,12.9674,12.9436,12.9273,12.9057,12.8892,12.8429,12.8004,12.7504,12.7041,12.6467,12.602,12.5423,12.4959,12.4545,12.4167,12.3763,12.3224,12.271,12.2196,12.1756,12.1536,12.0875,12.0141,11.9627,11.8709,11.8306,11.8159,11.8049,11.7792,11.7718,11.7571,11.7645,11.7718,11.7498,11.7278,11.7682,11.8049,11.8085,11.8122,11.8232,11.8563,11.9113,11.9407,11.9627,12.0031,12.0067,12.0214,13.5489,13.4592,13.3536,13.3461,13.4297,13.4883,13.5693,13.6406,13.6867,13.7102,13.7112,13.7136,13.7111,13.7143,13.7369,13.74,13.7317,13.7346,13.7478,13.7655,13.7606,13.7694,13.7853,13.7912,13.7709,13.76,13.7451,13.7188,13.7204,13.6974,13.6704,13.6779,13.6581,13.6417,13.6417,13.6278,13.6168,13.6173,13.5687,13.5354,13.5049,13.459,13.4076,13.3556,13.3403,13.3143,13.3036,13.2739,13.257,13.259,13.2554,13.2331,13.244,13.244,13.244,13.244,13.244,13.244,13.2514,13.2497,13.2387,13.2348,13.2274,13.2015,13.1922,13.1157,13.0694,13.0545,12.9891,12.9578,12.9358,12.9137,12.9006,12.869,12.8411,12.8057,12.7519,12.6958,12.6359,12.5649,12.5331,12.5257,12.4901,12.4325,12.3922,12.3665,12.3114,12.2674,12.2453,12.2123,12.1426,12.0802,11.9957,11.9223,11.8966,11.8819,11.8673,11.8636,11.8599,11.8342,11.8195,11.8306,11.8379,11.8563,11.8746,11.893,11.8966,11.9076,11.948,12.0067,12.0214,12.0324,12.0728,12.1022,12.0985,13.4539,13.3718,13.3009,13.327,13.4219,13.4966,13.5825,13.6684,13.7356,13.7618,13.7651,13.7789,13.7731,13.7873,13.8202,13.838,13.8244,13.7819,13.7905,13.7853,13.7763,13.7709,13.7618,13.7638,13.7545,13.73,13.7108,13.7011,13.6914,13.6717,13.648,13.648,13.6278,13.6213,13.6111,13.6111,13.6037,13.6037,13.5793,13.5946,13.5417,13.48,13.4297,13.4074,13.3876,13.3939,13.3728,13.3514,13.3195,13.3069,13.283,13.257,13.2348,13.231,13.2088,13.2051,13.2015,13.1959,13.1976,13.2013,13.2013,13.1976,13.2013,13.2013,13.1956,13.1733,13.1362,13.0917,13.0231,12.9878,12.969,12.9595,12.9426,12.9108,12.8864,12.8582,12.7944,12.744,12.6801,12.6051,12.5941,12.5904,12.5573,12.5096,12.4729,12.4472,12.4142,12.3738,12.3334,12.2931,12.238,12.2013,12.1536,12.0802,11.9994,11.97,11.959,11.948,11.9407,11.9003,11.8819,11.9187,11.9333,11.915,11.9333,11.9664,11.9921,12.0067,12.0545,12.0875,12.0728,12.0691,12.1169,12.1389,12.1352,13.3223,13.2479,13.2514,13.3388,13.4655,13.5137,13.6124,13.7356,13.7581,13.7693,13.7655,13.7709,13.7741,13.7651,13.7763,13.7875,13.8003,13.7784,13.7784,13.7693,13.76,13.7545,13.7451,13.7357,13.7262,13.7071,13.6816,13.668,13.6618,13.6417,13.6315,13.6315,13.6008,13.5904,13.5799,13.5836,13.5625,13.5694,13.5588,13.5592,13.5804,13.532,13.5351,13.5063,13.4816,13.4306,13.3964,13.3712,13.3554,13.3506,13.3421,13.3014,13.2718,13.2459,13.2372,13.2135,13.1935,13.1935,13.195,13.1941,13.2052,13.189,13.1927,13.183,13.1793,13.1584,13.1326,13.1178,13.0794,13.0794,13.0697,13.0697,13.0526,12.9763,12.9333,12.8766,12.8198,12.8051,12.773,12.7225,12.6932,12.6822,12.6601,12.6087,12.5537,12.5206,12.4766,12.4399,12.4215,12.3812,12.3371,12.3077,12.2857,12.194,12.0948,12.0691,12.0545,12.0435,12.0251,11.9957,11.9957,12.0398,12.0435,11.9994,12.0141,12.0508,12.0765,12.0912,12.1059,12.1242,12.0985,12.0985,12.1536,12.1903,12.2013]},{"header":{"parameterUnit":"m.s-1","parameterCategory":1,"la1":31.0,"la2":29.5877,"lo1":-88.7671,"lo2":-86.6584,"dy":0.0162,"dx":0.0185,"nx":115,"ny":88,"refTime":"2023-03-17T18:00:00:Z","depth":0,"parameterNumber":3,"parameterNumberName":"V-component_of_WINDS"},"data":[0.0,0.0,0.0,0.0,0.0,0.0,0.0,0.0,0.0,0.0,0.0,0.0,0.0,0.0,0.0,0.0,0.0,0.0,0.0,0.0,0.0,0.0,0.0,0.0,0.0,0.0,0.0,0.0,0.0,0.0,0.0,0.0,0.0,0.0,0.0,0.0,0.0,0.0,0.0,0.0,0.0,0.0,0.0,0.0,0.0,0.0,0.0,0.0,0.0,0.0,0.0,0.0,0.0,0.0,0.0,0.0,0.0,0.0,0.0,0.0,0.0,0.0,0.0,0.0,0.0,0.0,0.0,0.0,0.0,0.0,0.0,0.0,0.0,0.0,0.0,0.0,0.0,0.0,0.0,0.0,0.0,0.0,0.0,0.0,0.0,0.0,0.0,0.0,0.0,0.0,0.0,0.0,0.0,0.0,0.0,0.0,0.0,0.0,0.0,0.0,0.0,0.0,0.0,0.0,0.0,0.0,0.0,0.0,0.0,0.0,0.0,0.0,0.0,0.0,0.0,0.0,0.0,0.0,0.0,0.0,0.0,0.0,0.0,0.0,0.0,0.0,0.0,0.0,0.0,0.0,0.0,0.0,0.0,0.0,0.0,0.0,0.0,0.0,0.0,0.0,0.0,0.0,0.0,0.0,0.0,0.0,0.0,0.0,0.0,0.0,0.0,0.0,0.0,0.0,0.0,0.0,0.0,0.0,0.0,0.0,0.0,0.0,0.0,0.0,0.0,0.0,0.0,0.0,0.0,0.0,0.0,0.0,0.0,0.0,0.0,0.0,0.0,0.0,0.0,0.0,0.0,0.0,0.0,0.0,0.0,0.0,0.0,0.0,0.0,0.0,0.0,0.0,0.0,0.0,0.0,0.0,0.0,0.0,0.0,0.0,0.0,0.0,0.0,0.0,0.0,0.0,0.0,0.0,0.0,0.0,0.0,0.0,0.0,0.0,0.0,0.0,0.0,0.0,0.0,0.0,0.0,0.0,0.0,0.0,0.0,0.0,0.0,0.0,0.0,0.0,0.0,0.0,0.0,0.0,0.0,0.0,0.0,0.0,0.0,0.0,0.0,0.0,0.0,0.0,0.0,0.0,0.0,0.0,0.0,0.0,0.0,0.0,0.0,0.0,0.0,0.0,0.0,0.0,0.0,0.0,0.0,0.0,0.0,0.0,0.0,0.0,0.0,0.0,0.0,0.0,0.0,0.0,0.0,0.0,0.0,0.0,0.0,0.0,0.0,0.0,0.0,0.0,0.0,0.0,0.0,0.0,0.0,0.0,0.0,0.0,0.0,0.0,0.0,0.0,0.0,0.0,0.0,0.0,0.0,0.0,0.0,0.0,0.0,0.0,0.0,0.0,0.0,0.0,0.0,0.0,0.0,0.0,0.0,0.0,0.0,0.0,0.0,0.0,0.0,0.0,0.0,0.0,0.0,0.0,0.0,0.0,0.0,0.0,0.0,0.0,0.0,0.0,0.0,0.0,0.0,0.0,0.0,0.0,0.0,0.0,0.0,0.0,0.0,0.0,0.0,0.0,0.0,0.0,0.0,0.0,0.0,0.0,0.0,0.0,0.0,0.0,0.0,0.0,0.0,0.0,0.0,0.0,0.0,0.0,0.0,0.0,0.0,0.0,0.0,0.0,0.0,0.0,0.0,0.0,0.0,0.0,0.0,0.0,0.0,0.0,0.0,0.0,0.0,0.0,0.0,0.0,0.0,0.0,0.0,0.0,0.0,0.0,0.0,0.0,0.0,0.0,0.0,0.0,0.0,0.0,0.0,0.0,0.0,0.0,0.0,0.0,0.0,0.0,0.0,0.0,0.0,0.0,0.0,0.0,0.0,0.0,0.0,0.0,0.0,0.0,0.0,0.0,0.0,0.0,0.0,0.0,0.0,0.0,0.0,0.0,0.0,0.0,0.0,0.0,0.0,0.0,0.0,0.0,0.0,0.0,0.0,0.0,0.0,0.0,0.0,0.0,0.0,0.0,0.0,0.0,0.0,0.0,0.0,0.0,0.0,0.0,0.0,0.0,0.0,0.0,0.0,0.0,0.0,0.0,0.0,0.0,0.0,0.0,0.0,0.0,0.0,0.0,0.0,0.0,0.0,0.0,0.0,0.0,0.0,0.0,0.0,0.0,0.0,0.0,0.0,0.0,0.0,0.0,0.0,0.0,0.0,0.0,0.0,0.0,0.0,0.0,0.0,0.0,0.0,0.0,0.0,0.0,0.0,0.0,0.0,0.0,0.0,0.0,0.0,0.0,0.0,0.0,0.0,0.0,0.0,0.0,0.0,0.0,0.0,0.0,0.0,0.0,0.0,0.0,0.0,0.0,0.0,0.0,0.0,0.0,0.0,0.0,0.0,0.0,0.0,0.0,0.0,0.0,0.0,0.0,0.0,0.0,0.0,0.0,0.0,0.0,0.0,0.0,0.0,0.0,0.0,0.0,0.0,0.0,0.0,0.0,0.0,0.0,0.0,0.0,0.0,0.0,0.0,0.0,0.0,0.0,0.0,0.0,0.0,0.0,0.0,0.0,0.0,0.0,0.0,0.0,0.0,0.0,0.0,0.0,0.0,0.0,0.0,0.0,0.0,0.0,0.0,0.0,0.0,0.0,0.0,0.0,0.0,0.0,0.0,0.0,0.0,0.0,0.0,0.0,0.0,0.0,0.0,0.0,0.0,0.0,0.0,0.0,0.0,0.0,0.0,0.0,0.0,0.0,0.0,0.0,0.0,0.0,0.0,0.0,0.0,0.0,0.0,0.0,0.0,0.0,0.0,0.0,0.0,0.0,0.0,0.0,0.0,0.0,0.0,0.0,0.0,0.0,0.0,0.0,0.0,0.0,0.0,0.0,0.0,0.0,0.0,0.0,0.0,0.0,0.0,0.0,0.0,0.0,0.0,0.0,0.0,0.0,0.0,0.0,0.0,0.0,0.0,0.0,0.0,0.0,0.0,0.0,0.0,0.0,0.0,0.0,0.0,0.0,0.0,0.0,0.0,0.0,0.0,0.0,0.0,0.0,0.0,0.0,0.0,0.0,0.0,0.0,0.0,0.0,0.0,0.0,0.0,0.0,0.0,0.0,0.0,0.0,0.0,0.0,0.0,0.0,0.0,0.0,0.0,0.0,0.0,0.0,0.0,0.0,0.0,0.0,0.0,0.0,0.0,0.0,0.0,0.0,0.0,0.0,0.0,0.0,0.0,0.0,0.0,0.0,0.0,0.0,0.0,0.0,0.0,0.0,0.0,0.0,0.0,0.0,0.0,0.0,0.0,0.0,0.0,0.0,0.0,0.0,0.0,0.0,0.0,0.0,0.0,0.0,0.0,0.0,0.0,0.0,0.0,0.0,0.0,0.0,0.0,0.0,0.0,0.0,0.0,0.0,0.0,0.0,0.0,0.0,0.0,0.0,0.0,0.0,0.0,0.0,0.0,0.0,0.0,0.0,0.0,0.0,0.0,0.0,0.0,0.0,0.0,0.0,0.0,0.0,0.0,0.0,0.0,0.0,0.0,0.0,0.0,0.0,0.0,0.0,0.0,0.0,0.0,0.0,0.0,0.0,0.0,0.0,0.0,0.0,0.0,0.0,0.0,0.0,0.0,0.0,0.0,0.0,0.0,0.0,0.0,0.0,0.0,0.0,0.0,0.0,0.0,0.0,0.0,0.0,0.0,0.0,0.0,0.0,0.0,0.0,0.0,0.0,0.0,0.0,0.0,0.0,0.0,0.0,0.0,0.0,0.0,0.0,0.0,0.0,0.0,0.0,0.0,0.0,0.0,0.0,0.0,0.0,0.0,0.0,0.0,0.0,0.0,0.0,0.0,0.0,0.0,0.0,0.0,0.0,0.0,0.0,0.0,0.0,0.0,0.0,0.0,0.0,0.0,0.0,0.0,0.0,0.0,0.0,0.0,0.0,0.0,0.0,0.0,0.0,0.0,0.0,0.0,0.0,0.0,0.0,0.0,0.0,0.0,0.0,0.0,0.0,0.0,0.0,0.0,0.0,0.0,0.0,0.0,0.0,0.0,0.0,0.0,0.0,0.0,0.0,0.0,0.0,0.0,0.0,0.0,0.0,0.0,0.0,0.0,0.0,0.0,0.0,0.0,0.0,0.0,0.0,0.0,0.0,0.0,0.0,0.0,0.0,0.0,0.0,0.0,0.0,0.0,0.0,0.0,0.0,0.0,0.0,0.0,0.0,0.0,0.0,0.0,0.0,0.0,0.0,0.0,0.0,0.0,0.0,0.0,0.0,0.0,0.0,0.0,0.0,0.0,0.0,-0.5954,0.0,0.0,0.0,0.0,0.0,0.0,0.0,0.0,0.0,0.0,0.0,0.0,0.0,0.0,0.0,0.0,0.0,0.0,0.0,0.0,0.0,0.0,0.0,0.0,0.0,0.0,0.0,0.0,0.0,0.0,0.0,0.0,0.0,0.0,0.0,0.0,0.0,0.0,0.0,0.0,0.0,0.0,0.0,0.0,0.0,0.0,0.0,0.0,0.0,0.0,0.0,0.0,0.0,0.0,0.0,0.0,0.0,0.0,0.0,0.0,0.0,0.0,0.0,0.0,0.0,0.0,0.0,0.0,0.0,0.0,0.0,0.0,0.0,0.0,0.0,0.0,0.0,0.0,0.0,0.0,0.0,0.0,0.0,0.0,0.0,0.0,0.0,0.0,0.0,0.0,0.0,0.0,0.0,0.0,0.0,0.0,0.0,0.0,0.0,0.0,0.0,0.0,0.0,0.0,0.0,0.0,0.0,0.0,0.0,0.0,-0.5418,-0.5425,-0.5617,-0.5756,-0.5756,0.0,0.0,0.0,0.0,0.0,0.0,0.0,0.0,0.0,0.0,0.0,0.0,0.0,0.0,0.0,0.0,0.0,0.0,0.0,0.0,0.0,0.0,0.0,0.0,0.0,0.0,0.0,0.0,0.0,0.0,0.0,0.0,0.0,0.0,0.0,0.0,0.0,0.0,0.0,0.0,0.0,0.0,0.0,0.0,0.0,0.0,0.0,0.0,0.0,0.0,0.0,0.0,0.0,0.0,0.0,0.0,0.0,0.0,0.0,0.0,0.0,0.0,0.0,0.0,0.0,0.0,0.0,0.0,0.0,0.0,0.0,0.0,0.0,0.0,0.0,0.0,0.0,0.0,0.0,0.0,0.0,0.0,0.0,0.0,0.0,0.0,0.0,0.0,0.0,0.0,0.0,0.0,0.0,0.0,0.0,0.0,0.0,0.0,0.0,0.0,0.0,0.0,0.0,0.0,0.0,0.0,0.0,0.0,0.0,0.0,0.0,0.0,-0.5484,-0.555,-0.555,0.0,0.0,0.0,0.0,0.0,0.0,0.0,0.0,0.0,0.0,0.0,0.0,0.0,0.0,0.0,0.0,0.0,0.0,0.0,0.0,0.0,0.0,0.0,0.0,0.0,0.0,0.0,0.0,0.0,0.0,0.0,0.0,0.0,0.0,0.0,0.0,0.0,0.0,0.0,0.0,0.0,0.0,0.0,0.0,0.0,0.0,0.0,0.0,0.0,0.0,0.0,0.0,0.0,0.0,0.0,0.0,0.0,0.0,0.0,0.0,0.0,0.0,0.0,0.0,0.0,0.0,0.0,0.0,0.0,0.0,0.0,0.0,0.0,0.0,0.0,0.0,0.0,0.0,0.0,0.0,0.0,0.0,0.0,0.0,0.0,0.0,0.0,0.0,0.0,0.0,0.0,0.0,0.0,0.0,0.0,0.0,0.0,0.0,0.0,0.0,0.0,0.0,0.0,0.0,0.0,0.0,0.0,0.0,0.0,0.0,-0.5425,-0.5425,-0.5425,0.0,-0.5425,0.0,0.0,0.0,0.0,0.0,0.0,0.0,0.0,0.0,0.0,0.0,0.0,0.0,0.0,0.0,0.0,0.0,0.0,0.0,0.0,0.0,0.0,0.0,0.0,0.0,0.0,0.0,0.0,0.0,0.0,0.0,0.0,0.0,0.0,0.0,0.0,0.0,0.0,0.0,0.0,0.0,0.0,0.0,0.0,0.0,0.0,0.0,0.0,0.0,0.0,0.0,0.0,0.0,0.0,0.0,0.0,0.0,0.0,0.0,0.0,0.0,0.0,0.0,0.0,0.0,0.0,0.0,0.0,0.0,0.0,0.0,0.0,0.0,0.0,0.0,0.0,0.0,0.0,0.0,0.0,0.0,0.0,0.0,0.0,0.0,0.0,0.0,0.0,0.0,0.0,0.0,0.0,0.0,0.0,0.0,0.0,0.0,0.0,0.0,0.0,0.0,0.0,0.0,0.0,0.0,0.0,0.0,0.0,0.0,0.0,-0.5425,-0.5425,-0.5425,-0.5425,0.0,0.0,0.0,0.0,0.0,0.0,0.0,0.0,0.0,0.0,0.0,0.0,0.0,0.0,0.0,0.0,0.0,0.0,0.0,0.0,0.0,0.0,0.0,0.0,0.0,0.0,0.0,0.0,0.0,0.0,0.0,0.0,0.0,0.0,0.0,0.0,0.0,0.0,0.0,0.0,0.0,0.0,0.0,0.0,0.0,0.0,0.0,0.0,0.0,0.0,0.0,0.0,0.0,0.0,0.0,0.0,0.0,0.0,0.0,0.0,0.0,0.0,0.0,0.0,0.0,0.0,0.0,0.0,0.0,0.0,0.0,0.0,0.0,0.0,0.0,0.0,0.0,0.0,0.0,0.0,0.0,0.0,0.0,0.0,0.0,0.0,0.0,0.0,0.0,0.0,0.0,0.0,0.0,0.0,0.0,0.0,0.0,0.0,0.0,0.0,0.0,0.0,0.0,0.0,0.0,0.0,0.0,0.0,0.0,0.0,-0.5292,-0.5226,-0.5226,-0.5226,-0.5226,-0.5226,0.0,0.0,0.0,0.0,0.0,0.0,0.0,0.0,0.0,0.0,0.0,0.0,0.0,0.0,0.0,0.0,0.0,0.0,0.0,0.0,0.0,0.0,0.0,0.0,0.0,0.0,0.0,0.0,0.0,0.0,0.0,0.0,0.0,0.0,0.0,0.0,0.0,0.0,0.0,0.0,0.0,0.0,0.0,0.0,0.0,0.0,0.0,0.0,0.0,0.0,0.0,0.0,0.0,0.0,0.0,0.0,0.0,0.0,0.0,0.0,0.0,0.0,0.0,0.0,0.0,0.0,0.0,0.0,0.0,0.0,0.0,0.0,0.0,0.0,0.0,0.0,0.0,0.0,0.0,0.0,0.0,0.0,0.0,0.0,0.0,0.0,0.0,0.0,0.0,0.0,0.0,0.0,0.0,0.0,0.0,0.0,0.0,0.0,0.0,0.0,0.0,0.0,0.0,0.0,0.0,0.0,0.0,0.0,-0.5359,-0.502,-0.4821,-0.4827,-0.4827,-0.4827,0.0,0.0,0.0,0.0,0.0,0.0,0.0,0.0,0.0,0.0,0.0,0.0,0.0,0.0,0.0,0.0,0.0,0.0,0.0,0.0,0.0,0.0,0.0,0.0,0.0,0.0,0.0,0.0,0.0,0.0,0.0,0.0,0.0,0.0,0.0,0.0,0.0,0.0,0.0,0.0,0.0,0.0,0.0,0.0,0.0,0.0,0.0,0.0,0.0,0.0,0.0,0.0,0.0,0.0,0.0,0.0,0.0,0.0,0.0,0.0,0.0,0.0,0.0,0.0,0.0,0.0,0.0,0.0,0.0,0.0,0.0,0.0,0.0,0.0,0.0,0.0,0.0,0.0,0.0,0.0,0.0,0.0,0.0,0.0,0.0,0.0,0.0,0.0,0.0,0.0,0.0,0.0,0.0,0.0,0.0,0.0,0.0,0.0,0.0,0.0,0.0,0.0,0.0,0.0,0.0,0.0,0.0,0.0,0.0,-0.5219,-0.4954,-0.4761,-0.4694,-0.4694,-0.4694,0.0,0.0,0.0,0.0,0.0,0.0,0.0,0.0,0.0,0.0,0.0,0.0,0.0,0.0,0.0,0.0,0.0,0.0,0.0,0.0,0.0,0.0,0.0,0.0,0.0,0.0,0.0,0.0,0.0,0.0,0.0,0.0,0.0,0.0,0.0,0.0,0.0,0.0,0.0,0.0,0.0,0.0,0.0,0.0,0.0,0.0,0.0,0.0,0.0,0.0,0.0,0.0,0.0,0.0,0.0,0.0,0.0,0.0,0.0,0.0,0.0,0.0,0.0,0.0,0.0,0.0,0.0,0.0,0.0,0.0,0.0,0.0,0.0,0.0,0.0,0.0,0.0,0.0,0.0,0.0,0.0,0.0,0.0,0.0,0.0,0.0,0.0,0.0,0.0,0.0,0.0,0.0,0.0,0.0,0.0,0.0,0.0,0.0,0.0,0.0,0.0,0.0,0.0,0.0,0.0,0.0,0.0,0.0,0.0,-0.4881,0.0,-0.462,-0.4335,-0.4298,-0.4282,0.0,0.0,0.0,0.0,0.0,0.0,0.0,0.0,0.0,0.0,0.0,0.0,0.0,0.0,0.0,0.0,0.0,0.0,0.0,0.0,0.0,0.0,0.0,0.0,0.0,0.0,0.0,0.0,0.0,0.0,0.0,0.0,0.0,0.0,0.0,0.0,0.0,0.0,0.0,0.0,0.0,0.0,0.0,0.0,0.0,0.0,0.0,0.0,0.0,0.0,0.0,0.0,0.0,0.0,0.0,0.0,0.0,0.0,0.0,0.0,0.0,0.0,0.0,0.0,0.0,0.0,0.0,0.0,0.0,0.0,0.0,0.0,0.0,0.0,0.0,0.0,0.0,0.0,0.0,0.0,0.0,0.0,0.0,0.0,0.0,0.0,0.0,0.0,0.0,0.0,0.0,0.0,0.0,0.0,0.0,0.0,0.0,0.0,0.0,0.0,0.0,0.0,0.0,0.0,0.0,0.0,0.0,0.0,-0.505,-0.4359,-0.452,-0.4317,-0.3713,-0.3635,-0.3574,0.0,0.0,0.0,0.0,0.0,0.0,0.0,0.0,0.0,0.0,0.0,0.0,0.0,0.0,0.0,0.0,0.0,0.0,0.0,0.0,0.0,0.0,0.0,0.0,0.0,0.0,0.0,0.0,0.0,0.0,0.0,0.0,0.0,0.0,0.0,0.0,0.0,0.0,0.0,0.0,0.0,0.0,0.0,0.0,0.0,0.0,0.0,0.0,0.0,0.0,0.0,0.0,0.0,0.0,0.0,0.0,0.0,0.0,0.0,0.0,0.0,0.0,0.0,0.0,0.0,0.0,0.0,0.0,0.0,0.0,0.0,0.0,0.0,0.0,0.0,0.0,0.0,0.0,0.0,0.0,0.0,0.0,0.0,0.0,0.0,0.0,0.0,0.0,0.0,0.0,0.0,0.0,0.0,0.0,0.0,0.0,0.0,0.0,0.0,0.0,0.0,0.0,0.0,0.0,0.0,0.0,0.0,0.0,0.0,-0.4834,-0.4494,-0.4035,-0.3374,-0.341,-0.3362,0.0,0.0,0.0,0.0,0.0,0.0,0.0,0.0,0.0,0.0,0.0,0.0,0.0,0.0,0.0,0.0,0.0,0.0,0.0,0.0,0.0,0.0,0.0,0.0,0.0,0.0,0.0,0.0,0.0,0.0,0.0,0.0,0.0,0.0,0.0,0.0,0.0,0.0,0.0,0.0,0.0,0.0,0.0,0.0,0.0,0.0,0.0,0.0,0.0,0.0,0.0,0.0,0.0,0.0,0.0,0.0,0.0,0.0,0.0,0.0,0.0,0.0,0.0,0.0,0.0,0.0,0.0,0.0,0.0,0.0,0.0,0.0,0.0,0.0,0.0,0.0,0.0,0.0,0.0,0.0,0.0,0.0,0.0,0.0,0.0,0.0,0.0,0.0,0.0,0.0,0.0,0.0,0.0,0.0,0.0,0.0,0.0,0.0,0.0,0.0,0.0,0.0,0.0,0.0,0.0,0.0,0.0,0.0,0.0,-0.4575,-0.4319,-0.3765,-0.3108,-0.3054,-0.2892,-0.2561,0.0,0.0,0.0,0.0,0.0,0.0,0.0,0.0,0.0,0.0,0.0,0.0,0.0,0.0,0.0,0.0,0.0,0.0,0.0,0.0,0.0,0.0,0.0,0.0,0.0,0.0,0.0,0.0,0.0,0.0,0.0,0.0,0.0,0.0,0.0,0.0,0.0,0.0,0.0,0.0,0.0,0.0,0.0,0.0,0.0,0.0,0.0,0.0,0.0,0.0,0.0,0.0,0.0,0.0,0.0,0.0,0.0,0.0,0.0,0.0,0.0,0.0,0.0,0.0,0.0,0.0,0.0,0.0,0.0,0.0,0.0,0.0,0.0,0.0,0.0,0.0,0.0,0.0,0.0,0.0,0.0,0.0,0.0,0.0,0.0,0.0,0.0,0.0,0.0,0.0,0.0,0.0,0.0,0.0,0.0,0.0,0.0,0.0,0.0,0.0,0.0,0.0,0.0,0.0,0.0,0.0,0.0,0.0,-0.3809,-0.3819,-0.339,-0.2812,-0.2562,-0.2391,0.0,0.0,0.0,0.0,0.0,0.0,0.0,0.0,0.0,0.0,0.0,0.0,0.0,0.0,0.0,0.0,0.0,0.0,0.0,0.0,0.0,0.0,0.0,0.0,0.0,0.0,0.0,0.0,0.0,0.0,0.0,0.0,0.0,0.0,0.0,0.0,0.0,0.0,0.0,0.0,0.0,0.0,0.0,0.0,0.0,0.0,0.0,0.0,0.0,0.0,0.0,0.0,0.0,0.0,0.0,0.0,0.0,0.0,0.0,0.0,0.0,0.0,0.0,0.0,0.0,0.0,0.0,0.0,0.0,0.0,0.0,0.0,0.0,0.0,0.0,0.0,0.0,0.0,0.0,0.0,0.0,0.0,0.0,0.0,0.0,0.0,0.0,0.0,0.0,0.0,0.0,0.0,0.0,0.0,0.0,0.0,0.0,0.0,0.0,0.0,0.0,0.0,0.0,0.0,0.0,0.0,0.0,0.0,0.0,-0.2941,-0.3197,-0.2968,-0.2428,-0.2501,-0.2294,0.0,0.0,0.0,0.0,0.0,0.0,0.0,0.0,0.0,0.0,0.0,0.0,0.0,0.0,0.0,0.0,0.0,0.0,0.0,0.0,0.0,0.0,0.0,0.0,0.0,0.0,0.0,0.0,0.0,0.0,0.0,0.0,0.0,0.0,0.0,0.0,0.0,0.0,0.0,0.0,0.0,0.0,0.0,0.0,0.0,0.0,0.0,0.0,0.0,0.0,0.0,0.0,0.0,0.0,0.0,0.0,0.0,0.0,0.0,0.0,0.0,0.0,0.0,0.0,0.0,0.0,0.0,0.0,0.0,0.0,0.0,0.0,0.0,0.0,0.0,0.0,0.0,0.0,0.0,0.0,0.0,0.0,0.0,0.0,0.0,0.0,0.0,0.0,0.0,0.0,0.0,0.0,0.0,0.0,0.0,0.0,0.0,0.0,0.0,0.0,0.0,0.0,0.0,0.0,0.0,0.0,0.0,0.0,-0.3716,-0.2633,-0.2827,-0.2326,-0.1384,-0.1669,-0.1858,0.0,0.0,0.0,0.0,0.0,0.0,0.0,0.0,0.0,0.0,0.0,0.0,0.0,0.0,0.0,0.0,0.0,0.0,0.0,0.0,0.0,0.0,0.0,0.0,0.0,0.0,0.0,0.0,0.0,0.0,0.0,0.0,0.0,0.0,0.0,0.0,0.0,0.0,0.0,0.0,0.0,0.0,0.0,0.0,0.0,0.0,0.0,0.0,0.0,0.0,0.0,0.0,0.0,0.0,0.0,0.0,0.0,0.0,0.0,0.0,0.0,0.0,0.0,0.0,0.0,0.0,0.0,0.0,0.0,0.0,0.0,0.0,0.0,0.0,0.0,0.0,0.0,0.0,0.0,0.0,0.0,0.0,0.0,0.0,0.0,0.0,0.0,0.0,0.0,0.0,0.0,0.0,0.0,0.0,0.0,0.0,0.0,0.0,0.0,0.0,0.0,0.0,0.0,0.0,0.0,0.0,0.0,0.0,-0.3427,-0.2536,-0.2531,-0.1663,-0.0181,-0.0637,-0.1249,0.0,0.0,0.0,0.0,0.0,0.0,0.0,0.0,0.0,0.0,0.0,0.0,0.0,0.0,0.0,0.0,0.0,0.0,0.0,0.0,0.0,0.0,0.0,0.0,0.0,0.0,0.0,0.0,0.0,0.0,0.0,0.0,0.0,0.0,0.0,0.0,0.0,0.0,0.0,0.0,0.0,0.0,0.0,0.0,0.0,0.0,0.0,0.0,0.0,0.0,0.0,0.0,0.0,0.0,0.0,0.0,0.0,0.0,0.0,0.0,0.0,0.0,0.0,0.0,0.0,0.0,0.0,0.0,0.0,0.0,0.0,0.0,0.0,0.0,0.0,0.0,0.0,0.0,0.0,0.0,0.0,0.0,0.0,0.0,0.0,0.0,0.0,0.0,0.0,0.0,0.0,0.0,0.0,0.0,0.0,0.0,0.0,0.0,0.0,0.0,0.0,0.0,0.0,0.0,0.0,0.0,0.0,0.0,-0.2865,-0.0707,-0.2087,-0.1944,-0.0,-0.017,-0.0299,0.0,0.0,0.0,0.0,0.0,0.0,0.0,0.0,0.0,0.0,0.0,0.0,0.0,0.0,0.0,0.0,0.0,0.0,0.0,0.0,0.0,0.0,0.0,0.0,0.0,0.0,0.0,0.0,0.0,0.0,0.0,0.0,0.0,0.0,0.0,0.0,0.0,0.0,0.0,0.0,0.0,0.0,0.0,0.0,0.0,0.0,0.0,0.0,-0.7295,0.0,0.0,0.0,0.0,0.0,0.0,0.0,0.0,0.0,0.0,0.0,0.0,0.0,0.0,0.0,0.0,0.0,0.0,0.0,0.0,0.0,0.0,0.0,0.0,0.0,0.0,0.0,0.0,0.0,0.0,0.0,0.0,0.0,0.0,0.0,0.0,0.0,0.0,0.0,0.0,0.0,0.0,0.0,0.0,0.0,0.0,0.0,0.0,0.0,0.0,0.0,0.0,0.0,0.0,0.0,0.0,0.0,0.0,0.0,-0.2354,-0.0186,-0.1974,-0.2014,0.0,0.0,0.0,0.0,0.0,0.0,0.0,0.0,0.0,0.0,0.0,0.0,0.0,0.0,0.0,0.0,0.0,0.0,0.0,0.0,0.0,0.0,0.0,0.0,0.0,0.0,0.0,0.0,0.0,0.0,0.0,0.0,0.0,0.0,0.0,0.0,0.0,0.0,0.0,0.0,0.0,0.0,0.0,0.0,0.0,0.0,0.0,0.0,0.0,0.0,0.0,0.0,0.0,0.0,0.0,0.0,0.0,0.0,0.0,0.0,0.0,0.0,0.0,0.0,0.0,0.0,0.0,0.0,0.0,0.0,0.0,0.0,0.0,0.0,0.0,0.0,0.0,0.0,0.0,0.0,0.0,0.0,0.0,0.0,0.0,0.0,0.0,0.0,0.0,0.0,0.0,0.0,0.0,0.0,0.0,0.0,0.0,0.0,0.0,0.0,0.0,0.0,0.0,0.0,0.0,0.0,0.0,0.0,0.0,0.0,-0.3445,-0.1937,-0.0194,-0.1627,-0.165,0.0,0.0,0.0,0.0,0.0,0.0,0.0,0.0,0.0,0.0,0.0,0.0,0.0,0.0,0.0,0.0,0.0,0.0,0.0,0.0,0.0,0.0,0.0,0.0,0.0,0.0,0.0,0.0,0.0,0.0,0.0,0.0,0.0,0.0,0.0,0.0,0.0,0.0,0.0,0.0,0.0,0.0,-0.8297,-0.8733,0.0,0.0,0.0,0.0,0.0,0.0,0.0,0.0,-0.5832,0.0,0.0,0.0,0.0,0.0,0.0,0.0,0.0,0.0,0.0,0.0,0.0,0.0,0.0,0.0,0.0,0.0,0.0,0.0,0.0,0.0,0.0,0.0,0.0,0.0,0.0,0.0,0.0,0.0,0.0,0.0,0.0,0.0,0.0,0.0,0.0,0.0,0.0,0.0,0.0,0.0,0.0,0.0,0.0,0.0,0.0,0.0,0.0,0.0,0.0,0.0,0.0,0.0,0.0,0.0,0.0,-0.3681,-0.2781,-0.1642,-0.0,-0.0206,-0.0417,0.0,0.0,0.0,0.0,0.0,0.0,0.0,0.0,0.0,0.0,0.0,0.0,0.0,0.0,0.0,0.0,0.0,0.0,0.0,0.0,0.0,0.0,0.0,0.0,0.0,0.0,0.0,0.0,0.0,0.0,0.0,0.0,0.0,0.0,0.0,0.0,0.0,0.0,0.0,0.0,0.0,0.0,0.0,-0.8682,-0.8501,0.0,0.0,0.0,0.0,0.0,0.0,0.0,0.0,-0.4679,0.0,0.0,0.0,0.0,0.0,0.0,0.0,0.0,0.0,0.0,0.0,0.0,0.0,0.0,0.0,0.0,0.0,0.0,0.0,0.0,0.0,0.0,0.0,0.0,0.0,0.0,0.0,0.0,0.0,0.0,0.0,0.0,0.0,0.0,0.0,0.0,0.0,0.0,0.0,0.0,0.0,0.0,0.0,0.0,0.0,0.0,0.0,0.0,0.0,0.0,0.0,0.0,0.0,0.0,0.0,-0.3246,-0.2546,-0.15,0.0,0.0,0.0,0.0,0.0,0.0,0.0,0.0,0.0,0.0,0.0,0.0,0.0,0.0,0.0,0.0,0.0,0.0,0.0,0.0,0.0,0.0,0.0,0.0,0.0,0.0,0.0,0.0,0.0,0.0,0.0,0.0,0.0,0.0,0.0,0.0,0.0,0.0,0.0,0.0,0.0,0.0,0.0,0.0,0.0,0.0,-0.8665,-0.8326,-0.724,0.0,0.0,0.0,0.0,0.0,0.0,-0.418,-0.3791,0.0,0.0,0.0,0.0,0.0,0.0,0.0,0.0,0.0,0.0,0.0,0.0,0.0,0.0,0.0,0.0,0.0,0.0,0.0,0.0,0.0,0.0,0.0,0.0,0.0,0.0,0.0,0.0,0.0,0.0,0.0,0.0,0.0,0.0,0.0,0.0,0.0,0.0,0.0,0.0,0.0,0.0,0.0,0.0,0.0,0.0,0.0,0.0,0.0,0.0,0.0,0.0,0.0,0.0,0.0,-0.2757,-0.2445,-0.1532,0.0,0.0,0.0,0.0,0.0,0.0,0.0,0.0,0.0,0.0,0.0,0.0,0.0,0.0,0.0,0.0,0.0,0.0,0.0,0.0,0.0,0.0,0.0,0.0,0.0,0.0,0.0,0.0,0.0,0.0,0.0,0.0,0.0,0.0,0.0,0.0,0.0,0.0,0.0,0.0,0.0,0.0,0.0,0.0,0.0,0.0,0.0,-0.7852,-0.657,-0.6181,0.0,0.0,0.0,0.0,-0.396,-0.3472,0.0,0.0,0.0,0.0,0.0,0.0,0.0,0.0,0.0,0.0,0.0,0.0,0.0,0.0,0.0,0.0,0.0,0.0,0.0,0.0,0.0,0.0,0.0,0.0,0.0,0.0,0.0,0.0,0.0,0.0,0.0,0.0,0.0,0.0,0.0,0.0,0.0,0.0,0.0,0.0,0.0,0.0,0.0,0.0,0.0,0.0,0.0,0.0,0.0,0.0,0.0,0.0,0.0,0.0,0.0,0.0,-0.1905,-0.2314,-0.1746,0.0,0.0,0.0,0.0,0.0,0.0,0.0,0.0,0.0,0.0,0.0,0.0,0.0,0.0,0.0,0.0,0.0,0.0,0.0,0.0,0.0,0.0,0.0,0.0,0.0,0.0,0.0,0.0,0.0,0.0,0.0,0.0,0.0,0.0,0.0,0.0,0.0,0.0,0.0,0.0,0.0,0.0,0.0,0.0,0.0,0.0,0.0,-0.6814,-0.6485,-0.5366,-0.4515,0.0,0.0,-0.3355,-0.3152,-0.2161,0.0,0.0,0.0,0.0,0.0,0.0,0.0,0.0,0.0,0.0,0.0,0.0,0.0,0.0,0.0,0.0,0.0,0.0,0.0,0.0,0.0,0.0,0.0,0.0,0.0,0.0,0.0,0.0,0.0,0.0,0.0,0.0,0.0,0.0,0.0,0.0,0.0,0.0,0.0,0.0,0.0,0.0,0.0,0.0,0.0,0.0,0.0,0.0,0.0,0.0,0.0,0.0,0.0,0.0,0.0,-0.1859,-0.1291,-0.108,-0.078,0.0,0.0,0.0,0.0,0.0,0.0,0.0,0.0,0.0,0.0,0.0,0.0,0.0,0.0,0.0,0.0,0.0,0.0,0.0,0.0,0.0,0.0,0.0,0.0,0.0,0.0,0.0,0.0,0.0,0.0,0.0,0.0,0.0,0.0,0.0,0.0,0.0,0.0,0.0,0.0,0.0,0.0,0.0,0.0,0.0,0.0,0.0,0.0,-0.555,-0.4678,0.0,0.0,0.0,-0.3174,-0.2633,0.0,0.0,0.0,0.0,0.0,0.0,0.0,0.0,0.0,0.0,0.0,0.0,0.0,0.0,0.0,0.0,0.0,0.0,0.0,0.0,0.0,0.0,0.0,0.0,0.0,0.0,0.0,0.0,0.0,0.0,0.0,0.0,0.0,0.0,0.0,0.0,0.0,0.0,0.0,0.0,0.0,0.0,0.0,0.0,0.0,0.0,0.0,0.0,0.0,0.0,0.0,0.0,0.0,0.0,0.0,0.0,0.0,-0.1312,-0.0364,0.0,0.0,0.0,0.0,0.0,0.0,0.0,0.0,0.0,0.0,0.0,0.0,0.0,0.0,0.0,0.0,0.0,0.0,0.0,0.0,0.0,0.0,0.0,0.0,0.0,0.0,0.0,0.0,0.0,0.0,0.0,0.0,0.0,-0.2722,0.0,0.0,0.0,0.0,0.0,0.0,0.0,0.0,0.0,0.0,0.0,0.0,0.0,0.0,-0.5339,-0.4579,-0.3829,-0.2886,0.0,0.0,-0.2912,-0.2312,-0.1473,-0.0639,0.0,0.0,0.0,0.0,0.0,0.0,0.0,0.0,0.0,0.0,0.0,0.0,0.0,0.0,0.0,0.0,0.0,0.0,0.0,0.0,0.0,0.0,0.0,0.0,0.0,0.0,0.0,0.0,0.0,0.0,0.0,0.0,0.0,0.0,0.0,0.0,0.0,0.0,0.0,0.0,0.0,0.0,0.0,0.0,0.0,0.0,0.0,0.0,0.0,0.0,0.0,0.0,0.0,0.0,-0.1942,-0.2014,-0.0739,0.0,0.0,0.0,0.0,0.0,0.0,0.054,0.0,0.0,0.0,0.0,0.0,0.0,0.0,0.0,0.0,0.0,0.0,0.0,0.0,0.0,0.0,0.0,0.0,0.0,0.0,0.0,0.0,0.0,0.0,0.0,0.0,0.0,0.0,0.0,0.0,0.0,0.0,0.0,0.0,0.0,0.0,0.0,0.0,0.0,0.0,0.0,0.0,-0.4781,-0.3927,-0.2496,-0.1185,0.0,-0.1379,-0.2392,-0.2419,-0.1191,0.0,0.0,0.0,0.0,0.0,0.0,0.0,0.0,0.0,0.0,0.0,0.0,0.0,0.0,0.0,0.0,0.0,0.0,0.0,0.0,0.0,0.0,0.0,0.0,0.0,0.0,0.0,0.0,0.0,0.0,0.0,0.0,0.0,0.0,0.0,0.0,0.0,0.0,0.0,0.0,0.0,0.0,0.0,0.0,0.0,0.0,0.0,0.0,0.0,0.0,0.0,0.0,0.0,0.0,0.0,-0.1967,-0.2209,-0.0742,0.0,0.0,0.0,0.0,0.0,0.1177,0.2012,0.0,0.0,0.0,0.0,0.0,0.0,0.0,0.0,0.0,0.0,0.0,0.0,0.0,0.0,0.0,0.0,0.0,0.0,0.0,0.0,0.0,0.0,0.0,0.0,0.0,0.0,0.0,0.0,-0.2183,-0.2109,-0.1965,0.0,0.0,0.0,0.0,0.0,0.0,0.0,0.0,0.0,0.0,-0.3809,-0.3046,-0.2426,0.0,0.0,-0.0532,-0.0881,-0.0879,-0.0345,0.0,0.0,0.0,0.0,0.0,0.0,0.0,0.0,0.0,0.0,0.0,0.0,0.0,0.0,0.0,0.0,0.0,0.0,0.0,0.0,0.0,0.0,0.0,0.0,0.0,0.0,0.0,0.0,0.0,0.0,0.0,0.0,0.0,0.0,0.0,0.0,0.0,0.0,0.0,0.0,0.0,0.0,0.0,0.0,0.0,0.0,0.0,0.0,0.0,0.0,0.0,0.0,0.0,0.0,0.0,-0.1688,-0.1539,-0.0559,0.0,0.0,0.0,0.0211,0.1029,0.2182,0.2981,0.0,0.0,0.0,0.0,0.0,0.0,0.0,0.0,0.0,0.0,0.0,0.0,0.0,0.0,0.0,0.0,0.0,0.0,0.0,0.0,0.0,0.0,0.0,0.0,0.0,0.0,0.0,0.0,-0.1714,-0.1608,-0.1912,0.0,0.0,0.0,0.0,0.0,0.0,0.0,0.0,0.0,0.0,-0.3428,-0.26,-0.2136,-0.1447,-0.0182,0.0,0.0,0.0,0.0,0.0,0.0,0.0,0.0,0.0,0.0,0.0,0.0,0.0,0.0,0.0,0.0,0.0,0.0,0.0,0.0,0.0,0.0,0.0,0.0,0.0,0.0,0.0,0.0,0.0,0.0,0.0,0.0,0.0,-0.2155,0.0,0.0,-0.2063,0.0,0.0,0.0,0.0,0.0,0.0,0.0,0.0,0.0,0.0,0.0,0.0,0.0,0.0,0.0,0.0,0.0,0.0,0.0,0.0,0.0,0.0,-0.1249,-0.0,0.0,0.0,0.0,0.0,0.1057,0.2908,0.3006,0.3041,0.3001,0.0,0.0,0.0,0.0,0.0,0.0,0.0,0.0,0.0,0.0,0.0,0.0,0.0,0.0,0.0,0.0,0.0,0.0,0.0,0.0,0.0,0.0,0.0,0.0,0.0,0.0,-0.1641,-0.1177,-0.1279,0.0,0.0,0.0,0.0,0.0,0.0,0.0,0.0,0.0,-0.3404,-0.3897,-0.3866,-0.2634,-0.1079,0.0,0.0,0.0,0.0,0.0,0.0,0.0,0.0,0.0,0.0,0.0,0.0,0.0,0.0,0.0,0.0,0.0,0.0,0.0,0.0,0.0,0.0,0.0,0.0,0.0,0.0,0.0,0.0,0.0,0.0,0.0,0.0,0.0,0.0,-0.188,-0.1857,0.0,0.0,0.0,0.0,0.0,0.0,0.0,0.0,0.0,0.0,0.0,-0.175,-0.1474,0.0,0.0,0.0,0.0,0.0,0.0,0.0,0.0,0.0,0.0,0.0,0.0,-0.0476,0.0,0.0,0.0,0.0,0.1479,0.2544,0.3352,0.3254,0.3818,0.4977,0.0,0.0,0.0,0.0,0.0,0.0,0.0,0.0,0.0,0.0,0.0,0.0,0.0,0.0,0.0,0.0,0.0,0.0,0.0,0.0,0.0,0.0,0.0,0.0,0.0,-0.1426,0.0,0.0,0.0,0.0,0.0,0.0,0.0,0.0,0.0,0.0,0.0,-0.2941,-0.2538,-0.2726,-0.2885,-0.2639,-0.1087,0.0,0.0,0.0,0.0,0.0,0.0,0.0,0.0,0.0,0.0,0.0,0.0,0.0,0.0,0.0,0.0,0.0,0.0,0.0,0.0,0.0,0.0,0.0,0.0,0.0,0.0,0.0,0.0,0.0,0.0,0.0,0.0,0.0,0.0,-0.1396,-0.1506,-0.1468,0.0,0.0,0.0,0.0,0.0,0.0,0.0,0.0,-0.0712,-0.0736,-0.1207,-0.1203,-0.0902,0.0,-0.0443,-0.0563,0.0,0.0,0.0,0.0,0.0,0.0,0.0,0.0,0.0,0.0,0.0,0.0401,0.1245,0.3382,0.4672,0.4627,0.5072,0.571,0.6557,0.8353,0.835,0.0,0.0,0.0,0.0,0.0,0.0,0.0,0.0,0.0,0.0,0.0,0.0,0.0,0.0,0.0,0.0,0.0,0.0,0.0,0.0,0.0,0.0,0.0,-0.0753,0.0,0.0,0.0,0.0,0.0,0.0,0.0,0.0,0.0,-0.2735,-0.2629,-0.2356,-0.2172,-0.1808,-0.1547,-0.1761,0.0,0.0,0.0,0.0,0.0,0.0,0.0,0.1013,0.1002,0.1145,0.0964,0.0637,0.0474,0.0472,0.0472,0.0,0.0,0.0142,0.0,0.0,0.0,0.0,0.0,0.0,0.0581,0.1025,0.0,0.0,0.0,0.0,0.0,0.0,0.0,0.0,-0.087,-0.0878,0.0,-0.0983,0.0,0.0,0.0,0.0,-0.0749,-0.1206,0.0,0.0,-0.0471,0.0,0.0,0.0,0.0,0.0,0.0,0.0,0.0,0.0,0.0,0.0,0.0,0.0,0.0,0.0,0.0,0.0,0.0,0.1414,0.3531,0.5499,0.6799,0.7147,0.8382,0.89,0.8094,0.9889,0.9945,0.8211,0.7975,0.0,0.0,0.0,0.0,0.0,0.0,0.0,0.0,0.0,0.0,0.0,0.0,0.0,0.0,0.0,0.0,0.0,0.0,0.0,0.0,-0.0663,0.0,0.0,0.0,0.0,0.0,0.0,0.0,0.0,0.0,0.0,-0.2079,-0.2047,-0.1999,-0.2074,0.0,0.0,0.0,0.0,0.0,0.0,0.0,0.0,0.0,0.174,0.3102,0.3132,0.0,0.0,0.1858,0.1689,0.1691,0.169,0.1706,0.1346,0.0473,0.0,0.0,0.0,0.0,0.0,0.0,0.1606,0.2912,-0.0169,0.0,0.0,0.0,0.0,-0.0299,-0.0154,-0.0157,-0.016,-0.0321,-0.0315,-0.031,0.0,0.0,0.0,0.0,0.0,0.0,-0.0473,-0.0495,-0.0171,0.0,0.0,0.0,0.0,0.0,0.0,0.0,0.0,0.0,0.0,0.0,0.0,0.0,0.0,0.0,0.0862,0.2409,0.4088,0.5068,0.5866,0.4871,0.6782,1.1568,1.0349,0.9984,1.0968,1.2062,1.1938,1.0434,0.9677,0.0,0.0,0.0,0.0,0.0,0.0,0.0,0.0,0.0,0.0,0.0,0.0,0.0,0.0,0.0,0.0,0.0,0.0,0.0,-0.0546,-0.0138,0.0,0.0,0.0,0.0,0.0,0.0,0.0,0.0,0.0,0.0,-0.217,-0.2193,-0.1756,0.0,0.0,0.0,0.0,0.0,0.0,0.0,0.0,0.0,0.1989,0.2699,0.323,0.3237,0.3807,0.4195,0.383,0.385,0.3868,0.3868,0.3877,0.3677,0.3433,0.2087,0.119,0.1195,0.1198,0.1206,0.1226,0.1584,0.2473,0.0,0.0,0.0,0.0,0.0,0.0,0.0,0.0,0.0,0.0,0.0,0.0,0.0,0.0,0.0,0.0,0.0,0.0,0.0,0.0,0.0,0.0,0.0,0.0959,0.1348,0.1354,0.0952,0.0378,0.0,0.0,0.0353,0.1169,0.0,0.0,0.0,0.0,0.1076,0.3421,0.4745,0.5927,0.6728,0.6563,0.8889,1.3873,1.2303,1.1798,1.2687,1.3456,1.3224,1.2119,1.1302,1.0335,0.0,0.0,0.0,0.0,0.0,0.0,0.0,0.0,0.0,0.0,0.0,0.0,0.0,0.0,0.0,0.0,-0.0959,-0.071,-0.0,0.0,0.0,0.0,0.0,0.0,0.0,0.0,0.0,-0.2034,-0.1995,-0.2088,-0.2151,-0.1677,-0.1018,0.0,0.0,0.0,0.0,0.0,0.1296,0.1303,0.093,0.13,0.2786,0.353,0.3911,0.4502,0.4965,0.5413,0.5611,0.5442,0.5461,0.5461,0.5461,0.5461,0.5461,0.4355,0.3313,0.2921,0.2926,0.295,0.2998,0.3204,0.3981,0.0213,0.0,0.0,0.0,0.0,0.0,0.0,0.0,0.0,0.0,0.0,0.0,0.0,0.0,0.0,0.0,0.0346,0.0353,0.0,0.0187,0.0192,0.0,0.0395,0.241,0.3443,0.3441,0.2409,0.1399,0.0399,0.0,0.1161,0.3065,0.1244,0.0344,0.0175,0.0,0.1307,0.3495,0.342,0.4751,0.7369,0.9964,1.2711,1.5332,1.444,1.3966,1.3696,1.4165,1.3872,1.3077,1.2777,1.1987,1.0343,0.0,0.0,0.0,0.0,0.0,0.0,0.0,0.0,0.0,0.0,0.0,0.0,0.0,0.0,0.0143,0.015,0.0,0.0155,0.0155,0.0,0.0,0.0,0.0144,0.0144,-0.0443,-0.1211,-0.171,0.0,0.0,-0.2066,-0.0715,0.0182,0.0179,0.0181,0.0183,0.0183,0.1864,0.3205,0.3213,0.2475,0.2296,0.3446,0.4604,0.5413,0.6482,0.6797,0.6858,0.6861,0.6864,0.6869,0.6864,0.6872,0.6869,0.6872,0.6846,0.66,0.5409,0.5216,0.5065,0.5113,0.5945,0.6589,0.1587,0.1569,0.1531,0.084,0.0,0.0,0.0,0.0,0.0,0.0,0.0,0.0,0.0,0.0,0.0,0.0915,0.2607,0.2639,0.2503,0.2573,0.261,0.264,0.2664,0.3088,0.3919,0.4539,0.4324,0.3702,0.2671,0.1625,0.2018,0.3217,0.3509,0.284,0.1294,0.1311,0.2117,0.4199,0.3674,0.6262,1.1765,1.2859,1.4264,1.6152,1.5551,1.5271,1.5276,1.5116,1.4859,1.4123,1.3441,1.2701,1.1717,1.0179,0.0,0.0,0.0,0.0,0.0,0.0,0.0,0.0,0.0,0.1521,0.1074,0.0,0.1015,0.0,0.093,0.0952,0.0952,0.0952,0.0,0.0,0.1072,0.1076,0.1077,0.0317,-0.0327,-0.0506,-0.0524,-0.0539,-0.0551,0.1128,0.2478,0.2466,0.2458,0.246,0.2479,0.2107,0.2507,0.4081,0.4312,0.4534,0.5523,0.678,0.7666,0.7964,0.8621,0.9262,0.9262,0.9262,0.9262,0.9262,0.9262,0.9262,0.9262,0.9262,0.9034,0.8749,0.7493,0.648,0.6945,0.7175,0.76,0.3779,0.3737,0.4185,0.4082,0.3491,0.2149,0.1713,0.1721,0.1721,0.1704,0.1674,0.1441,0.1614,0.1575,0.1552,0.2136,0.3349,0.4357,0.4817,0.4906,0.5364,0.5609,0.5639,0.5869,0.63,0.6932,0.6717,0.6085,0.4826,0.3966,0.4157,0.5386,0.6155,0.5843,0.4326,0.3902,0.4341,0.5485,0.6449,0.9757,1.5295,1.507,1.535,1.6346,1.6134,1.585,1.5866,1.5499,1.5065,1.4536,1.3974,1.333,1.2411,1.1071,0.9623,0.0,0.0,0.0,0.0,0.0,0.0,0.0,0.0,0.0,0.0,0.0,0.245,0.2536,0.259,0.2624,0.2638,0.2639,0.2626,0.2753,0.2765,0.2787,0.2816,0.1871,0.1222,0.0713,0.0735,0.0753,0.0761,0.2131,0.3333,0.3921,0.4311,0.4497,0.4097,0.3726,0.4348,0.5367,0.5633,0.6083,0.7297,0.8811,0.9938,0.9987,1.0865,1.1521,1.1521,1.1517,1.1521,1.1521,1.1517,1.1521,1.1517,1.1517,1.1521,1.1512,1.0644,0.9577,0.8961,0.9199,0.9639,0.6309,0.6462,0.7651,0.8091,0.8016,0.5728,0.475,0.4515,0.451,0.4464,0.4379,0.4241,0.4159,0.412,0.4082,0.4084,0.432,0.618,0.7247,0.7304,0.8209,0.8878,0.9093,0.9371,0.9618,0.9405,0.9177,0.8322,0.726,0.6618,0.7019,0.8032,0.8864,0.8825,0.812,0.7522,0.7089,0.68,0.998,1.3605,1.7753,1.6836,1.6439,1.6547,1.6252,1.5944,1.5805,1.5384,1.495,1.4509,1.4204,1.3673,1.2919,1.1752,1.0526,0.0,0.8519,0.0,0.0,0.0,0.0,0.0,0.0,0.0,0.0,0.3848,0.4197,0.438,0.44,0.4425,0.4473,0.4478,0.4478,0.4657,0.4661,0.4703,0.462,0.399,0.295,0.2049,0.1912,0.1947,0.2147,0.297,0.4004,0.5011,0.6042,0.6238,0.5571,0.6009,0.6466,0.6884,0.719,0.7876,0.8932,1.0661,1.2181,1.2196,1.288,1.3802,1.3785,1.3791,1.3797,1.3797,1.3785,1.3791,1.3802,1.3797,1.3797,1.3785,1.3564,1.2906,1.1373,1.1405,1.2103,0.9134,0.9296,0.9481,0.9655,1.0058,1.0235,0.9669,0.8633,0.8345,0.8214,0.803,0.7867,0.7975,0.7693,0.784,0.7818,0.8253,0.8734,0.9192,0.9626,1.014,1.0616,1.1478,1.1712,1.1717,1.1717,1.1717,1.1064,0.9987,0.9767,0.9547,0.9316,0.9472,0.9858,1.0687,0.0,0.0,0.0,1.1214,1.4839,1.7806,1.7453,1.6962,1.6547,1.6042,0.0,1.552,1.5181,1.4801,1.436,1.4048,0.0,0.0,0.0,0.0,0.0,0.0,0.0,0.0,0.0,0.0,0.0,0.8306,0.6866,0.5352,0.5142,0.5203,0.534,0.5398,0.5449,0.5504,0.5509,0.5706,0.5755,0.5801,0.5861,0.5935,0.5101,0.4414,0.3876,0.4152,0.4421,0.4451,0.5319,0.6175,0.6375,0.7417,0.7825,0.7796,0.7559,0.7566,0.8033,0.9569,1.0909,1.1195,1.2696,1.3758,1.3985,1.4417,1.4862,1.5072,1.5072,1.5072,1.5072,1.5072,1.5078,1.5078,1.5072,1.509,1.5072,1.5078,1.4639,1.3774,1.3785,1.4013,1.2279,1.2682,1.2341,1.2522,0.0,1.3396,1.3322,1.2505,1.1882,1.1225,1.1008,1.1053,1.0895,1.0761,1.0674,1.0607,1.0776,1.1254,1.1487,1.1699,1.2187,1.2649,1.3083,1.3511,1.3517,1.3517,1.395,1.3517,1.2649,1.2645,1.2452,1.2064,1.2235,1.2674,1.3378,1.376,1.2379,0.9064,1.3078,1.6039,1.7882,1.7731,1.7209,1.6554,1.6048,0.0,0.0,0.0,0.0,0.0,0.0,0.0,0.0,1.3138,0.0,1.2357,1.1631,1.1103,1.0935,1.0941,1.1329,1.1788,1.097,0.9431,0.7211,0.7091,0.7122,0.7275,0.7356,0.7432,0.7506,0.7548,0.7603,0.768,0.7722,0.7778,0.767,0.7025,0.6525,0.6167,0.5866,0.5947,0.6178,0.7029,0.7673,0.8083,0.9117,0.9959,0.9991,0.976,0.9971,1.0887,1.1987,1.3101,1.3153,1.4224,1.5283,1.5283,1.571,1.6131,1.6131,1.6131,1.615,1.6215,1.6234,1.6247,1.6324,1.6344,1.6337,1.6337,1.6337,1.6337,1.5905,1.5642,1.5387,1.522,1.5613,1.5503,1.5703,1.5698,1.6093,1.6283,1.6244,1.4546,0.0,0.0,1.3428,1.3231,1.3029,1.2935,1.3052,1.2952,1.3404,1.3622,1.3819,1.4288,1.4736,1.4736,1.5178,1.5397,1.5615,1.6057,1.5833,1.5397,1.5397,1.5225,1.4658,1.5104,1.5383,1.5706,1.6163,1.5372,1.2962,1.5018,1.6846,1.7964,1.7813,1.7504,1.6621,1.6333,1.5904,1.5513,1.5208,1.4855,1.4441,1.4272,1.4136,1.4007,1.3654,1.348,1.348,1.3133,1.2612,1.2277,1.2637,1.301,1.3391,1.3084,1.1849,0.949,0.9387,0.9348,0.9543,0.9631,0.9715,0.9624,0.991,1.0011,1.0109,1.0131,1.0184,1.0084,0.9228,0.8709,0.8727,0.802,0.7481,0.7896,0.8736,0.9154,0.9776,1.1037,1.23,1.238,1.24,1.242,1.3548,1.4201,1.4645,1.4856,1.5493,1.6131,1.6131,1.6558,1.6978,1.6978,1.6998,1.7066,1.7161,1.7209,1.7277,1.7385,1.7399,1.7419,1.7419,1.7419,1.7419,1.7412,1.6922,1.6635,1.7886,1.7762,1.7631,1.8069,1.8567,1.8542,1.8968,1.9078,1.6369,1.5103,1.4788,1.4756,1.4611,1.4619,1.4376,1.4757,1.5094,1.5191,1.586,1.6658,1.6777,1.7285,1.7742,1.7742,1.7742,1.7742,1.796,1.7517,1.7059,1.7053,1.684,1.6169,1.6175,1.6646,1.7117,1.7802,1.7782,1.7278,1.7182,1.7353,1.78,1.788,1.7582,1.6929,1.6627,1.6199,1.5811,1.5506,1.5201,1.4896,1.4733,1.4638,1.4618,1.443,1.443,1.443,1.4068,1.3939,1.4238,1.4068,1.4126,1.4434,1.4403,1.4145,1.3412,1.2369,1.1791,1.2021,1.1878,1.2122,1.2047,1.2168,1.2279,1.2389,1.2495,1.26,1.269,1.172,1.1129,1.1134,1.0203,0.9643,0.9856,1.0744,1.1414,1.1634,1.287,1.4383,1.4814,1.4622,1.4417,1.4856,1.5493,1.592,1.592,1.6341,1.6768,1.6768,1.6978,1.6985,1.6998,1.708,1.7161,1.7202,1.7311,1.7399,1.7439,1.7419,1.7446,1.7453,1.7453,1.7446,1.746,1.7304,1.7324,1.9979,1.9638,1.9425,1.9581,1.9819,1.9667,1.9809,1.999,1.8618,1.7841,1.7476,1.7457,1.7265,1.6955,1.6943,1.706,1.7085,1.7149,1.7369,1.7768,1.7835,1.8088,1.8321,1.8321,1.8321,1.8321,1.8321,1.8094,1.7861,1.7861,1.7673,1.7517,1.7672,1.802,1.8324,1.8563,1.8796,1.855,1.7954,1.7987,1.8445,1.8063,1.7812,1.7453,1.7222,1.6829,1.6239,1.6008,1.5757,1.5459,1.5309,1.5194,1.5113,1.5181,1.5194,1.5113,1.4993,1.5066,1.5133,1.5411,1.5328,1.5268,1.5413,1.5622,1.5435,1.4155,1.3386,1.3509,1.3632,1.3743,1.3807,1.393,1.403,1.4083,1.4147,1.4206,1.4059,1.3509,1.3134,1.3139,1.2395,1.204,1.246,1.2927,1.3375,1.3802,1.4645,1.571,1.6348,1.6131,1.592,1.6137,1.6348,1.6558,1.6558,1.6768,1.6978,1.6978,1.6978,1.7012,1.7073,1.7161,1.7256,1.7405,1.75,1.7575,1.7629,1.7663,1.7663,1.7663,1.7656,1.7663,1.7677,1.7779,1.7853,2.1082,2.1021,2.0756,2.0648,2.0621,2.0363,2.0234,2.02,2.0166,1.9936,1.9603,1.9515,1.925,1.8884,1.8864,1.8735,1.8538,1.8518,1.8525,1.8518,1.8518,1.8518,1.8518,1.8518,1.8518,1.8518,1.8518,1.8518,1.8518,1.8518,1.8572,1.8694,1.8918,1.9094,1.9196,1.9203,1.9196,1.8925,1.8749,1.872,1.8886,1.8274,1.805,1.7992,1.782,1.727,1.6754,1.6585,1.6368,1.6076,1.5947,1.5818,1.5683,1.5771,1.5784,1.5689,1.5771,1.5839,1.5845,1.6342,1.646,1.5957,1.6085,1.6361,1.655,1.5583,1.485,1.485,1.5001,1.5126,1.5139,1.5252,1.5346,1.5346,1.5377,1.5402,1.5409,1.5075,1.4719,1.4731,1.4173,1.4224,1.4434,1.4651,1.5072,1.5493,1.6131,1.6558,1.6978,1.6978,1.6978,1.6978,1.6978,1.6978,1.6978,1.6978,1.6978,1.6978,1.7012,1.7073,1.7168,1.7229,1.7365,1.7582,1.767,1.7724,1.7833,1.7853,1.784,1.7833,1.7826,1.784,1.784,1.7962,1.807,2.1319,2.1177,2.1028,2.096,2.0926,2.077,2.0621,2.0485,2.037,2.0214,2.001,1.9759,1.9474,1.9189,1.9169,1.9142,1.9101,1.9115,1.9108,1.9094,1.9122,1.9122,1.9088,1.9101,1.9122,1.9101,1.9088,1.9067,1.9067,1.9088,1.9115,1.9142,1.9169,1.9189,1.921,1.921,1.921,1.9203,1.9149,1.8993,1.8735,1.8802,1.8816,1.8755,1.8136,1.767,1.7344,1.7188,1.6971,1.67,1.6653,1.6571,1.6429,1.6429,1.6429,1.6402,1.6422,1.6442,1.6435,1.6666,1.6877,1.6476,1.6497,1.6721,1.6939,1.6605,1.64,1.6299,1.6279,1.6306,1.6306,1.644,1.652,1.632,1.6627,1.6728,1.6714,1.6315,1.5901,1.5901,1.5487,1.5283,1.5283,1.5704,1.6131,1.6558,1.6768,1.6768,1.6978,1.6978,1.6978,1.6978,1.6978,1.6978,1.6978,1.6978,1.6985,1.6998,1.7093,1.7175,1.7256,1.7426,1.7629,1.7656,1.7751,1.7833,1.7846,1.786,1.786,1.786,1.786,1.786,1.788,1.7996,1.8091,2.1618,2.1475,2.1326,2.1157,2.1001,2.0933,2.0817,2.0675,2.0621,2.0458,2.0234,2.0105,1.9888,1.9603,1.9596,1.9508,1.9345,1.9339,1.9284,1.921,1.9203,1.9203,1.9203,1.9203,1.9203,1.9203,1.9203,1.9203,1.9203,1.9203,1.9244,1.9325,1.9339,1.9379,1.9468,1.9474,1.9474,1.9468,1.9386,1.9278,1.9392,1.8925,1.8708,1.8733,1.8568,1.8349,1.7846,1.7758,1.7582,1.7311,1.7283,1.7134,1.6809,1.6795,1.6707,1.6544,1.6517,1.6564,1.6653,1.6865,1.6913,1.6788,1.6795,1.6795,1.701,1.6856,1.6856,1.6809,1.6788,1.6788,1.6795,1.6849,1.689,1.6897,1.6944,1.6978,1.6978,1.6768,1.6558,1.6558,1.6348,1.6348,1.6341,1.6551,1.6768,1.6978,1.6978,1.6978,1.6978,1.6978,1.6978,1.6978,1.6978,1.6978,1.6978,1.6978,1.7012,1.7087,1.7148,1.7216,1.7426,1.7534,1.767,1.7745,1.7806,1.7846,1.786,1.786,1.786,1.786,1.786,1.786,1.786,1.8057,1.8192,2.1923,2.1774,2.1584,2.1353,2.1123,2.1075,2.0994,2.0892,2.0851,2.0709,2.0526,2.0512,2.0397,2.018,2.0017,1.9813,1.963,1.961,1.9556,1.9454,1.9447,1.9454,1.9447,1.94,1.9386,1.9379,1.9352,1.9332,1.9325,1.9325,1.9386,1.9481,1.9495,1.9549,1.9651,1.9664,1.9664,1.9651,1.9549,1.9495,1.9701,1.9244,1.904,1.8884,1.8974,1.8774,1.8287,1.8233,1.8077,1.7785,1.7731,1.7541,1.7195,1.7127,1.6998,1.6802,1.6768,1.6815,1.6924,1.6937,1.6985,1.708,1.71,1.71,1.71,1.71,1.71,1.71,1.7066,1.7026,1.6985,1.6978,1.6978,1.6978,1.6978,1.6992,1.7032,1.7039,1.706,1.7087,1.708,1.7019,1.6992,1.6978,1.6978,1.6978,1.6978,1.6978,1.6978,1.6978,1.6978,1.6978,1.6978,1.6978,1.6978,1.6978,1.7039,1.71,1.7148,1.7263,1.7494,1.7534,1.7589,1.7616,1.7731,1.7799,1.7785,1.7799,1.7867,1.7867,1.7867,1.7894,1.7941,1.8152,1.8301,2.2235,2.2052,2.1781,2.1557,2.1414,2.1265,2.1197,2.1157,2.1048,2.0973,2.0939,2.0946,2.0953,2.0865,2.0363,2.0092,2.0064,2.0058,2.0037,2.001,2.0017,2.0051,2.0051,1.9915,1.9834,1.9793,1.9691,1.9637,1.9637,1.9644,1.9644,1.9657,1.9664,1.9657,1.9671,1.9678,1.9664,1.9657,1.9644,1.9644,1.963,1.9729,1.9571,1.9189,1.9283,1.9125,1.8735,1.8586,1.8375,1.8084,1.7955,1.7785,1.7616,1.7467,1.7365,1.7351,1.7136,1.7136,1.7358,1.7351,1.7358,1.7163,1.7143,1.7385,1.7358,1.7358,1.7358,1.7385,1.7249,1.7134,1.7032,1.7019,1.6998,1.6998,1.6998,1.706,1.7168,1.7182,1.7256,1.7324,1.7243,1.7127,1.7005,1.6978,1.6978,1.6978,1.6978,1.6978,1.6978,1.6978,1.6978,1.6978,1.6978,1.6978,1.6978,1.6978,1.6985,1.7053,1.7154,1.7216,1.7256,1.7317,1.7405,1.7494,1.7616,1.7684,1.769,1.7745,1.7846,1.788,1.7894,1.7928,1.8063,1.8206,1.8342,2.233,2.2086,2.1794,2.1638,2.1577,2.1421,2.1306,2.1211,2.1163,2.1082,2.1014,2.1001,2.1001,2.0987,2.0777,2.0566,2.039,2.0383,2.0282,2.0119,2.0098,2.0098,2.0092,2.0044,2.0024,2.001,1.9969,1.9942,1.9942,1.9942,1.9942,1.9942,1.9942,1.9902,1.9813,1.98,1.9759,1.9671,1.9664,1.9664,1.9664,1.961,1.9549,1.9488,1.9502,1.9344,1.9047,1.8905,1.8728,1.8525,1.8369,1.8138,1.7806,1.7555,1.7419,1.7419,1.7197,1.7197,1.7419,1.7641,1.7641,1.7419,1.7419,1.7439,1.7641,1.7419,1.7419,1.7412,1.7385,1.7311,1.7263,1.7175,1.7121,1.7127,1.7202,1.727,1.7324,1.7338,1.7365,1.7385,1.729,1.7168,1.7127,1.7039,1.6985,1.6978,1.6978,1.6992,1.6985,1.6978,1.6998,1.6985,1.6978,1.6978,1.6978,1.6978,1.6998,1.7093,1.7182,1.7263,1.7317,1.7351,1.7433,1.7528,1.7609,1.7697,1.7751,1.7819,1.8129,1.8225,1.8232,1.8294,1.8213,1.8788,1.8893,2.2411,2.2167,2.1916,2.1781,2.1726,2.1631,2.1523,2.1428,2.138,2.1306,2.1224,2.1163,2.1143,2.1143,2.1136,2.1007,2.077,2.0709,2.058,2.0404,2.039,2.037,2.0315,2.0268,2.022,2.0173,2.0119,2.0098,2.0098,2.0098,2.0098,2.0098,2.0098,2.0051,1.9963,1.9942,1.9895,1.9807,1.9759,1.9732,1.9725,1.9685,1.9664,1.9637,1.9701,1.9571,1.9284,1.9183,1.9033,1.885,1.8687,1.8423,1.8036,1.7819,1.7711,1.7711,1.7711,1.7492,1.7711,1.7937,1.7944,1.7711,1.7711,1.7697,1.7875,1.7636,1.7616,1.7575,1.7514,1.7494,1.7473,1.7399,1.7324,1.729,1.7358,1.7439,1.7487,1.7494,1.7494,1.7487,1.7426,1.7338,1.7263,1.7182,1.7141,1.7121,1.7121,1.7121,1.7121,1.7121,1.7127,1.7121,1.7141,1.7148,1.7161,1.7182,1.7121,1.7182,1.7249,1.7331,1.7365,1.7399,1.7453,1.7555,1.7656,1.7751,1.784,1.8129,1.8232,1.8356,1.8846,1.9113,1.9241,1.9362,1.9691,2.2479,2.2337,2.2174,2.2025,2.1909,2.1862,2.1862,2.1808,2.1706,2.1638,2.1597,2.1502,2.1441,2.1441,2.1441,2.1353,2.1218,2.1102,2.0994,2.0919,2.0926,2.0858,2.0736,2.06,2.0485,2.0376,2.0207,2.0146,2.0187,2.02,2.0187,2.0139,2.0166,2.0159,2.0105,2.0105,2.0092,1.9789,1.9929,1.9875,1.9608,1.9746,1.9685,1.9678,1.9644,1.9805,1.9681,1.942,1.9271,1.9027,1.885,1.8626,1.8355,1.826,1.828,1.824,1.8048,1.8061,1.8274,1.8253,1.8219,1.7987,1.8041,1.8172,1.8057,1.8043,1.7996,1.788,1.7765,1.7684,1.769,1.7684,1.7602,1.7453,1.746,1.7528,1.7616,1.765,1.765,1.7643,1.7616,1.7575,1.7467,1.7378,1.7358,1.7358,1.7365,1.7358,1.7351,1.7344,1.7392,1.7392,1.7344,1.7311,1.7365,1.7405,1.7324,1.7277,1.7338,1.7405,1.7399,1.7419,1.7453,1.7548,1.795,1.806,1.8628,1.8712,1.9056,1.9163,1.9658,1.9957,2.0083,2.0208,2.0504,2.2784,2.2615,2.2371,2.2242,2.2167,2.1977,2.1882,2.1882,2.1835,2.1821,2.1808,2.1767,2.1747,2.1747,2.1747,2.172,2.1672,2.1618,2.1394,2.1075,2.1014,2.0994,2.0939,2.0885,2.0838,2.079,2.0743,2.0716,2.0702,2.0709,2.0675,2.058,2.056,2.0451,2.0275,2.0254,2.0214,2.0105,2.0051,2.0031,1.9763,1.9629,1.9807,1.9793,1.9712,1.9637,1.959,1.9488,1.9386,1.9523,1.9054,1.8782,1.8518,1.8375,1.8321,1.8314,1.8314,1.8088,1.8321,1.8555,1.8562,1.8321,1.8321,1.8308,1.8493,1.8253,1.8226,1.8179,1.8131,1.8111,1.8111,1.8111,1.7948,1.7616,1.7663,1.7738,1.7792,1.7806,1.7792,1.7779,1.7711,1.7629,1.7575,1.7521,1.7473,1.7467,1.746,1.746,1.7446,1.7487,1.7419,1.7419,1.7419,1.7717,1.7779,1.8072,1.8051,1.7744,1.7751,1.7738,1.771,1.7744,1.7758,1.7854,1.8253,1.8621,1.9194,1.9534,1.9884,1.9994,2.0281,2.0385,2.0504,2.0825,2.1125,2.3035,2.2913,2.2628,2.2506,2.2486,2.2289,2.2215,2.2208,2.2154,2.2133,2.2127,2.2072,2.2052,2.2052,2.2052,2.2052,2.2045,2.1998,2.1767,2.1441,2.134,2.1306,2.1231,2.1123,2.1041,2.1007,2.1001,2.1001,2.1001,2.1001,2.0946,2.0865,2.0851,2.0736,2.0512,2.0492,2.0417,2.0282,2.0214,2.018,1.989,1.9976,1.9868,1.9847,1.9732,1.9671,1.9657,1.9563,1.9495,1.964,1.9156,1.8877,1.8633,1.8538,1.8484,1.8484,1.8484,1.8491,1.8484,1.8733,1.872,1.8484,1.8484,1.8457,1.8658,1.863,1.8382,1.8328,1.8301,1.8321,1.8314,1.8314,1.8179,1.7941,1.7982,1.803,1.803,1.803,1.8036,1.8023,1.7968,1.7907,1.7867,1.7833,1.7758,1.7751,1.7751,1.7758,1.7758,1.7992,1.7957,1.8177,1.8473,1.8729,1.8459,1.8501,1.8565,1.8494,1.8417,1.8142,1.8093,1.8622,1.8672,1.9036,1.9201,1.9527,1.9876,2.0388,2.0713,2.0812,2.0926,2.1248,2.158,2.1898,2.221,2.3239,2.3198,2.2927,2.2791,2.2784,2.2737,2.271,2.2723,2.2608,2.2534,2.2513,2.2411,2.2364,2.2364,2.2364,2.2364,2.2344,2.2249,2.2181,2.2086,2.1984,2.1848,2.1625,2.1408,2.1258,2.1143,2.1102,2.1075,2.1116,2.1089,2.1021,2.1014,2.1001,2.0933,2.0783,2.077,2.0668,2.0532,2.0404,2.0343,2.0329,2.0326,1.9929,1.9669,1.98,1.9725,1.9725,1.9719,1.9617,1.9674,1.9183,1.8986,1.883,1.8789,1.8789,1.8782,1.8782,1.8789,1.8789,1.8789,1.8789,1.8789,1.8782,1.8728,1.8871,1.8633,1.8593,1.8484,1.8457,1.843,1.8437,1.8443,1.8416,1.8375,1.8314,1.828,1.8308,1.8294,1.8267,1.828,1.8308,1.8308,1.8253,1.824,1.8465,1.8465,1.8452,1.8424,1.8649,1.8832,1.9163,1.936,1.9483,1.9454,1.9374,1.9381,1.9439,1.9403,1.9108,1.905,1.8772,1.9301,1.9582,1.996,2.0102,2.0214,2.0516,2.101,2.1346,2.1494,2.1819,2.2346,2.2675,2.3015,2.3105,2.349,2.3368,2.3185,2.3042,2.294,2.2839,2.2784,2.2778,2.2744,2.273,2.271,2.2683,2.2669,2.2669,2.2669,2.2662,2.2649,2.2615,2.2608,2.2601,2.2574,2.2255,2.1903,2.1753,2.1672,2.1618,2.1502,2.1496,2.1482,2.136,2.1265,2.1157,2.1157,2.1082,2.0953,2.0838,2.0756,2.0432,2.056,2.0492,2.0458,2.0315,2.022,1.9937,2.0051,1.9976,1.9729,1.9983,1.98,1.9468,1.9373,1.9244,1.9088,1.9067,1.9061,1.9061,1.9067,1.9081,1.9074,1.9074,1.9081,1.9088,1.9054,1.9074,1.9276,1.9027,1.9,1.8972,1.8972,1.8952,1.8959,1.8945,1.8945,1.8911,1.8613,1.8369,1.8362,1.8321,1.8321,1.8321,1.8342,1.8355,1.8589,1.8802,1.9022,1.9022,1.9249,1.9702,1.9504,1.9731,1.9979,1.9921,2.0072,2.0087,2.0087,2.0087,2.0087,2.0072,2.0035,2.0245,1.9975,2.0005,2.026,2.0545,2.0925,2.104,2.1552,2.2049,2.2217,2.237,2.29,2.3415,2.3834,2.3969,2.4282,2.3714,2.3619,2.3476,2.3327,2.3198,2.3097,2.3029,2.2974,2.2968,2.2968,2.2968,2.2968,2.2968,2.2968,2.2968,2.2968,2.2961,2.2907,2.2873,2.2852,2.2723,2.2439,2.2133,2.2025,2.195,2.1882,2.1801,2.1726,2.1658,2.1577,2.1462,2.1333,2.1306,2.1231,2.1095,2.1007,2.0919,2.06,2.0513,2.0709,2.0627,2.0492,2.0383,2.0315,2.0187,2.0098,1.9843,2.0098,1.9922,1.9617,1.9515,1.9427,1.9223,1.9203,1.9203,1.9203,1.9203,1.9196,1.9203,1.9441,1.9441,1.9203,1.9203,1.9203,1.9427,1.9203,1.9203,1.9183,1.9203,1.9203,1.9203,1.9203,1.9203,1.9135,1.8891,1.8694,1.8687,1.8715,1.8694,1.8681,1.8871,1.9059,1.9052,1.9455,1.9648,1.9876,2.0127,2.0127,2.0348,2.0554,2.0789,2.0789,2.101,2.1276,2.1292,2.1292,2.152,2.1261,2.1481,2.1457,2.141,2.1175,2.1183,2.1677,2.178,2.1868,2.2383,2.2917,2.3264,2.339,2.3932,2.4311,2.4728,2.5078,2.5413,2.3904,2.3883,2.3754,2.3619,2.3476,2.3449,2.3334,2.3253,2.3198,2.3198,2.3191,2.3212,2.3178,2.3219,2.3164,2.3205,2.3198,2.3076,2.3042,2.294,2.2771,2.2513,2.2391,2.2201,2.2086,2.1984,2.193,2.1848,2.1774,2.172,2.1625,2.1536,2.1502,2.1408,2.1306,2.1245,2.0888,2.0767,2.0707,2.0892,2.054,2.0675,2.0325,2.0485,2.0376,2.0302,2.0268,2.0471,2.0326,1.978,1.9732,1.9596,1.9359,1.9318,1.9325,1.9359,1.9393,1.9373,1.9325,1.9386,1.9585,1.9612,1.9359,1.9298,1.9373,1.94,1.9386,1.9359,1.9278,1.9318,1.9291,1.9271,1.9291,1.9291,1.9237,1.9244,1.9244,1.9223,1.9203,1.9434,1.9775,1.996,2.0145,2.0299,2.0661,2.09,2.1125,2.1356,2.1356,2.1588,2.1596,2.1596,2.2058,2.2521,2.276,2.276,2.276,2.2752,2.2752,2.295,2.2613,2.2588,2.2596,2.2637,2.2925,2.3214,2.3504,2.3821,2.4139,2.4485,2.4615,2.4999,2.5386,2.5915,2.6483,2.4005,2.389,2.3863,2.3768,2.3626,2.3503,2.3429,2.3381,2.3266,2.3219,2.3219,2.3219,2.3219,2.3219,2.3219,2.3219,2.3219,2.3178,2.3171,2.3137,2.2873,2.2737,2.2628,2.2425,2.2283,2.2201,2.2106,2.2045,2.1991,2.1882,2.1821,2.1781,2.1733,2.1713,2.157,2.1448,2.1319,2.1177,2.1075,2.1021,2.0987,2.066,2.06,2.0811,2.052,2.0533,2.0777,2.0689,2.0539,2.0349,2.0146,1.999,1.9875,1.9854,1.9841,1.9841,1.9868,1.9881,1.9895,1.9854,1.9895,1.9847,1.9827,1.9908,1.9908,1.9868,1.982,1.9766,1.9725,1.9657,1.9576,1.9563,1.9563,1.9805,2.0039,2.0281,2.0246,2.007,2.0195,2.0634,2.0842,2.0805,2.0805,2.1483,2.168,2.1703,2.2166,2.2401,2.2385,2.2595,2.2571,2.2765,2.3006,2.3448,2.3681,2.3673,2.3673,2.3673,2.3923,2.4165,2.3821,2.3744,2.3727,2.3761,2.4053,2.4345,2.4389,2.4736,2.5058,2.5191,2.5534,2.6135,2.6712,2.7254,2.755,2.4073,2.3992,2.3924,2.3809,2.3666,2.3517,2.3409,2.3341,2.3259,2.3219,2.3219,2.3219,2.3219,2.3219,2.3219,2.3219,2.3219,2.3219,2.3178,2.3103,2.294,2.2852,2.2771,2.2622,2.2493,2.2357,2.2262,2.2194,2.2106,2.2038,2.195,2.1889,2.1889,2.1835,2.1781,2.1686,2.1625,2.153,2.1387,2.1285,2.1224,2.1136,2.1048,2.1021,2.1001,2.1001,2.0973,2.0919,2.0838,2.0736,2.0594,2.037,2.0146,2.0105,2.0105,2.0098,2.0098,2.0098,2.0092,2.0098,2.0085,2.0112,2.0098,2.0098,2.0098,2.0098,2.0071,2.0003,1.9969,1.9942,1.9881,2.0359,2.0359,2.0359,2.0843,2.1334,2.1527,2.1291,2.0853,2.1309,2.1503,2.1704,2.1919,2.2402,2.2552,2.2504,2.296,2.3431,2.3414,2.3633,2.3876,2.4102,2.4128,2.4363,2.4363,2.458,2.4563,2.4554,2.4545,2.478,2.4969,2.4674,2.4622,2.4907,2.4952,2.4969,2.5032,2.5382,2.6197,2.6744,2.7321,2.7711,2.8037,2.8295,2.8612,2.4073,2.4046,2.391,2.3788,2.3666,2.3517,2.3381,2.328,2.3232,2.3219,2.3219,2.3219,2.3219,2.3219,2.3219,2.3219,2.3219,2.3219,2.3171,2.3083,2.3022,2.2934,2.2839,2.2757,2.2642,2.2418,2.2425,2.235,2.2242,2.2167,2.2133,2.2263,2.2235,2.2507,2.2201,2.2187,2.241,2.2064,2.1686,2.1878,2.2048,2.1665,2.1556,2.2033,2.1425,2.1425,2.1666,2.161,2.1288,2.1295,2.1014,2.0729,2.0404,2.0241,2.0241,2.0261,2.0315,2.0336,2.0356,2.0302,2.0288,2.0214,2.0214,2.02,2.02,2.02,2.018,2.0139,2.0361,2.032,2.0347,2.0802,2.1057,2.1319,2.1822,2.258,2.2774,2.2313,2.2184,2.2138,2.2569,2.2756,2.2894,2.3317,2.3187,2.3555,2.4028,2.4265,2.4501,2.4501,2.4789,2.5052,2.5087,2.5579,2.5579,2.6025,2.5998,2.5971,2.5699,2.5925,2.6405,2.665,2.6378,2.5834,2.5861,2.588,2.6415,2.7018,2.7577,2.8326,2.8395,2.8772,2.906,2.9329,2.9701,2.3863,2.3748,2.3727,2.37,2.366,2.3517,2.3422,2.3395,2.3266,2.3219,2.3219,2.3219,2.3219,2.3219,2.3219,2.3219,2.3219,2.3219,2.3205,2.3151,2.3083,2.2995,2.2968,2.2879,2.2778,2.273,2.2703,2.2622,2.25,2.2472,2.2938,2.3102,2.3074,2.3306,2.3767,2.3981,2.34,2.3043,2.2396,2.261,2.3403,2.2518,2.2469,2.3235,2.2594,2.2286,2.2781,2.2082,2.1687,2.1948,2.1322,2.0967,2.0878,2.0851,2.0831,2.077,2.0763,2.0736,2.075,2.0804,2.0763,2.0702,2.0634,2.0566,2.0505,2.0465,2.0431,2.058,2.0728,2.0879,2.0844,2.1683,2.1866,2.2107,2.2633,2.3122,2.3338,2.3538,2.3729,2.3721,2.3918,2.3837,2.4177,2.4319,2.4502,2.4666,2.4889,2.5129,2.5368,2.5351,2.559,2.5848,2.5866,2.6345,2.7062,2.7511,2.7731,2.7692,2.7663,2.7891,2.8386,2.8692,2.8425,2.7548,2.7264,2.7538,2.8099,2.8672,2.8732,2.899,2.9289,2.9599,3.019,3.0785,3.1371,2.3849,2.3775,2.3632,2.3558,2.3537,2.3395,2.3334,2.332,2.3253,2.3219,2.3219,2.3219,2.3219,2.3219,2.3219,2.3219,2.3219,2.3219,2.3219,2.3198,2.3158,2.3124,2.3117,2.3029,2.3307,2.3577,2.3571,2.3445,2.3251,2.323,2.374,2.4255,2.4226,2.446,2.4663,2.4596,2.4507,2.4114,2.3709,2.3614,2.445,2.3271,2.3775,2.4584,2.4539,2.4209,2.362,2.4371,2.3709,2.3155,2.2831,2.2523,2.2502,2.2209,2.184,2.135,2.1021,2.1014,2.1007,2.1001,2.0946,2.0906,2.0892,2.0858,2.054,2.0763,2.0979,2.1435,2.1902,2.2077,2.2106,2.2815,2.3053,2.3236,2.3716,2.4171,2.4365,2.4598,2.5089,2.5056,2.488,2.5009,2.5187,2.5363,2.5599,2.5808,2.5998,2.6215,2.6449,2.6636,2.6814,2.7037,2.7259,2.7702,2.8192,2.8432,2.8921,2.9151,2.937,2.9609,2.9578,2.9838,2.9766,2.9147,2.9158,2.9228,2.9198,2.9238,2.9578,3.0149,3.0679,3.1233,3.1634,3.2257,3.2597,2.3877,2.3829,2.3598,2.3497,2.3476,2.3368,2.332,2.3314,2.3327,2.3307,2.3266,2.3266,2.3253,2.3225,2.3219,2.3219,2.3219,2.3219,2.3219,2.3219,2.3212,2.3219,2.3506,2.3513,2.3765,2.4603,2.4618,2.4517,2.4286,2.4236,2.4496,2.4991,2.5287,2.5302,2.5522,2.5686,2.54,2.5308,2.5156,2.4996,2.4912,2.4821,2.5279,2.6649,2.6633,2.5765,2.4908,2.5401,2.5108,2.4546,2.4,2.4015,2.4037,2.3505,2.273,2.1798,2.1425,2.1129,2.1102,2.137,2.1377,2.1308,2.1302,2.1014,2.0967,2.1192,2.1744,2.2291,2.2773,2.3252,2.3207,2.3798,2.4251,2.4429,2.4884,2.5378,2.577,2.5972,2.6225,2.6356,2.6104,2.6221,2.6406,2.6327,2.6537,2.7164,2.7352,2.7849,2.783,2.8279,2.8473,2.8686,2.8879,2.905,2.9281,2.9552,2.9813,2.9833,3.0314,3.0785,3.0743,3.07,3.0637,3.0866,3.0908,3.095,3.0627,3.0357,3.1243,3.1831,3.2322,3.2662,3.2861,3.3215,3.3548,2.3816,2.3707,2.3673,2.3653,2.3646,2.3619,2.3619,2.3612,2.3598,2.3544,2.3422,2.3415,2.3354,2.328,2.3253,2.3239,2.3239,2.3259,2.3273,2.328,2.3273,2.3849,2.4108,2.4374,2.4711,2.53,2.5565,2.5416,2.5312,2.5275,2.5453,2.5933,2.6206,2.644,2.6776,2.7,2.696,2.6952,2.6609,2.6505,2.6386,2.633,2.6526,2.6695,2.6574,2.6501,2.6212,2.6436,2.606,2.5194,2.4345,2.406,2.4045,2.4045,2.403,2.3374,2.2469,2.153,2.1686,2.1916,2.2402,2.2324,2.2267,2.1871,2.185,2.2356,2.315,2.3054,2.3594,2.4142,2.4158,2.4644,2.5128,2.5635,2.5868,2.6373,2.6826,2.6968,2.7231,2.7977,2.774,2.7539,2.767,2.7569,2.7477,2.8086,2.8735,2.9009,2.9253,2.9712,3.0098,3.029,3.0511,3.0449,3.089,3.0911,3.0942,3.0985,3.1468,3.1961,3.1918,3.2126,3.2695,3.2947,3.2958,3.2684,3.2355,3.2628,3.3244,3.353,3.3541,3.3689,3.387,3.4194,3.4739,2.4819,2.3795,2.3714,2.3687,2.3687,2.3687,2.3687,2.3687,2.368,2.3646,2.3592,2.3585,2.3537,2.3476,2.3483,2.349,2.3483,2.347,2.3767,2.4043,2.4326,2.463,2.5224,2.5507,2.5796,2.6352,2.6664,2.6961,2.6806,2.6349,2.6502,2.7014,2.6998,2.7589,2.8089,2.8031,2.827,2.8509,2.8425,2.8044,2.7404,2.7093,2.7347,2.8137,2.7199,2.7166,2.7409,2.6769,2.6687,2.6092,2.5763,2.5692,2.5419,2.5131,2.4836,2.4714,2.3849,2.3192,2.3062,2.3301,2.3228,2.3206,2.3155,2.2846,2.2973,2.3982,2.4477,2.3876,2.4653,2.4914,2.5175,2.5698,2.5884,2.637,2.6872,2.7284,2.7773,2.771,2.8168,2.8926,2.9663,2.9452,2.924,2.9346,2.9249,2.94,2.9826,3.0083,3.03,3.0475,3.1077,3.1639,3.187,3.2091,3.2311,3.2795,3.2553,3.2586,3.2828,3.3311,3.3323,3.3575,3.4162,3.445,3.4185,3.3897,3.3863,3.3863,3.3908,3.4219,3.43,3.4681,3.4809,3.5392,3.5941,2.5829,2.453,2.4419,2.4377,2.4377,2.4377,2.4384,2.409,2.4096,2.4069,2.3727,2.37,2.3673,2.3966,2.3945,2.4224,2.4252,2.4266,2.4551,2.5129,2.5421,2.5698,2.5975,2.6282,2.6865,2.7479,2.7416,2.7698,2.8222,2.7804,2.7651,2.8151,2.8061,2.8346,2.8898,2.9097,2.9303,2.9568,2.9463,2.9368,2.901,2.8111,2.8949,2.9228,2.8949,2.8374,2.8365,2.8264,2.7624,2.7306,2.7216,2.6874,2.6598,2.6314,2.5999,2.5912,2.5324,2.4973,2.4798,2.4676,2.4345,2.4315,2.4307,2.4455,2.4937,2.5487,2.5989,2.5272,2.5802,2.6075,2.634,2.6852,2.7294,2.7461,2.7644,2.8274,2.8682,2.8968,2.9475,3.0238,3.097,3.1126,3.1159,3.1461,3.1317,3.0975,3.1194,3.1184,3.1578,3.17,3.2333,3.3128,3.3139,3.3139,3.3615,3.3814,3.4034,3.4231,3.4231,3.4265,3.4323,3.4589,3.489,3.5157,3.5157,3.5192,3.5192,3.4867,3.4566,3.518,3.5542,3.5613,3.5976,3.6575,3.7151,2.649,2.6177,2.6163,2.6148,2.6148,2.6163,2.5866,2.5235,2.5264,2.4585,2.4165,2.3761,2.4307,2.4579,2.4894,2.5179,2.5735,2.6013,2.605,2.605,2.602,2.665,2.6957,2.7249,2.7518,2.8093,2.8417,2.8701,2.9225,2.9216,2.9057,2.9211,2.9118,2.9293,2.9829,3.0113,3.0345,3.0327,3.0548,3.1068,3.0986,3.0632,3.0569,3.1634,3.1884,3.128,2.9516,2.9516,2.9228,2.8382,2.8306,2.7994,2.7691,2.7421,2.7102,2.7085,2.7077,2.6996,2.6566,2.5715,2.5194,2.5139,2.5694,2.5995,2.6485,2.6469,2.6704,2.6914,2.7131,2.7432,2.7725,2.8286,2.8384,2.8825,2.898,2.9704,3.0133,3.0616,3.0867,3.1597,3.2045,3.2458,3.2847,3.3135,3.2867,3.2488,3.2675,3.2904,3.323,3.3605,3.3819,3.4222,3.4479,3.4479,3.4491,3.4679,3.482,3.5042,3.5053,3.5356,3.5427,3.5684,3.6078,3.6125,3.6382,3.6454,3.6515,3.6442,3.6406,3.6478,3.6539,3.6784,3.6893,3.7533,3.8125,2.8077,2.799,2.799,2.7389,2.6497,2.6497,2.62,2.6207,2.5902,2.5873,2.5503,2.5453,2.572,2.5713,2.6015,2.6008,2.6311,2.6311,2.6598,2.6901,2.7196,2.7499,2.8088,2.8367,2.8685,2.9241,2.9543,2.9845,3.0432,3.0612,3.0825,3.0685,3.0518,3.0465,3.0996,3.1451,3.1673,3.1617,3.1837,3.2329,3.1989,3.1952,3.1915,3.2187,3.2497,3.1896,3.0704,3.1203,3.0587,2.9674,2.9298,2.8992,2.8704,2.8425,2.8425,2.8425,2.8425,2.8374,2.8281,2.7142,2.6397,2.6269,2.6805,2.7604,2.8096,2.8035,2.7923,2.8132,2.8105,2.84,2.8356,2.8883,2.9078,2.9841,3.0335,3.1092,3.1552,3.1746,3.2211,3.2914,3.3373,3.3829,3.4476,3.4847,3.4293,3.3776,3.4204,3.4617,3.4947,3.5059,3.5284,3.5226,3.5473,3.5638,3.5627,3.5849,3.5826,3.606,3.606,3.6305,3.6305,3.6784,3.6968,3.7286,3.7568,3.7593,3.7643,3.7975,3.7717,3.7397,3.7618,3.7863,3.8271,3.851,3.8871,2.9672,2.9556,2.9498,2.8584,2.7389,2.7092,2.7092,2.6794,2.6794,2.6794,2.6497,2.6497,2.6794,2.6794,2.6787,2.7076,2.7358,2.7366,2.7678,2.7967,2.8255,2.8592,2.888,2.9456,2.9719,3.0361,3.0361,3.0926,3.148,3.1685,3.2208,3.2445,3.2645,3.2542,3.2626,3.3136,3.3298,3.2631,3.3448,3.3968,3.3674,3.2773,3.2716,3.2726,3.2707,3.2366,3.2018,3.1943,3.1605,3.0695,3.0052,2.9981,2.9683,2.9674,2.9674,2.9674,2.9665,2.9648,2.8992,2.8576,2.7298,2.6874,2.7985,2.8776,2.9536,2.9438,2.8787,2.8952,2.8872,2.9062,2.9331,3.0184,3.0665,3.1421,3.1659,3.2143,3.2565,3.3012,3.3499,3.4235,3.4706,3.5185,3.5607,3.5968,3.5884,3.531,3.5336,3.5507,3.5917,3.6073,3.6038,3.6228,3.6169,3.6569,3.6954,3.6732,3.6978,3.7041,3.7299,3.7299,3.7544,3.7813,3.7888,3.7963,3.8234,3.8712,3.8814,3.8992,3.8644,3.8221,3.853,3.8915,3.9277,3.9508,3.9898,3.1537,3.1511,3.0437,2.9473,2.888,2.8888,2.8287,2.7686,2.7693,2.7389,2.6794,2.6794,2.7092,2.7693,2.7686,2.799,2.8584,2.8584,2.8888,2.8888,2.9177,2.9473,2.9769,3.0056,3.0352,3.0943,3.1533,3.1819,3.2409,3.3254,3.3841,3.4437,3.4633,3.4806,3.4183,3.4719,3.4353,3.3126,3.463,3.55,3.5797,3.4254,3.4155,3.4391,3.3762,3.3409,3.3341,3.3009,3.2688,3.1818,3.1516,3.147,3.0867,3.0876,3.0584,3.0566,3.03,2.9938,2.9199,2.9315,2.8627,2.7682,2.8777,2.9939,3.0854,3.0466,2.9982,3.0421,3.0366,3.0837,3.1372,3.2158,3.2311,3.2781,3.302,3.3454,3.3885,3.463,3.5129,3.556,3.6317,3.682,3.6991,3.7091,3.7247,3.6895,3.6554,3.6654,3.7121,3.7085,3.7299,3.7428,3.7355,3.7555,3.7965,3.794,3.7878,3.8171,3.8366,3.8221,3.8221,3.8492,3.8814,3.8903,3.92,3.9706,3.9888,3.9833,3.9743,3.9679,3.9482,3.9833,4.0173,4.0526,4.0933,3.1642,3.1519,3.1021,3.0648,3.0352,2.9177,2.888,2.8584,2.8584,2.8287,2.8287,2.799,2.8287,2.8584,2.8584,2.8592,2.888,2.9473,2.9769,2.9769,3.0056,3.0648,3.0943,3.0943,3.1238,3.1819,3.2409,3.3301,3.4192,3.4769,3.5053,3.5639,3.6516,3.6152,3.5418,3.5608,3.5167,3.4809,3.5622,3.6453,3.7387,3.6463,3.6125,3.6708,3.5766,3.5112,3.4736,3.4411,3.4136,3.3574,3.3564,3.3526,3.3154,3.3125,3.2783,3.2414,3.2366,3.2329,3.1952,3.213,3.113,2.9866,2.9795,3.0964,3.1799,3.2001,3.1916,3.1896,3.2077,3.2579,3.3178,3.3282,3.3434,3.3937,3.4417,3.509,3.553,3.6323,3.6812,3.6909,3.7359,3.8023,3.8191,3.8655,3.8615,3.8361,3.8036,3.7999,3.8167,3.8358,3.8296,3.8624,3.8774,3.8774,3.8748,3.8972,3.8922,3.9264,3.9277,3.9132,3.9106,3.9473,3.981,3.9939,4.0213,4.0487,4.0671,4.0828,4.1223,4.125,4.0946,4.0644,4.092,4.1316,4.1766,3.3001,3.281,3.2007,3.1587,3.1533,3.0361,2.9769,2.9769,2.9769,2.9769,2.9769,2.9769,2.9769,2.9769,2.9769,2.9769,2.9769,3.0065,3.0352,3.0648,3.0943,3.1238,3.1533,3.2123,3.2703,3.3301,3.3889,3.476,3.5063,3.5931,3.6516,3.7392,3.7986,3.8245,3.7609,3.7514,3.685,3.7066,3.758,3.8145,3.8145,3.7814,3.7792,3.7771,3.7441,3.6824,3.6463,3.6166,3.59,3.5592,3.5274,3.5234,3.5112,3.5042,3.4706,3.4321,3.339,3.3371,3.3606,3.4748,3.342,3.1737,3.1951,3.224,3.3087,3.3307,3.3248,3.3496,3.401,3.4246,3.4206,3.4307,3.4824,3.533,3.6084,3.6755,3.6981,3.7791,3.7957,3.8041,3.8399,3.8787,3.9421,3.986,4.0258,4.0034,3.9551,3.9522,3.9235,3.9414,3.9364,3.9729,3.984,3.9853,3.9827,3.9763,3.9949,4.0121,4.0147,3.9936,4.0082,4.0435,4.0579,4.0972,4.0986,4.1301,4.1434,4.1831,4.1699,4.1766,4.1739,4.1713,4.1937,4.2071,4.2258,3.5611,3.5097,3.3397,3.2887,3.2427,3.1828,3.1238,3.1238,3.1229,3.1229,3.1229,3.0943,3.0943,3.0934,3.1238,3.0943,3.0943,3.1238,3.1265,3.1569,3.1891,3.2177,3.2786,3.3385,3.4022,3.4858,3.5445,3.6103,3.6275,3.7236,3.8406,3.9249,3.9876,4.0179,3.9865,3.954,3.9139,3.9018,3.9274,3.9552,3.9541,3.8651,3.8874,3.9119,3.9085,3.8422,3.8069,3.8036,3.7153,3.6547,3.5643,3.5622,3.5592,3.5294,3.5294,3.4957,3.3691,3.3889,3.4981,3.5866,3.5762,3.4365,3.4627,3.4637,3.4536,3.4395,3.4314,3.4522,3.4749,3.4923,3.5106,3.5923,3.6452,3.7244,3.7758,3.8237,3.8214,3.8689,3.9115,3.922,3.9579,3.9944,4.0555,4.0971,4.137,4.1141,4.0925,4.0979,4.0698,4.0238,4.0442,4.067,4.0554,4.049,4.0678,4.0826,4.0761,4.0933,4.1091,4.1091,4.1234,4.1234,4.1381,4.15,4.1777,4.1844,4.1937,4.2044,4.2165,4.2205,4.2258,4.2258,4.2231,4.2245,4.2365,3.6511,3.628,3.5477,3.4965,3.4779,3.4183,3.2712,3.1238,3.1229,3.1229,3.1229,3.1229,3.1551,3.1229,3.1229,3.1247,3.1542,3.1846,3.2527,3.2869,3.3526,3.4509,3.5161,3.5477,3.5803,3.6396,3.6978,3.7539,3.8466,3.9351,4.0234,4.0867,4.1069,4.1385,4.1689,4.1724,4.0875,4.039,4.0635,4.0925,4.0913,4.0288,4.0521,4.081,4.1099,4.0441,3.9785,3.9773,3.8907,3.834,3.8062,3.8029,3.7259,3.7249,3.6929,3.6145,3.5203,3.4866,3.6031,3.692,3.7131,3.6729,3.7003,3.6896,3.6475,3.6035,3.566,3.5866,3.6082,3.6554,3.6767,3.73,3.782,3.8338,3.8831,3.9311,3.955,3.9741,4.0166,4.0305,4.0662,4.1088,4.1714,4.2067,4.2453,4.2233,4.2299,4.2376,4.2153,4.1674,4.1261,4.1491,4.1668,4.1563,4.1698,4.1845,4.1805,4.2004,4.1897,4.1844,4.1884,4.1911,4.1991,4.2031,4.2044,4.2098,4.2151,4.2285,4.2432,4.2499,4.2539,4.2539,4.2539,4.2552,4.2592,3.7502,3.6896,3.6467,3.6224,3.5982,3.5455,3.4612,3.3109,3.2454,3.2123,3.2132,3.2204,3.2536,3.285,3.2915,3.3257,3.3563,3.4175,3.4529,3.4883,3.5516,3.5873,3.6568,3.7215,3.7174,3.78,3.8394,3.9219,4.0195,4.1071,4.1933,4.1921,4.1956,4.2545,4.2804,4.2745,4.265,4.2146,4.2005,4.2272,4.2224,4.1864,4.2431,4.2756,4.2792,4.2153,4.1203,4.1203,4.0612,4.0032,4.0032,3.9686,3.8941,3.8929,3.8907,3.8156,3.7217,3.7164,3.8004,3.8577,3.8181,3.7787,3.8379,3.9188,3.9041,3.8309,3.7905,3.7536,3.802,3.8501,3.8746,3.8979,3.9211,3.9431,3.9879,4.0048,4.0538,4.0752,4.1188,4.1338,4.1768,4.2489,4.2873,4.3212,4.3321,4.3441,4.3282,4.3373,4.3107,4.2556,4.2398,4.2305,4.2456,4.2337,4.2485,4.2378,4.2312,4.2245,4.2124,4.2111,4.2218,4.2218,4.2178,4.2231,4.2312,4.2365,4.2432,4.2565,4.2699,4.2779,4.2859,4.2913,4.2913,4.2886,4.2953,3.8497,3.8086,3.7163,3.6896,3.6315,3.6479,3.6285,3.6285,3.4651,3.3965,3.4013,3.4146,3.4529,3.4845,3.4942,3.5317,3.5605,3.5903,3.623,3.6927,3.6629,3.6978,3.7626,3.7873,3.8872,3.9393,3.9965,4.0669,4.148,4.2402,4.2733,4.2898,4.3535,4.3878,4.3914,4.4197,4.4124,4.3427,4.3235,4.3419,4.2996,4.284,4.2973,4.2985,4.3033,4.2756,4.2431,4.2118,4.1226,4.0913,4.0601,4.0601,4.0288,4.0266,4.0254,3.9942,3.8952,3.8885,3.9717,4.0304,3.9548,3.9105,3.9267,4.0566,4.0816,3.9687,3.8974,3.8918,3.9132,3.9367,3.9614,4.0151,4.0396,4.058,4.0752,4.1186,4.1365,4.1842,4.2292,4.2713,4.2845,4.3568,4.376,4.4114,4.4209,4.4116,4.4222,4.4035,4.3835,4.3501,4.33,4.3167,4.2953,4.2846,4.2766,4.2659,4.2565,4.2472,4.2378,4.2405,4.2539,4.2458,4.2312,4.2458,4.2632,4.2659,4.2726,4.2846,4.2953,4.3086,4.318,4.3287,4.33,4.3273,4.3327,4.0748,4.0435,3.9187,3.8763,3.8839,3.7729,3.7274,3.7419,3.6477,3.615,3.5863,3.5903,3.5933,3.625,3.6321,3.6669,3.6947,3.7307,3.7328,3.7709,3.8061,3.8723,3.9472,3.974,4.0372,4.1016,4.1615,4.2167,4.2752,4.3372,4.4003,4.4003,4.4858,4.5118,4.513,4.5427,4.5377,4.4687,4.5154,4.465,4.3612,4.3223,4.2824,4.2984,4.2924,4.313,4.278,4.2672,4.2395,4.2407,4.1793,4.1191,4.0601,4.0601,4.0601,4.0589,4.0266,4.0509,4.0798,4.1399,4.1006,4.0672,4.0913,4.1858,4.1751,4.0531,4.0051,4.0028,4.0265,4.0501,4.076,4.1311,4.1569,4.1729,4.19,4.2045,4.22,4.293,4.3392,4.38,4.3944,4.441,4.4886,4.474,4.485,4.4663,4.4476,4.4316,4.4235,4.3995,4.3728,4.3541,4.3207,4.306,4.3006,4.2966,4.2873,4.2846,4.2793,4.2819,4.2846,4.2766,4.2686,4.2833,4.2966,4.298,4.2993,4.3033,4.3153,4.3354,4.3461,4.3541,4.3688,4.3701,4.3754,4.1423,4.1149,4.019,4.0167,4.01,3.9634,3.923,3.9436,3.9246,3.899,3.867,3.7709,3.706,3.7389,3.7451,3.7782,3.8081,3.8412,3.9097,3.9472,3.9783,4.046,4.1161,4.1507,4.1774,4.2397,4.3009,4.3584,4.3919,4.4506,4.5078,4.5103,4.5699,4.6307,4.6307,4.6592,4.6554,4.5563,4.639,4.6276,4.4859,4.4381,4.3564,4.3395,4.399,4.3904,4.3226,4.313,4.3395,4.3081,4.2431,4.2359,4.1758,4.1758,4.1758,4.1758,4.1758,4.1758,4.1782,4.2094,4.2696,4.2047,4.2023,4.2576,4.2864,4.1668,4.1835,4.1788,4.1266,4.1478,4.2031,4.2583,4.2852,4.3059,4.3277,4.347,4.3597,4.4025,4.4436,4.4803,4.4998,4.4972,4.5152,4.5251,4.5104,4.501,4.481,4.465,4.4569,4.4449,4.4195,4.3968,4.3661,4.3394,4.33,4.3247,4.3193,4.318,4.3167,4.3073,4.302,4.306,4.3086,4.3153,4.322,4.3287,4.33,4.334,4.3487,4.3701,4.3754,4.3795,4.3941,4.4048,4.4035,4.1454,4.1201,4.0982,4.1063,4.1035,4.1263,4.1526,4.1788,4.1994,4.2074,4.1428,3.886,3.8196,3.856,3.8977,3.9353,3.9968,4.0171,4.0849,4.1161,4.1462,4.1774,4.2074,4.2409,4.2709,4.362,4.4219,4.4518,4.4816,4.5413,4.5997,4.5997,4.6592,4.6902,4.7199,4.7199,4.7174,4.7174,4.7754,4.8141,4.729,4.6087,4.5261,4.5186,4.5771,4.5466,4.4745,4.4026,4.4244,4.388,4.348,4.3395,4.3322,4.331,4.3237,4.3225,4.2576,4.2876,4.32,4.3212,4.3212,4.32,4.3212,4.3212,4.3513,4.3439,4.3317,4.317,4.2629,4.2827,4.3394,4.3677,4.3934,4.4141,4.4371,4.4588,4.4993,4.5129,4.5526,4.5879,4.5839,4.5825,4.5705,4.5531,4.5398,4.5304,4.5184,4.5037,4.489,4.4743,4.4543,4.4409,4.4235,4.3968,4.3674,4.3567,4.3527,4.3487,4.3461,4.3314,4.3247,4.338,4.3434,4.3367,4.3434,4.3554,4.3648,4.3701,4.3875,4.3995,4.3941,4.3928,4.4102,4.4182,4.4169,4.2645,4.2407,4.1782,4.1737,4.2134,4.1638,4.1617,4.1994,4.2063,4.2097,4.2085,4.1774,4.1128,4.1428,4.1462,4.1496,4.1206,4.1796,4.1796,4.2097,4.2397,4.2709,4.3009,4.3309,4.3608,4.4207,4.5115,4.5401,4.5712,4.6307,4.6605,4.6605,4.7496,4.7793,4.8089,4.8102,4.8694,4.8385,4.8681,4.9017,4.8424,4.7919,4.7598,4.7828,4.8404,4.8552,4.7768,4.6367,4.5986,4.5644,4.529,4.5152,4.5052,4.4964,4.4612,4.4212,4.3825,4.3825,4.415,4.4788,4.4826,4.445,4.4463,4.475,4.4738,4.4987,4.4899,4.4848,4.4399,4.4399,4.4684,4.4684,4.4944,4.4998,4.5165,4.5598,4.6028,4.5975,4.6175,4.6306,4.6199,4.6159,4.6079,4.5892,4.5692,4.5571,4.5411,4.5277,4.5211,4.5064,4.4903,4.4797,4.4716,4.4382,4.4022,4.3928,4.3875,4.3835,4.3768,4.3661,4.3661,4.3821,4.3835,4.3674,4.3728,4.3861,4.3955,4.4008,4.4062,4.4129,4.4035,4.4035,4.4235,4.4369,4.4409]}]]